[[{"header":{"parameterUnit":"m.s-1","parameterCategory":1,"la1":30.6,"la2":28.766,"lo1":-90.7593,"lo2":-88.6598,"dy":0.0162,"dx":0.0183,"nx":116,"ny":114,"refTime":"2023-06-18T00:00:00:Z","depth":0,"parameterNumber":2,"parameterNumberName":"U-component_of_WINDS"},"data":[0.0,0.0,0.0,0.0,0.0,0.0,0.0,0.0,0.0,0.0,0.0,0.0,0.0,0.0,0.0,0.0,0.0,0.0,0.0,0.0,0.0,0.0,0.0,0.0,0.0,0.0,0.0,0.0,0.0,0.0,0.0,0.0,0.0,0.0,0.0,0.0,0.0,0.0,0.0,0.0,0.0,0.0,0.0,0.0,0.0,0.0,0.0,0.0,0.0,0.0,0.0,0.0,0.0,0.0,0.0,0.0,0.0,0.0,0.0,0.0,0.0,0.0,0.0,0.0,0.0,0.0,0.0,0.0,0.0,0.0,0.0,0.0,0.0,0.0,0.0,0.0,0.0,0.0,0.0,0.0,0.0,0.0,0.0,0.0,0.0,0.0,0.0,0.0,0.0,0.0,0.0,0.0,0.0,0.0,0.0,0.0,0.0,0.0,0.0,0.0,0.0,0.0,0.0,0.0,0.0,0.0,0.0,0.0,0.0,0.0,0.0,0.0,0.0,0.0,0.0,0.0,0.0,0.0,0.0,0.0,0.0,0.0,0.0,0.0,0.0,0.0,0.0,0.0,0.0,0.0,0.0,0.0,0.0,0.0,0.0,0.0,0.0,0.0,0.0,0.0,0.0,0.0,0.0,0.0,0.0,0.0,0.0,0.0,0.0,0.0,0.0,0.0,0.0,0.0,0.0,0.0,0.0,0.0,0.0,0.0,0.0,0.0,0.0,0.0,0.0,0.0,0.0,0.0,0.0,0.0,0.0,0.0,0.0,0.0,0.0,0.0,0.0,0.0,0.0,0.0,0.0,0.0,0.0,0.0,0.0,0.0,0.0,0.0,0.0,0.0,0.0,0.0,0.0,0.0,0.0,0.0,0.0,0.0,0.0,0.0,0.0,0.0,0.0,0.0,0.0,0.0,0.0,0.0,0.0,0.0,0.0,0.0,0.0,0.0,0.0,0.0,0.0,0.0,0.0,0.0,0.0,0.0,0.0,0.0,0.0,0.0,0.0,0.0,0.0,0.0,0.0,0.0,0.0,0.0,0.0,0.0,0.0,0.0,0.0,0.0,0.0,0.0,0.0,0.0,0.0,0.0,0.0,0.0,0.0,0.0,0.0,0.0,0.0,0.0,0.0,0.0,0.0,0.0,0.0,0.0,0.0,0.0,0.0,0.0,0.0,0.0,0.0,0.0,0.0,0.0,0.0,0.0,0.0,0.0,0.0,0.0,0.0,0.0,0.0,0.0,0.0,0.0,0.0,0.0,0.0,0.0,0.0,0.0,0.0,0.0,0.0,0.0,0.0,0.0,0.0,0.0,0.0,0.0,0.0,0.0,0.0,0.0,0.0,0.0,0.0,0.0,0.0,0.0,0.0,0.0,0.0,0.0,0.0,0.0,0.0,0.0,0.0,0.0,0.0,0.0,0.0,0.0,0.0,0.0,0.0,0.0,0.0,0.0,0.0,0.0,0.0,0.0,0.0,0.0,0.0,0.0,0.0,0.0,0.0,0.0,0.0,0.0,0.0,0.0,0.0,0.0,0.0,0.0,0.0,0.0,0.0,0.0,0.0,0.0,0.0,0.0,0.0,0.0,0.0,0.0,0.0,0.0,0.0,0.0,0.0,0.0,0.0,0.0,0.0,0.0,0.0,0.0,0.0,0.0,0.0,0.0,0.0,0.0,0.0,0.0,0.0,0.0,0.0,0.0,0.0,0.0,0.0,0.0,0.0,0.0,0.0,0.0,0.0,0.0,0.0,0.0,0.0,0.0,0.0,0.0,0.0,0.0,0.0,0.0,0.0,0.0,0.0,0.0,0.0,0.0,0.0,0.0,0.0,0.0,0.0,0.0,0.0,0.0,0.0,0.0,0.0,0.0,0.0,0.0,0.0,0.0,0.0,0.0,0.0,0.0,0.0,0.0,0.0,0.0,0.0,0.0,0.0,0.0,0.0,0.0,0.0,0.0,0.0,0.0,0.0,0.0,0.0,0.0,0.0,0.0,0.0,0.0,0.0,0.0,0.0,0.0,0.0,0.0,0.0,0.0,0.0,0.0,0.0,0.0,0.0,0.0,0.0,0.0,0.0,0.0,0.0,0.0,0.0,0.0,0.0,0.0,0.0,0.0,0.0,0.0,0.0,0.0,0.0,0.0,0.0,0.0,0.0,0.0,0.0,0.0,0.0,0.0,0.0,0.0,0.0,0.0,0.0,0.0,0.0,0.0,0.0,0.0,0.0,0.0,0.0,0.0,0.0,0.0,0.0,0.0,0.0,0.0,0.0,0.0,0.0,0.0,0.0,0.0,0.0,0.0,0.0,0.0,0.0,0.0,0.0,0.0,0.0,0.0,0.0,0.0,0.0,0.0,0.0,0.0,0.0,0.0,0.0,0.0,0.0,0.0,0.0,0.0,0.0,0.0,0.0,0.0,0.0,0.0,0.0,0.0,0.0,0.0,0.0,0.0,0.0,0.0,0.0,0.0,0.0,0.0,0.0,0.0,0.0,0.0,0.0,0.0,0.0,0.0,0.0,0.0,0.0,0.0,0.0,0.0,0.0,0.0,0.0,0.0,0.0,0.0,0.0,0.0,0.0,0.0,0.0,0.0,0.0,0.0,0.0,0.0,0.0,0.0,0.0,0.0,0.0,0.0,0.0,0.0,0.0,0.0,0.0,0.0,0.0,0.0,0.0,0.0,0.0,0.0,0.0,0.0,0.0,0.0,0.0,0.0,0.0,0.0,0.0,0.0,0.0,0.0,0.0,0.0,0.0,0.0,0.0,0.0,0.0,0.0,0.0,0.0,0.0,0.0,0.0,0.0,0.0,0.0,0.0,0.0,0.0,0.0,0.0,0.0,0.0,0.0,0.0,0.0,0.0,0.0,0.0,0.0,0.0,0.0,0.0,0.0,0.0,0.0,0.0,0.0,0.0,0.0,0.0,0.0,0.0,0.0,0.0,0.0,0.0,0.0,0.0,0.0,0.0,0.0,0.0,0.0,0.0,0.0,0.0,0.0,0.0,0.0,0.0,0.0,0.0,0.0,0.0,0.0,0.0,0.0,0.0,0.0,0.0,0.0,0.0,0.0,0.0,0.0,0.0,0.0,0.0,0.0,0.0,0.0,0.0,0.0,0.0,0.0,0.0,0.0,0.0,0.0,0.0,0.0,0.0,0.0,0.0,0.0,0.0,0.0,0.0,0.0,0.0,0.0,0.0,0.0,0.0,0.0,0.0,0.0,0.0,0.0,0.0,0.0,0.0,0.0,0.0,0.0,0.0,0.0,0.0,0.0,0.0,0.0,0.0,0.0,0.0,0.0,0.0,0.0,0.0,0.0,0.0,0.0,0.0,0.0,0.0,0.0,0.0,0.0,0.0,0.0,0.0,0.0,0.0,0.0,0.0,0.0,0.0,0.0,0.0,0.0,0.0,0.0,0.0,0.0,0.0,0.0,0.0,0.0,0.0,0.0,0.0,0.0,0.0,0.0,0.0,0.0,0.0,0.0,0.0,0.0,0.0,0.0,0.0,0.0,0.0,0.0,0.0,0.0,0.0,0.0,0.0,0.0,0.0,0.0,0.0,0.0,0.0,0.0,0.0,0.0,0.0,0.0,0.0,0.0,0.0,0.0,0.0,0.0,0.0,0.0,0.0,0.0,0.0,0.0,0.0,0.0,0.0,0.0,0.0,0.0,0.0,0.0,0.0,0.0,0.0,0.0,0.0,0.0,0.0,0.0,0.0,0.0,0.0,0.0,0.0,0.0,0.0,0.0,0.0,0.0,0.0,0.0,0.0,0.0,0.0,0.0,0.0,0.0,0.0,0.0,0.0,0.0,0.0,0.0,0.0,0.0,0.0,0.0,0.0,0.0,0.0,0.0,0.0,0.0,0.0,0.0,0.0,0.0,0.0,0.0,0.0,0.0,0.0,0.0,0.0,0.0,0.0,0.0,0.0,0.0,0.0,0.0,0.0,0.0,0.0,0.0,0.0,0.0,0.0,0.0,0.0,0.0,0.0,0.0,0.0,0.0,0.0,0.0,0.0,0.0,0.0,0.0,0.0,0.0,0.0,0.0,0.0,0.0,0.0,0.0,0.0,0.0,0.0,0.0,0.0,0.0,0.0,0.0,0.0,0.0,0.0,0.0,0.0,0.0,0.0,0.0,0.0,0.0,0.0,0.0,0.0,0.0,0.0,0.0,0.0,0.0,0.0,0.0,0.0,0.0,0.0,0.0,0.0,0.0,0.0,0.0,0.0,0.0,0.0,0.0,0.0,0.0,0.0,0.0,0.0,0.0,0.0,0.0,0.0,0.0,0.0,0.0,0.0,0.0,0.0,0.0,0.0,0.0,0.0,0.0,0.0,0.0,0.0,0.0,0.0,0.0,0.0,0.0,0.0,0.0,0.0,0.0,0.0,0.0,0.0,0.0,0.0,0.0,0.0,0.0,0.0,0.0,0.0,0.0,0.0,0.0,0.0,0.0,0.0,0.0,0.0,0.0,0.0,0.0,0.0,0.0,0.0,0.0,0.0,0.0,0.0,0.0,0.0,0.0,0.0,0.0,0.0,0.0,0.0,0.0,0.0,0.0,0.0,0.0,0.0,0.0,0.0,0.0,0.0,0.0,0.0,0.0,0.0,0.0,0.0,0.0,0.0,0.0,0.0,0.0,0.0,0.0,0.0,0.0,0.0,0.0,0.0,0.0,0.0,0.0,0.0,0.0,0.0,0.0,0.0,0.0,0.0,0.0,0.0,0.0,0.0,0.0,0.0,0.0,0.0,0.0,0.0,0.0,0.0,0.0,0.0,0.0,0.0,0.0,0.0,0.0,0.0,0.0,0.0,0.0,0.0,0.0,0.0,0.0,0.0,0.0,0.0,0.0,0.0,0.0,0.0,0.0,0.0,0.0,0.0,0.0,0.0,0.0,0.0,0.0,0.0,0.0,0.0,0.0,0.0,0.0,0.0,0.0,0.0,0.0,0.0,0.0,0.0,0.0,0.0,0.0,0.0,0.0,0.0,0.0,0.0,0.0,0.0,0.0,0.0,0.0,0.0,0.0,0.0,0.0,0.0,0.0,0.0,0.0,0.0,0.0,0.0,0.0,0.0,0.0,0.0,0.0,0.0,0.0,0.0,0.0,0.0,0.0,0.0,0.0,0.0,0.0,0.0,0.0,0.0,0.0,0.0,0.0,0.0,0.0,0.0,0.0,0.0,0.0,0.0,0.0,0.0,0.0,0.0,0.0,0.0,0.0,0.0,0.0,0.0,0.0,0.0,0.0,0.0,0.0,0.0,0.0,0.0,0.0,0.0,0.0,0.0,0.0,0.0,0.0,0.0,0.0,0.0,0.0,0.0,0.0,0.0,0.0,0.0,0.0,0.0,0.0,0.0,0.0,0.0,0.0,0.0,0.0,0.0,0.0,0.0,0.0,0.0,0.0,0.0,0.0,0.0,0.0,0.0,0.0,0.0,0.0,0.0,0.0,0.0,0.0,0.0,0.0,0.0,0.0,0.0,0.0,0.0,0.0,0.0,0.0,0.0,0.0,0.0,0.0,0.0,0.0,0.0,0.0,0.0,0.0,0.0,0.0,0.0,0.0,0.0,0.0,0.0,0.0,0.0,0.0,0.0,0.0,0.0,0.0,0.0,0.0,0.0,0.0,0.0,0.0,0.0,0.0,0.0,0.0,0.0,0.0,0.0,0.0,0.0,0.0,0.0,0.0,0.0,0.0,0.0,0.0,0.0,0.0,0.0,0.0,0.0,0.0,0.0,0.0,0.0,0.0,0.0,0.0,0.0,0.0,0.0,0.0,0.0,0.0,0.0,0.0,0.0,0.0,0.0,0.0,0.0,0.0,0.0,0.0,0.0,0.0,0.0,0.0,0.0,0.0,0.0,0.0,0.0,0.0,0.0,0.0,0.0,0.0,0.0,0.0,0.0,0.0,0.0,0.0,0.0,0.0,0.0,0.0,0.0,0.0,0.0,0.0,0.0,0.0,0.0,0.0,0.0,0.0,0.0,0.0,0.0,0.0,0.0,0.0,0.0,0.0,0.0,0.0,0.0,0.0,0.0,0.0,0.0,0.0,0.0,0.0,0.0,0.0,0.0,0.0,0.0,0.0,0.0,0.0,-4.545,-4.5753,0.0,0.0,0.0,0.0,0.0,0.0,0.0,0.0,0.0,0.0,0.0,0.0,0.0,0.0,0.0,0.0,0.0,0.0,0.0,0.0,0.0,0.0,0.0,0.0,0.0,0.0,0.0,0.0,0.0,0.0,0.0,0.0,0.0,0.0,0.0,0.0,0.0,0.0,-4.0882,-4.0875,-4.0859,-4.0955,-4.0915,-4.08,0.0,0.0,0.0,0.0,0.0,0.0,0.0,0.0,0.0,0.0,0.0,0.0,0.0,0.0,0.0,0.0,0.0,0.0,0.0,0.0,0.0,0.0,0.0,0.0,0.0,0.0,0.0,0.0,0.0,0.0,0.0,0.0,0.0,0.0,0.0,0.0,0.0,0.0,0.0,0.0,0.0,0.0,0.0,0.0,0.0,0.0,0.0,0.0,0.0,0.0,0.0,0.0,0.0,0.0,0.0,0.0,0.0,0.0,0.0,0.0,0.0,0.0,0.0,0.0,0.0,0.0,0.0,0.0,0.0,0.0,-4.5157,-4.5136,0.0,0.0,0.0,0.0,0.0,0.0,0.0,0.0,0.0,0.0,0.0,0.0,0.0,0.0,0.0,0.0,0.0,0.0,0.0,0.0,0.0,0.0,0.0,0.0,0.0,0.0,0.0,0.0,0.0,0.0,0.0,0.0,0.0,0.0,0.0,0.0,0.0,0.0,-4.0647,-4.074,-4.0769,-4.105,-4.1041,-4.0838,-4.083,0.0,0.0,0.0,0.0,0.0,0.0,0.0,0.0,0.0,0.0,0.0,0.0,0.0,0.0,0.0,0.0,0.0,0.0,0.0,0.0,0.0,0.0,0.0,0.0,0.0,0.0,0.0,0.0,0.0,0.0,0.0,0.0,0.0,0.0,0.0,0.0,0.0,0.0,0.0,0.0,0.0,0.0,0.0,0.0,0.0,0.0,0.0,0.0,0.0,0.0,0.0,0.0,0.0,0.0,0.0,0.0,0.0,0.0,0.0,0.0,0.0,0.0,0.0,-4.6563,-4.6459,-4.6459,-4.6459,-4.5929,-4.4972,-4.458,-4.4252,-4.4058,-4.4713,0.0,0.0,0.0,0.0,0.0,0.0,0.0,0.0,0.0,0.0,0.0,0.0,0.0,0.0,0.0,0.0,0.0,0.0,0.0,0.0,0.0,0.0,0.0,0.0,0.0,0.0,0.0,0.0,0.0,0.0,0.0,0.0,0.0,-3.6922,-3.7398,-3.8389,-3.9212,-3.9664,-3.9805,-4.0633,-4.1015,-4.0974,-4.0976,-4.0975,-4.0967,0.0,0.0,0.0,0.0,0.0,0.0,0.0,0.0,0.0,0.0,0.0,0.0,0.0,0.0,0.0,0.0,0.0,0.0,0.0,0.0,0.0,0.0,0.0,0.0,0.0,0.0,0.0,0.0,0.0,0.0,0.0,0.0,0.0,0.0,0.0,0.0,0.0,0.0,0.0,0.0,0.0,-4.1937,-4.1937,0.0,0.0,0.0,0.0,0.0,0.0,0.0,0.0,0.0,0.0,0.0,0.0,0.0,-4.714,-4.7106,-4.6052,-4.5536,-4.5518,-4.4471,-4.3977,-4.3977,-4.3977,-4.3889,-4.3729,-4.3667,0.0,-4.4028,-4.4482,0.0,0.0,0.0,0.0,0.0,0.0,0.0,0.0,0.0,0.0,0.0,0.0,0.0,0.0,0.0,0.0,0.0,0.0,0.0,0.0,0.0,0.0,0.0,0.0,0.0,0.0,0.0,0.0,0.0,0.0,0.0,0.0,-3.6232,-3.6462,-3.7095,-3.8112,-3.8559,-3.879,-3.8839,-3.9779,-4.0235,-4.0293,-4.0781,-4.1035,-4.1094,-4.0976,0.0,0.0,0.0,0.0,0.0,0.0,0.0,0.0,0.0,0.0,0.0,0.0,0.0,0.0,0.0,0.0,0.0,0.0,0.0,0.0,0.0,0.0,0.0,0.0,0.0,0.0,0.0,0.0,0.0,0.0,0.0,0.0,0.0,0.0,0.0,0.0,0.0,0.0,0.0,-4.1979,-4.1937,-4.2262,-4.2519,-4.2826,0.0,0.0,0.0,0.0,0.0,0.0,0.0,0.0,0.0,-4.4786,-4.5171,-4.526,-4.5065,-4.4559,-4.4295,-4.4295,-4.3729,-4.3497,-4.3497,-4.3497,-4.3497,-4.3497,-4.3497,-4.3597,-4.3758,-4.4106,-4.4482,-4.4849,0.0,0.0,0.0,0.0,-4.5586,-4.5586,0.0,0.0,0.0,0.0,0.0,0.0,0.0,0.0,0.0,0.0,0.0,0.0,0.0,0.0,0.0,-3.2246,0.0,0.0,0.0,0.0,0.0,0.0,0.0,0.0,-3.5583,-3.5952,-3.6554,-3.7404,-3.7734,-3.787,-3.7831,-3.8783,-3.9271,-3.9379,-4.0272,-4.0879,-4.1191,-4.1094,-4.0957,-4.0798,0.0,0.0,0.0,0.0,0.0,0.0,0.0,0.0,0.0,0.0,0.0,0.0,0.0,0.0,0.0,0.0,0.0,0.0,0.0,0.0,0.0,0.0,0.0,0.0,0.0,0.0,0.0,0.0,0.0,0.0,0.0,0.0,0.0,0.0,0.0,0.0,0.0,-4.1464,-4.1595,-4.2162,-4.2244,-4.2501,0.0,0.0,0.0,0.0,0.0,0.0,-4.4308,-4.4308,-4.4165,-4.3881,-4.3881,-4.374,-4.3479,-4.3497,-4.3497,-4.3497,-4.3497,-4.3497,-4.3497,-4.3497,-4.3548,-4.3612,-4.3612,-4.3679,-4.3791,-4.3943,-4.4233,-4.4631,-4.4966,-4.5302,-4.5586,-4.5586,-4.5586,-4.5586,0.0,0.0,0.0,0.0,0.0,0.0,0.0,0.0,0.0,0.0,0.0,0.0,0.0,0.0,-3.1172,-3.16,-3.221,-3.2862,0.0,0.0,0.0,0.0,0.0,-3.4713,-3.4751,-3.5038,-3.5198,-3.5253,-3.6296,-3.6785,-3.681,-3.7805,-3.8305,-3.8412,-3.9354,-4.0293,-4.1191,-4.1191,-4.1035,-4.0798,-4.0804,0.0,0.0,0.0,0.0,0.0,0.0,0.0,0.0,0.0,0.0,0.0,0.0,0.0,0.0,0.0,0.0,0.0,0.0,0.0,0.0,0.0,0.0,0.0,0.0,0.0,0.0,0.0,0.0,0.0,0.0,0.0,0.0,0.0,0.0,0.0,0.0,0.0,0.0,-4.0903,-4.0995,0.0,0.0,0.0,0.0,-4.3479,-4.3513,-4.3548,-4.3548,-4.3548,-4.3548,-4.3513,-4.3513,-4.3513,-4.3497,-4.3497,-4.3497,-4.3497,-4.3497,-4.3497,-4.3497,-4.3497,-4.366,-4.3986,-4.3986,-4.4175,-4.4501,-4.4146,-4.4233,-4.4631,-4.4966,-4.5302,-4.5586,-4.5586,-4.5586,-4.5586,0.0,0.0,0.0,0.0,0.0,0.0,0.0,0.0,0.0,0.0,0.0,0.0,0.0,-2.994,-3.0136,-3.0711,-3.1185,-3.174,-3.2411,0.0,0.0,0.0,0.0,-3.4189,-3.4379,-3.4675,-3.4926,-3.5105,-3.5656,-3.593,-3.5949,-3.6815,-3.7313,-3.7506,-3.8396,-3.9387,-4.0391,-4.0957,-4.1055,-4.0798,-4.0804,-4.0677,0.0,0.0,0.0,0.0,0.0,0.0,0.0,0.0,0.0,0.0,0.0,0.0,0.0,0.0,0.0,0.0,0.0,0.0,0.0,0.0,0.0,0.0,0.0,0.0,0.0,0.0,0.0,0.0,0.0,0.0,0.0,0.0,0.0,0.0,0.0,0.0,0.0,-4.1358,-4.1133,0.0,-4.2021,-4.248,-4.2788,-4.2976,-4.3286,-4.3497,-4.3497,-4.3497,-4.3497,-4.3497,-4.3497,-4.3497,-4.3497,-4.3497,-4.3497,-4.3497,-4.3497,-4.3497,-4.3497,-4.3497,-4.366,-4.4016,-4.4016,-4.4233,-4.458,-4.4447,-4.4606,-4.4943,-4.5052,-4.5302,-4.5586,-4.5586,-4.5586,-4.5586,0.0,0.0,0.0,0.0,0.0,0.0,0.0,0.0,0.0,0.0,0.0,-2.93,-2.9134,-2.9104,-2.9271,-2.9673,-3.0319,-3.0909,-3.1462,0.0,0.0,0.0,-3.3361,-3.3698,-3.3854,-3.4292,-3.4614,-3.4794,-3.5105,-3.5273,-3.5388,-3.591,-3.63,-3.6573,-3.7459,-3.8273,-3.9062,-4.0254,-4.0781,-4.0798,-4.0784,-4.0658,-4.0431,0.0,0.0,0.0,0.0,0.0,0.0,0.0,0.0,0.0,0.0,0.0,0.0,0.0,0.0,0.0,0.0,0.0,0.0,0.0,0.0,0.0,0.0,0.0,0.0,0.0,0.0,0.0,0.0,0.0,0.0,0.0,0.0,0.0,0.0,-4.0153,-4.0466,-4.1402,-4.0967,-4.092,-4.1707,-4.1979,-4.2262,-4.2655,-4.3014,-4.3286,-4.3479,-4.3497,-4.3497,-4.3497,-4.3497,-4.3497,-4.3497,-4.3497,-4.3497,-4.3497,-4.3497,-4.3497,-4.3497,-4.3497,-4.366,-4.4016,-4.4146,-4.4401,-4.4776,-4.4896,-4.5074,-4.5243,-4.514,-4.5302,-4.5586,-4.5586,-4.5586,-4.5586,0.0,0.0,0.0,0.0,0.0,0.0,0.0,0.0,0.0,0.0,-2.8319,-2.781,-2.8415,-2.8463,-2.8463,-2.8511,-2.9585,-3.041,-3.0858,-3.1881,0.0,0.0,0.0,0.0,-3.3184,-3.3854,-3.4176,-3.4176,-3.4529,-3.4832,-3.5088,-3.5094,-3.5269,-3.5641,-3.6535,-3.7033,-3.7305,-3.9062,-4.0176,-4.0759,-4.0726,-4.062,-4.0489,0.0,0.0,0.0,0.0,0.0,0.0,0.0,0.0,0.0,0.0,0.0,0.0,0.0,0.0,0.0,0.0,0.0,0.0,0.0,0.0,0.0,0.0,0.0,0.0,0.0,0.0,0.0,0.0,0.0,0.0,0.0,0.0,0.0,-3.8908,-3.961,-4.0286,-4.0827,-4.0417,-4.0514,-4.1639,-4.1223,-4.1402,-4.2559,-4.2711,-4.2939,-4.3479,-4.3497,-4.3497,-4.3497,-4.3497,-4.3497,-4.3497,-4.3497,-4.3497,-4.3497,-4.3497,-4.3497,-4.3497,-4.3497,-4.366,-4.3998,-4.4419,-4.48,-4.5137,-4.5457,-4.5586,-4.5568,-4.5243,-4.5322,-4.5586,-4.5586,-4.5586,-4.5586,0.0,0.0,0.0,0.0,0.0,0.0,0.0,0.0,0.0,0.0,-2.8037,-2.7585,-2.7795,-2.7378,-2.7464,-2.8415,-2.8779,-2.9435,-3.041,0.0,0.0,0.0,0.0,0.0,-3.2681,-3.3405,-3.3762,-3.3762,-3.4405,-3.4734,-3.4793,-3.4812,-3.4978,-3.532,-3.5584,-3.619,-3.709,-3.7598,-3.8574,-3.9841,-4.0513,-4.0658,-4.0489,0.0,0.0,0.0,0.0,0.0,0.0,0.0,0.0,0.0,0.0,0.0,0.0,0.0,0.0,0.0,0.0,0.0,0.0,0.0,0.0,0.0,0.0,0.0,0.0,0.0,0.0,0.0,0.0,0.0,0.0,0.0,-3.8092,-3.8302,-3.8799,-3.961,-4.0171,-4.0286,-4.0204,-4.0204,-4.0563,-4.0797,-4.1223,-4.1979,-4.244,-4.2939,-4.3479,-4.3497,-4.3497,-4.3497,-4.3497,-4.3497,-4.3497,-4.3497,-4.3497,-4.3497,-4.3497,-4.3497,-4.3497,-4.3497,-4.366,-4.3998,-4.4419,-4.48,-4.5137,-4.5457,-4.5586,-4.5586,-4.5495,-4.5513,-4.5586,-4.5586,-4.5586,-4.5586,0.0,0.0,0.0,0.0,0.0,0.0,0.0,0.0,0.0,0.0,-2.7741,-2.7269,-2.6721,-2.6283,-2.6481,-2.7565,-2.7883,-2.8449,-2.9496,0.0,0.0,0.0,0.0,-3.1846,-3.1846,-3.2684,-3.3128,-3.3128,-3.3773,-3.4134,-3.4232,-3.4423,-3.4732,-3.5174,-3.5201,-3.5657,-3.6448,-3.6896,-3.7581,-3.8513,-3.9805,-4.0392,-4.0489,-4.0489,-4.0489,-4.0489,-4.0489,-4.0543,-4.06,-4.0677,0.0,0.0,0.0,0.0,0.0,0.0,0.0,0.0,0.0,0.0,0.0,0.0,0.0,0.0,0.0,0.0,0.0,0.0,0.0,0.0,0.0,0.0,0.0,0.0,-3.7279,-3.7557,-3.8358,-3.9102,-3.9714,-4.007,-4.007,-4.007,-4.007,-4.0368,-4.092,-4.1768,-4.2121,-4.2675,-4.3444,-4.3497,-4.3497,-4.3497,-4.3497,-4.3497,-4.3497,-4.3497,-4.3497,-4.3497,-4.3497,-4.3497,-4.3497,-4.3497,-4.3597,-4.3836,-4.4364,-4.4707,-4.4919,-4.54,-4.5586,-4.5586,0.0,0.0,0.0,0.0,-4.5586,-4.5586,0.0,0.0,0.0,0.0,0.0,0.0,0.0,0.0,0.0,0.0,0.0,-2.6792,-2.548,-2.5327,-2.5647,-2.6351,-2.6946,-2.764,0.0,0.0,0.0,-2.9894,-3.0425,-3.078,-3.0819,-3.181,-3.2366,-3.2417,-3.2872,-3.323,-3.3479,-3.3854,-3.434,-3.4927,-3.4993,-3.5201,-3.5622,-3.6573,-3.6984,-3.7146,-3.885,-3.989,-4.0392,-4.0489,-4.0543,-4.0508,-4.0543,-4.062,-4.0712,-4.0742,0.0,0.0,0.0,0.0,0.0,0.0,0.0,0.0,0.0,0.0,0.0,0.0,0.0,0.0,0.0,0.0,0.0,0.0,0.0,0.0,0.0,0.0,0.0,0.0,-3.6554,-3.6798,-3.7706,-3.8358,-3.9086,-4.0003,-4.007,-4.007,-4.007,-4.007,-4.0546,-4.1707,-4.181,-4.2306,-4.3444,-4.3497,0.0,0.0,0.0,-4.3497,-4.3497,-4.3497,-4.3497,-4.3497,-4.3497,-4.3497,-4.3497,-4.3497,-4.3513,-4.3597,-4.428,-4.4606,-4.4726,-4.5342,-4.5586,-4.5586,-4.5586,-4.5586,-4.5586,-4.5586,-4.5586,-4.5586,0.0,0.0,0.0,0.0,0.0,0.0,0.0,0.0,0.0,-2.6862,-2.639,-2.5835,-2.4932,-2.5017,-2.5307,-2.5605,-2.6254,-2.7195,0.0,0.0,-2.9435,-2.9492,-2.9625,-2.9946,-3.0427,-3.0965,-3.1499,-3.1933,-3.2417,-3.2663,-3.2692,-3.2795,-3.3219,-3.3889,-3.3893,-3.4404,-3.5205,-3.5474,-3.6101,-3.7012,-3.8131,-3.8988,-3.9704,-4.045,-4.0716,-4.0677,-4.0716,-4.0754,-4.0786,-4.0908,-4.0871,-4.0793,-4.0931,-4.0831,0.0,0.0,0.0,0.0,0.0,0.0,0.0,0.0,0.0,0.0,0.0,0.0,0.0,0.0,0.0,0.0,0.0,0.0,0.0,-3.6584,-3.6117,-3.6196,-3.7573,-3.7921,-3.8541,-3.9952,-4.007,-4.007,-4.007,-4.007,-4.0546,-4.1707,-4.181,-4.2306,-4.3444,-4.3497,-4.3497,-4.3497,-4.3497,-4.3497,-4.3497,-4.3497,-4.3497,-4.3497,-4.3497,0.0,-4.3497,-4.3497,-4.3646,-4.3924,-4.4392,-4.4732,-4.5033,-4.5438,-4.5586,-4.5586,-4.5586,-4.5586,-4.5586,-4.5586,-4.5586,-4.5586,0.0,0.0,0.0,0.0,0.0,0.0,0.0,0.0,0.0,0.0,-2.5704,-2.463,-2.3767,-2.3729,-2.3898,-2.4195,-2.4856,0.0,0.0,-2.6828,-2.7104,-2.7902,-2.8227,-2.8701,-2.9361,-2.9913,-3.0336,-3.0606,-3.1036,-3.1414,-3.1721,-3.1952,-3.2478,-3.3266,-3.3506,-3.3958,-3.4581,-3.4999,-3.577,-3.6794,-3.7901,-3.8801,-3.9602,-4.0461,-4.0784,-4.0743,-4.0782,-4.084,-4.0889,-4.089,-4.0859,-4.0812,-4.0854,-4.0735,-4.06,0.0,0.0,0.0,0.0,0.0,0.0,0.0,0.0,0.0,0.0,0.0,0.0,0.0,0.0,-3.5224,-3.5591,0.0,-3.606,-3.6056,-3.5718,-3.6022,-3.7589,-3.7822,-3.8374,-3.9901,-4.007,-4.007,-4.007,-4.007,-4.0546,-4.1707,-4.181,-4.2306,-4.3444,-4.3497,-4.3497,-4.3497,-4.3497,-4.3497,-4.3497,-4.3497,-4.3497,-4.3497,-4.3497,-4.3497,-4.3532,-4.366,-4.3849,-4.4028,-4.4587,-4.4943,-4.5137,-4.5457,-4.5586,-4.5586,-4.5586,-4.5586,-4.5586,-4.5586,-4.5586,-4.5586,0.0,0.0,0.0,0.0,0.0,0.0,0.0,0.0,0.0,0.0,-2.4847,-2.3534,-2.2503,-2.2674,-2.2919,0.0,0.0,0.0,0.0,-2.4235,-2.4436,-2.5699,-2.627,-2.685,-2.7534,-2.8341,-2.884,-2.8916,-2.9583,-3.0137,-3.062,-3.0985,-3.1672,-3.252,-3.2773,-3.3222,-3.3827,-3.4508,-3.54,-3.6479,-3.7812,-3.8858,-3.9685,-4.0499,-4.0804,-4.0801,-4.082,-4.0898,-4.0937,-4.084,-4.0796,-4.0769,-4.0726,-4.062,-4.0489,-4.0489,-4.0473,0.0,0.0,0.0,0.0,0.0,0.0,0.0,0.0,-3.5369,-3.4736,-3.5299,-3.497,-3.4752,-3.5284,-3.5443,-3.5492,-3.5479,-3.5504,-3.6022,-3.7589,-3.7822,-3.8374,-3.9901,-4.007,-4.007,-4.007,-4.007,-4.0546,-4.1707,-4.181,-4.2306,-4.3444,-4.3497,-4.3497,-4.3497,-4.3497,-4.3497,-4.3497,-4.3497,-4.3497,-4.3497,-4.3497,-4.3497,-4.3513,-4.3849,-4.4028,-4.4146,-4.4877,-4.5201,-4.5222,-4.5495,-4.5586,-4.5586,-4.5586,-4.5586,-4.5586,-4.5586,-4.5586,-4.5586,0.0,0.0,0.0,0.0,0.0,0.0,0.0,0.0,0.0,0.0,0.0,0.0,0.0,0.0,0.0,0.0,0.0,0.0,-2.3073,-2.3001,-2.3001,-2.3178,-2.3282,-2.3597,-2.42,-2.5706,-2.6731,-2.7267,-2.8745,-2.9508,-2.9553,-2.9625,-3.017,-3.1103,-3.0632,-3.1386,-3.3036,-3.3264,-3.4308,-3.6021,-3.7583,-3.8785,-3.9687,-4.0483,-4.0798,-4.082,-4.0937,-4.0918,-4.082,-4.0801,-4.076,-4.0717,-4.0708,-4.062,-4.0489,-4.0489,-4.0339,-4.0062,-3.969,-3.8813,-3.7891,-3.7323,-3.6803,-3.6266,0.0,-3.5128,-3.4624,-3.4688,-3.4606,-3.4519,-3.4612,-3.5079,-3.5479,-3.5489,-3.5504,-3.6022,-3.7589,-3.7822,-3.8374,-3.9901,-4.007,-4.007,-4.007,-4.007,-4.0546,-4.1707,-4.181,-4.2306,-4.3444,-4.3497,-4.3497,-4.3497,-4.3497,-4.3497,-4.3497,-4.3497,-4.3497,-4.3497,-4.3497,-4.3497,-4.3513,-4.3849,-4.4175,-4.458,-4.5263,-4.5531,-4.555,-4.5586,-4.5586,-4.5586,-4.5586,-4.5586,-4.5586,-4.5586,-4.5586,-4.5586,0.0,0.0,0.0,0.0,0.0,0.0,0.0,0.0,0.0,0.0,0.0,0.0,0.0,0.0,0.0,0.0,0.0,0.0,-2.0717,-1.9857,-1.9695,-2.0438,-2.1055,-2.1644,-2.2359,-2.3532,-2.4321,-2.4545,-2.5241,-2.5988,-2.6855,-2.6855,-2.7747,-2.9398,-2.9705,-3.0583,-3.1827,-3.3405,-3.4829,-3.6122,-3.7732,-3.891,-3.977,-4.014,-4.0256,-4.0276,-4.0731,-4.0848,0.0,-4.0528,-4.044,-4.038,-4.012,-4.0022,-3.9984,-3.9984,-3.9903,-3.9607,-3.8683,-3.7965,-3.7285,-3.6481,-3.6097,-3.5854,-3.5667,-3.48,-3.4137,-3.4528,-3.4257,-3.4028,-3.4454,-3.5032,-3.5504,-3.5504,-3.5504,-3.6022,-3.7589,-3.7822,-3.8374,-3.9901,-4.007,-4.007,-4.007,-4.007,-4.0546,-4.1707,-4.181,-4.2306,-4.3444,-4.3497,-4.3497,-4.3497,-4.3497,-4.3497,-4.3497,-4.3497,-4.3497,-4.3497,-4.3497,-4.3597,-4.3804,-4.4194,-4.4638,-4.5201,-4.5495,-4.5586,-4.5586,-4.5586,-4.5586,-4.5586,-4.5586,-4.5586,-4.5586,-4.5586,-4.5586,-4.5586,0.0,0.0,0.0,0.0,0.0,0.0,0.0,0.0,0.0,0.0,0.0,0.0,0.0,0.0,0.0,0.0,0.0,0.0,0.0,-1.6288,-1.6076,-1.6955,-1.7654,-1.8298,-1.8786,-1.9968,-2.0499,-2.0499,-2.0967,-2.1738,-2.277,-2.277,-2.4014,-2.6279,-2.7271,-2.863,-3.0227,-3.263,-3.4447,-3.5818,-3.7205,-3.8384,-3.9356,-3.9394,-3.9375,-3.9452,-4.0236,-4.0412,-4.02,-3.9896,-3.9825,-3.9732,-3.932,-3.9279,-3.9377,-3.9382,-3.9333,-3.9014,-3.7794,-3.7253,-3.6786,-3.6011,-3.5694,-3.5622,-3.5622,-3.4704,-3.4037,-3.4479,-3.4327,-3.4206,-3.4454,-3.5187,-3.5718,-3.5504,-3.5504,-3.6022,-3.7589,-3.7822,-3.8374,-3.9901,-4.007,-4.007,-4.007,-4.007,-4.0546,-4.1707,-4.181,-4.2306,-4.3444,-4.3497,-4.3497,-4.3497,-4.3497,-4.3497,-4.3497,-4.3497,-4.3497,-4.3497,-4.3497,-4.3679,-4.4016,-4.4508,-4.5055,-4.5586,-4.5586,-4.5586,-4.5586,-4.5586,-4.5586,-4.5586,-4.5586,-4.5586,-4.5586,-4.5586,-4.5586,-4.5586,0.0,0.0,0.0,0.0,0.0,0.0,0.0,0.0,0.0,0.0,0.0,0.0,0.0,0.0,-1.4702,-1.4821,-1.4337,0.0,0.0,-1.2643,-1.2565,-1.262,-1.2405,-1.2394,-1.2387,-1.3932,-1.4781,-1.4781,-1.63,-1.7115,-1.7179,-1.7179,-1.8544,-2.1049,-2.2058,-2.4576,-2.8204,-2.9895,-3.2212,-3.4794,-3.5557,-3.6796,-3.8157,-3.8157,-3.8157,-3.8309,-3.9433,-3.94,-3.8866,-3.8846,-3.8836,-3.8755,-3.8277,-3.8482,-3.8833,-3.8813,-3.8627,-3.8259,-3.7434,-3.6843,-3.6416,-3.6374,-3.5968,-3.5622,-3.5622,-3.5052,-3.4592,-3.4592,-3.5172,-3.5419,-3.4612,-3.5625,-3.6322,-3.5619,-3.5504,-3.6022,-3.7589,-3.7822,-3.8374,-3.9901,-4.007,-4.007,-4.007,-4.007,-4.0546,-4.1707,-4.181,-4.2306,-4.3444,-4.3497,-4.3497,-4.3497,-4.3497,-4.3497,-4.3497,-4.3497,-4.3497,-4.3497,-4.3497,-4.3679,-4.4028,-4.4738,-4.5263,-4.5586,-4.5586,-4.5586,-4.5586,-4.5586,-4.5586,-4.5586,-4.5586,-4.5586,-4.5586,-4.5586,-4.5586,-4.5586,0.0,0.0,0.0,0.0,0.0,0.0,0.0,0.0,0.0,0.0,0.0,0.0,0.0,0.0,0.0,0.0,-1.0341,-0.9759,-0.8175,-0.7596,-0.6929,-0.5921,-0.6464,-0.6758,-0.6889,-0.8056,-0.8742,-0.8816,-1.0014,-1.0899,-1.1456,-1.2219,-1.3579,-1.5442,-1.6197,-1.7516,-1.9269,-2.1086,-2.4396,-2.8554,-2.9662,-3.2764,-3.6719,-3.6289,-3.6701,-3.7409,0.0,-3.7405,-3.8364,-3.8503,-3.8002,-3.7255,-3.6895,-3.6576,-3.6423,-3.6887,-3.6949,-3.6738,-3.6167,-3.5528,-3.4927,-3.4605,-3.4767,-3.4847,-3.4399,-3.4431,-3.4333,-3.3443,-3.4192,-3.4721,-3.4001,-3.496,-3.5783,-3.5508,-3.5495,-3.6022,-3.7589,-3.7822,-3.8374,-3.9901,-4.007,-4.007,-4.007,-4.007,-4.0546,-4.1707,-4.181,-4.2306,-4.3444,-4.3497,-4.3497,-4.3497,-4.3497,-4.3497,-4.3497,-4.3497,-4.3497,-4.3532,-4.3992,-4.4419,-4.4738,-4.5222,-4.5495,-4.5586,-4.5586,-4.5586,-4.5586,-4.5586,-4.5586,-4.5586,-4.5586,-4.5586,-4.5586,-4.5586,-4.5586,-4.5586,0.0,0.0,0.0,0.0,0.0,0.0,0.0,0.0,0.0,0.0,0.0,0.0,0.0,0.0,0.0,0.0,0.0,-0.3553,-0.1465,0.0,-0.0578,0.0728,-0.008,-0.0473,-0.0155,-0.0912,-0.1346,-0.1471,-0.2524,-0.3106,-0.3274,-0.4239,-0.5542,-0.727,-0.8216,-0.9419,-1.0866,-1.2269,-1.4388,-1.6779,-1.728,-2.1952,-2.8636,-2.8201,-3.1354,0.0,-3.509,-3.5548,-3.6557,-3.6842,-3.6593,-3.6038,-3.5432,-3.5052,-3.4864,-3.514,-3.5338,-3.5365,-3.4851,-3.4396,-3.4006,-3.3668,-3.3937,-3.4137,-3.3684,-3.3735,-3.3633,-3.2788,-3.3698,-3.4425,-3.3659,-3.4852,-3.5962,-3.5962,-3.5907,-3.6415,-3.7962,-3.8189,-3.8652,-3.9952,-4.007,-4.007,-4.007,-4.007,-4.0546,-4.1707,-4.181,-4.2306,-4.3444,-4.3497,-4.3497,-4.3497,-4.3497,-4.3497,-4.3497,-4.3497,-4.3497,-4.3532,-4.427,-4.4707,-4.4943,-4.5381,-4.5586,-4.5586,-4.5586,-4.5586,-4.5586,-4.5586,-4.5586,-4.5586,-4.5586,-4.5586,-4.5586,-4.5586,-4.5586,-4.5586,0.0,0.0,0.0,0.0,0.0,0.0,0.0,0.0,0.0,0.0,0.0,0.0,0.0,0.0,0.0,0.0,0.0,0.0,0.6816,0.0,0.0,0.7247,0.6513,0.6523,0.7573,0.7243,0.7001,0.6922,0.5914,0.5911,0.6918,0.623,0.4882,0.3082,0.151,-0.0493,-0.2781,-0.3314,-0.2408,-0.0695,0.032,-0.5572,-1.4982,-1.5193,-2.2743,-3.329,-3.3925,-3.3915,-3.3645,-3.4052,-3.4559,-3.4866,-3.3652,-3.3665,-3.3979,-3.3603,-3.3808,-3.4072,-3.3636,-3.3531,-3.3479,-3.3479,-3.3531,-3.3531,-3.3479,-3.3093,-3.2695,-3.2586,-3.3719,-3.4484,-3.3708,-3.5244,-3.6646,-3.6686,-3.6672,-3.7128,-3.8674,-3.8908,-3.9209,-4.002,-4.007,-4.007,-4.007,-4.007,-4.0546,-4.1707,-4.181,-4.2306,-4.3444,-4.3497,-4.3497,-4.3497,-4.3497,-4.3497,-4.3497,-4.3497,-4.3513,-4.3563,-4.427,-4.4606,-4.4657,-4.5322,-4.5586,-4.5586,-4.5586,-4.5586,-4.5586,-4.5586,-4.5586,-4.5586,-4.5586,-4.5586,-4.5586,-4.5586,-4.5586,-4.5586,0.0,0.0,0.0,0.0,0.0,0.0,0.0,0.0,0.0,0.0,0.0,0.0,0.0,0.0,0.0,0.0,0.0,0.0,1.0596,1.1144,1.1915,1.3111,1.3618,1.3632,0.0,0.0,0.0,1.2798,1.2432,1.2432,1.2654,1.1723,1.0965,1.046,1.0039,1.0119,1.061,1.1166,1.011,0.815,0.0,0.2161,-0.9143,-1.259,-1.9654,-2.8125,-3.1152,-3.2813,-3.3465,-3.2562,-3.1418,-3.0205,-2.933,-3.0004,-3.1176,-3.1702,-3.1946,-3.2167,-3.2687,-3.2461,-3.2048,-3.2048,-3.2477,-3.2734,-3.2145,-3.3114,-3.3786,-3.2788,-3.4099,-3.5146,-3.4447,-3.5166,-3.6091,-3.6596,-3.6616,-3.7128,-3.8674,-3.8908,-3.9209,-4.002,-4.007,-4.007,-4.007,-4.007,-4.0546,-4.1707,-4.181,-4.2306,-4.3444,-4.3497,-4.3497,-4.3497,-4.3497,-4.3497,-4.3497,-4.3497,-4.3758,-4.4308,-4.4501,-4.4853,-4.5342,-4.5513,-4.5586,-4.5586,-4.5586,-4.5586,-4.5586,-4.5586,-4.5586,-4.5586,-4.5586,-4.5586,-4.5586,-4.5586,-4.5586,-4.5586,0.0,0.0,0.0,0.0,0.0,0.0,0.0,0.0,0.0,0.0,0.0,0.0,0.0,0.0,0.0,0.0,0.0,0.0,0.0,1.6309,1.7025,1.8162,1.8775,1.8963,0.0,0.0,0.0,0.0,0.0,0.0,1.7952,1.7339,1.7355,1.8004,1.8038,1.8889,2.0448,2.1801,0.0,0.0,0.0,0.0,0.1382,-0.3516,-1.3473,-2.5364,-2.9856,-3.1278,-3.0745,-2.9614,-2.8739,-2.8012,-2.7628,-2.8153,-2.9099,-3.0015,-3.0586,-3.0969,-3.1477,-3.1537,-3.1482,-3.1482,-3.1796,-3.2007,-3.1582,-3.2391,-3.3114,-3.2695,-3.3751,-3.4609,-3.4235,-3.4961,-3.578,-3.6178,-3.6749,-3.7541,-3.8745,-3.9193,-3.961,-4.007,-4.007,-4.007,-4.007,-4.007,-4.0546,-4.1707,-4.181,-4.2306,-4.3444,-4.3497,-4.3497,-4.3497,-4.3497,-4.3497,-4.3497,-4.3646,-4.3912,-4.4346,-4.4657,-4.503,-4.54,-4.5531,-4.5586,-4.5586,-4.5586,-4.5586,-4.5586,-4.5586,-4.5586,-4.5586,-4.5586,-4.5586,-4.5586,-4.5586,-4.5586,-4.5586,0.0,0.0,0.0,0.0,0.0,0.0,0.0,0.0,0.0,0.0,0.0,0.0,0.0,0.0,0.0,0.0,0.0,0.0,0.0,0.0,0.0,0.0,2.2307,2.2742,2.3672,2.347,2.3037,2.2376,2.2056,2.2116,0.0,0.0,0.0,0.0,0.0,0.0,0.0,0.0,0.0,0.0,0.0,0.0,1.3087,0.0,0.0,-2.3341,-2.9334,-2.9778,-2.7384,-2.6443,-2.6594,-2.7091,-2.6876,-2.6929,-2.7314,-2.8182,-2.8996,-2.9633,-2.9983,-3.0555,-3.1058,-3.1409,-3.1409,-3.1351,-3.1467,-3.1582,-3.1853,-3.2586,-3.3287,-3.3735,-3.3836,-3.4908,-3.5819,-3.598,-3.7118,-3.8206,-3.8962,-3.9662,-4.007,-4.007,-4.007,-4.007,-4.007,-4.007,-4.0546,-4.1707,-4.181,-4.2306,-4.3444,-4.3497,-4.3497,-4.3497,-4.3497,-4.3513,-4.3582,-4.3849,-4.4058,-4.4146,-4.4787,-4.5118,-4.518,-4.5476,-4.5586,-4.5586,-4.5586,-4.5586,-4.5586,-4.5586,-4.5586,-4.5586,-4.5586,-4.5586,-4.5586,-4.5586,-4.5586,-4.5586,0.0,0.0,0.0,0.0,0.0,0.0,0.0,0.0,0.0,0.0,1.4433,1.3981,0.0,0.0,0.0,0.0,0.0,0.0,0.0,0.0,0.0,0.0,0.0,0.0,2.4719,2.5496,2.5399,2.4519,2.5223,2.5652,0.0,0.0,0.0,0.0,0.0,0.0,0.0,0.0,0.0,0.0,0.0,3.1982,0.0,0.0,0.0,0.0,-2.8053,-2.9745,-2.7363,-2.642,-2.5791,-2.5169,-2.3509,-2.4074,-2.5441,-2.5538,-2.5615,-2.6219,-2.8479,-2.862,-2.8711,-3.0925,-3.1029,-3.0703,-3.1351,-3.1951,-3.2571,-3.3287,-3.3987,-3.4592,-3.5161,-3.5943,-3.6732,-3.7418,-3.816,-3.8978,-3.9782,-4.002,-4.007,-4.007,-4.007,-4.007,-4.007,-4.007,-4.0546,-4.1707,-4.181,-4.2306,-4.3444,-4.3497,-4.3497,-4.3497,-4.3497,-4.3612,-4.3893,-4.3986,-4.4318,-4.49,-4.5052,-4.5243,-4.5513,-4.5568,-4.5586,-4.5586,-4.5586,-4.5586,-4.5586,-4.5586,-4.5586,-4.5586,-4.5586,-4.5586,-4.5586,-4.5586,-4.5586,-4.5586,0.0,0.0,0.0,0.0,0.0,0.0,0.0,0.0,2.1561,2.0437,1.9464,1.8856,1.8895,1.7941,0.0,0.0,0.0,0.0,0.0,0.0,0.0,0.0,0.0,0.0,2.5011,2.5463,2.5581,2.5341,0.0,2.632,2.6013,2.6358,2.7743,2.9971,3.0164,3.1859,3.4641,3.6758,3.796,3.8555,4.0449,3.2947,0.0,0.0,0.0,0.0,-2.9697,-3.0409,-2.8703,-2.7303,-2.6615,-2.5896,-2.2941,-2.2658,-2.3649,-2.4625,-2.485,-2.5281,-2.7578,-2.7891,-2.7916,-2.9785,-3.0269,-3.0389,-3.0777,-3.148,-3.2312,-3.3391,-3.3836,-3.4399,-3.5457,-3.6241,-3.683,-3.7277,-3.8216,-3.9016,-3.9437,-3.9833,-4.007,-4.007,-4.007,-4.007,-4.007,-4.007,-4.0417,-4.1268,-4.1621,-4.2306,-4.3444,-4.3497,-4.3497,-4.3497,-4.3497,-4.3679,-4.4016,-4.4204,-4.4561,-4.5096,-4.5282,-4.5438,-4.5586,-4.5586,-4.5586,-4.5586,-4.5586,-4.5586,-4.5586,-4.5586,-4.5586,-4.5586,-4.5586,-4.5586,-4.5586,-4.5586,-4.5586,-4.5586,0.0,0.0,0.0,0.0,0.0,0.0,0.0,2.4668,2.4941,2.3859,2.4265,2.3804,2.1645,1.934,1.8429,0.0,0.0,0.0,0.0,0.0,0.0,0.0,0.0,0.0,0.0,0.0,0.0,2.5164,2.5623,0.0,0.0,0.0,0.0,0.0,3.0855,3.2442,3.478,3.7443,3.8303,0.0,0.0,3.2017,0.0,0.0,0.0,0.0,0.0,-3.125,-3.012,-2.8452,-2.7725,-2.6929,-2.3709,-2.2638,-2.2872,-2.3881,-2.4204,-2.4602,-2.6561,-2.67,-2.6771,-2.8566,-2.9324,-2.9755,-3.0222,-3.088,-3.1802,-3.3303,-3.3582,-3.4062,-3.5663,-3.6506,-3.7014,-3.7227,-3.8323,-3.9139,-3.9139,-3.9714,-4.007,-4.007,-4.007,-4.007,-4.007,-4.007,-4.0336,-4.0856,-4.1578,-4.2444,-4.3444,-4.3497,-4.3497,-4.3497,-4.3497,-4.3693,-4.4117,-4.4447,-4.4781,-4.5201,-4.5457,-4.5586,-4.5586,-4.5586,-4.5586,-4.5586,-4.5586,-4.5586,-4.5586,-4.5586,-4.5586,-4.5586,-4.5586,-4.5586,-4.5586,-4.5586,-4.5586,-4.5586,0.0,0.0,0.0,0.0,0.0,0.0,0.0,3.5079,3.4485,2.9914,2.871,2.7327,2.4867,2.1892,2.0557,0.0,0.0,0.0,0.0,0.0,0.0,0.0,0.0,0.0,0.0,0.0,0.0,2.372,2.3743,0.0,0.0,0.0,0.0,0.0,0.0,3.1637,3.1748,3.6915,0.0,0.0,0.0,0.0,0.0,0.0,0.0,0.0,0.0,-3.2242,-3.0622,-2.947,-2.8015,-2.6514,-2.5298,-2.4791,-2.4284,-2.2195,-2.1922,-2.2658,-2.4531,-2.3826,-2.3559,-2.7879,-2.8173,-2.7913,-2.9865,-3.0701,-3.1588,-3.3277,-3.3582,-3.4214,-3.6323,-3.7287,-3.8029,-3.8705,-3.948,-4.002,-4.002,-4.007,-4.007,-4.007,-4.007,-4.007,-4.007,-4.007,-4.0336,-4.0856,-4.1979,-4.2902,-4.3479,-4.3497,-4.3497,-4.3497,-4.3497,-4.3855,-4.4527,-4.458,-4.4919,-4.5549,-4.5586,-4.5586,-4.5586,-4.5586,-4.5586,-4.5586,-4.5586,-4.5586,-4.5586,-4.5586,-4.5586,-4.5586,-4.5586,-4.5586,-4.5586,-4.5586,-4.5586,-4.5586,0.0,0.0,0.0,0.0,0.0,0.0,0.0,3.8458,3.8122,3.3671,3.1028,2.9141,2.8213,2.5146,2.2815,0.0,0.0,0.0,0.0,0.0,0.0,0.0,0.0,0.0,0.0,0.0,2.0933,2.1544,2.2253,0.0,0.0,0.0,0.0,0.0,0.0,3.0639,3.3408,3.6158,0.0,0.0,0.0,0.0,0.0,0.0,0.0,0.0,0.0,0.0,-3.4098,-3.2364,-3.131,-3.0402,-2.8682,-2.8362,-2.7875,-2.4167,-2.2836,-2.2766,-2.3756,-2.3249,-2.3178,-2.6276,-2.7403,-2.8153,-2.9633,-3.0668,-3.1764,-3.3266,-3.3918,-3.4929,-3.7059,-3.8058,-3.8802,-3.9529,-3.9884,-4.007,-4.007,-4.007,-4.007,-4.007,-4.007,-4.007,-4.007,-4.007,-4.0466,-4.1358,-4.2203,-4.2939,-4.3479,-4.3497,-4.3497,-4.3497,-4.3497,-4.3836,-4.458,-4.458,-4.4943,-4.5586,-4.5586,-4.5586,-4.5586,-4.5586,-4.5586,-4.5586,-4.5586,-4.5586,-4.5586,-4.5586,-4.5586,-4.5586,-4.5586,-4.5586,-4.5586,-4.5586,-4.5586,-4.5586,0.0,0.0,0.0,0.0,0.0,2.4283,3.0402,3.6429,3.9413,3.7201,3.4191,3.175,3.0268,2.6784,2.3598,2.1175,0.0,0.0,0.0,0.0,0.0,0.0,0.0,0.0,0.0,0.0,1.6644,1.7326,1.8108,1.8452,0.0,0.0,2.0984,2.2771,0.0,0.0,0.0,0.0,0.0,0.0,0.0,0.0,0.0,0.0,0.0,0.0,0.0,0.0,0.0,0.0,0.0,-3.4152,-3.2168,-3.1842,-3.1302,-2.6907,-2.5032,-2.4495,-2.4811,-2.4175,-2.3996,-2.6311,-2.7657,-2.8815,-3.0176,-3.1291,-3.2405,-3.3937,-3.4606,-3.5659,-3.7816,-3.865,-3.9225,-3.9952,-4.007,-4.007,-4.007,-4.007,-4.007,-4.007,-4.007,-4.007,-4.007,-4.0254,-4.0814,-4.1979,-4.248,-4.2939,-4.3479,-4.3497,-4.3497,-4.3497,-4.3497,-4.3791,-4.4419,-4.4527,-4.4896,-4.5438,-4.555,-4.5586,-4.5586,-4.5586,-4.5586,-4.5586,-4.5586,-4.5586,-4.5586,-4.5586,-4.5586,-4.5586,-4.5586,-4.5586,-4.5586,-4.5586,-4.5586,-4.5586,0.0,0.0,0.0,0.0,0.0,0.0,0.0,2.8532,3.8694,4.0848,3.896,3.5575,3.0665,2.619,2.2143,1.8709,0.0,0.0,0.0,0.0,0.0,0.0,0.0,0.0,0.0,0.0,1.0363,1.0363,1.0452,1.0434,1.0456,1.148,1.1911,1.2035,0.0,0.0,0.0,0.0,0.0,0.0,0.0,0.0,0.0,0.0,0.0,0.0,0.0,0.0,0.0,0.0,0.0,0.0,0.0,-3.4827,-3.4068,-2.9889,-2.8356,-2.8041,-2.8041,-2.6605,-2.5831,-2.8705,-2.9163,-2.9443,-3.1641,-3.2645,-3.3588,-3.5291,-3.5678,-3.6351,-3.8555,-3.8988,-3.9225,-3.9952,-4.007,-4.007,-4.007,-4.007,-4.007,-4.007,-4.007,-4.007,-4.007,-4.0577,-4.1402,-4.2616,-4.2711,-4.2939,-4.3479,-4.3497,-4.3497,-4.3497,-4.3497,-4.3679,-4.3998,-4.4401,-4.4757,-4.5096,-4.5438,-4.5586,-4.5586,-4.5586,-4.5586,-4.5586,-4.5586,-4.5586,-4.5586,-4.5586,-4.5586,-4.5586,-4.5586,-4.5586,-4.5586,-4.5586,-4.5586,-4.5586,0.0,0.0,0.0,0.0,0.0,0.0,0.0,0.9001,1.8476,3.6574,3.9586,3.6994,2.9008,2.5315,1.973,1.0244,0.0,0.0,0.0,0.0,0.0,0.0,0.0,0.0,0.0,0.0,0.1058,0.097,0.0529,0.0262,0.0258,0.0086,0.0344,0.1031,0.185,0.1415,0.0,0.0,0.0,0.0,0.0,0.0,-3.6621,0.0,0.0,0.0,0.0,0.0,0.0,0.0,0.0,0.0,0.0,0.0,0.0,-3.5123,-3.268,-3.0073,-2.8479,-2.7815,-2.7978,-2.966,-3.0348,-3.099,-3.2487,-3.3112,-3.3802,-3.5355,-3.6078,-3.6972,-3.8673,-3.9394,-3.9817,-4.0037,-4.007,-4.007,-4.007,-4.007,-4.007,-4.007,-4.007,-4.0254,-4.0625,-4.1178,-4.1835,-4.2655,-4.305,-4.3339,-4.3479,-4.3497,-4.3497,-4.3497,-4.3497,-4.3679,-4.4016,-4.4419,-4.4776,-4.5096,-4.5438,-4.5586,-4.5586,-4.5586,-4.5586,-4.5586,-4.5586,-4.5586,-4.5586,-4.5586,-4.5586,-4.5586,-4.5586,-4.5586,-4.5586,-4.5586,-4.5586,-4.562,0.0,0.0,0.0,0.0,0.0,0.0,0.0,-0.2548,0.4275,1.8414,2.8769,2.9907,1.6949,1.7894,1.3814,-0.0257,0.0,0.0,0.0,0.0,0.0,0.0,0.0,0.0,0.0,-0.722,-0.813,-0.8398,-0.8845,-0.9188,-0.9471,-0.9891,-0.9803,-0.9218,-0.9554,-1.0729,0.0,0.0,0.0,0.0,0.0,0.0,-4.4202,0.0,0.0,0.0,0.0,0.0,0.0,0.0,0.0,0.0,0.0,0.0,0.0,0.0,-3.6463,-3.3701,-3.098,-3.0241,-3.0401,-3.1469,-3.2041,-3.2687,-3.3746,-3.436,-3.4896,-3.587,-3.687,-3.7856,-3.877,-3.9598,-4.007,-4.007,-4.007,-4.007,-4.007,-4.007,-4.007,-4.007,-4.007,-4.0417,-4.1178,-4.1578,-4.2144,-4.2939,-4.3286,-4.3497,-4.3497,-4.3497,-4.3497,-4.3497,-4.3497,-4.3597,-4.3804,-4.4337,-4.4707,-4.4919,-4.5381,-4.5586,-4.5586,-4.5586,-4.5586,-4.5586,-4.5586,-4.5586,0.0,-4.5586,-4.5586,-4.5586,-4.5586,-4.5586,-4.5586,-4.5586,-4.5586,-4.562,0.0,0.0,0.0,0.0,0.0,0.0,0.0,0.0,0.0,-0.8326,0.9157,1.5299,-0.217,0.5027,0.4469,-1.2088,0.0,0.0,0.0,0.0,0.0,0.0,0.0,0.0,0.0,-1.5801,-1.6985,-1.7657,-1.7778,-1.8173,-1.8851,-1.9034,-1.9125,-1.9205,-2.0115,-2.4652,0.0,0.0,0.0,0.0,0.0,0.0,0.0,0.0,0.0,0.0,0.0,0.0,0.0,0.0,0.0,0.0,0.0,0.0,0.0,0.0,0.0,0.0,0.0,-3.3682,-3.3143,-3.3998,-3.4216,-3.4499,-3.5459,-3.6165,0.0,-3.6783,-3.793,-3.8908,-3.8962,-3.961,-4.007,-4.007,-4.007,-4.007,-4.007,-4.007,-4.007,-4.007,-4.007,-4.0563,-4.1664,-4.181,-4.2266,-4.341,-4.3497,-4.3497,-4.3497,-4.3497,-4.3497,-4.3497,-4.3497,-4.3513,-4.3548,-4.4223,-4.4606,-4.4631,-4.5283,-4.5586,-4.5586,-4.5586,-4.5586,-4.5586,-4.5586,-4.5586,-4.5586,-4.5586,-4.5586,-4.5586,-4.5586,-4.5586,-4.5603,-4.5603,-4.562,-4.5635,0.0,0.0,0.0,0.0,0.0,0.0,0.0,0.0,0.0,0.0,-0.4264,-0.2716,-0.7181,-0.5363,-0.8884,0.0,0.0,0.0,0.0,0.0,0.0,0.0,0.0,0.0,0.0,-2.5211,-2.5506,-2.6089,-2.742,-2.8393,-2.9027,-3.1007,-3.2144,-3.2498,-3.3371,0.0,0.0,0.0,0.0,0.0,0.0,0.0,0.0,0.0,0.0,0.0,-4.6024,-4.574,0.0,0.0,0.0,0.0,0.0,0.0,0.0,0.0,-4.038,-3.9272,-3.7882,0.0,-3.6461,-3.6073,-3.6446,-3.6948,0.0,-3.7397,-3.7674,-3.823,-3.8619,-3.9086,-3.9714,-3.9952,-4.007,-4.007,-4.007,-4.007,-4.007,-4.007,-4.007,-4.007,-4.007,-4.0563,-4.1664,-4.181,-4.2266,-4.341,-4.3497,-4.3497,-4.3497,-4.3497,-4.3497,-4.3497,-4.3497,-4.3612,-4.3881,-4.4364,-4.4751,-4.5007,-4.54,-4.5586,-4.5586,-4.5586,-4.5586,-4.5586,-4.5586,-4.5586,-4.5586,-4.5586,-4.5586,-4.5586,-4.5586,-4.5586,-4.562,-4.5723,-4.5761,-4.5769,0.0,0.0,0.0,0.0,0.0,0.0,0.0,0.0,0.0,0.0,0.0,0.0,0.0,0.0,0.0,0.0,0.0,0.0,0.0,0.0,0.0,0.0,0.0,0.0,-3.1375,-3.1537,-3.2134,-3.317,-3.4167,-3.5147,-3.618,-3.7648,-3.8522,-3.8797,-4.0092,0.0,0.0,0.0,0.0,0.0,-4.5802,0.0,0.0,0.0,0.0,0.0,-4.5975,-4.5815,0.0,-4.5351,-4.4897,-4.4405,0.0,0.0,0.0,0.0,-4.1331,-4.0131,-3.9377,-3.8504,-3.7706,-3.7279,-3.7456,-3.7822,-3.7822,-3.8035,-3.8302,-3.8358,-3.8978,-3.9489,-3.9558,-3.9833,-4.007,-4.007,-4.007,-4.007,-4.007,-4.007,-4.007,-4.007,-4.0336,-4.0797,-4.1707,-4.2038,-4.258,-4.3444,-4.3497,-4.3497,-4.3497,-4.3497,-4.3497,-4.3497,-4.3646,-4.3836,-4.4016,-4.4419,-4.4776,-4.5096,-4.5438,-4.5586,-4.5586,-4.5586,-4.5586,-4.5586,-4.5586,-4.5586,-4.5586,-4.5586,-4.5586,-4.5603,-4.5665,-4.5692,-4.5692,-4.5769,-4.5796,-4.5809,0.0,0.0,0.0,0.0,0.0,0.0,0.0,0.0,0.0,0.0,0.0,0.0,0.0,0.0,0.0,0.0,0.0,0.0,0.0,0.0,0.0,0.0,0.0,-3.571,-3.5167,-3.6046,-3.7144,-3.8599,-3.8673,-3.9415,-4.0839,-4.1091,-4.1332,-4.1614,-4.3247,0.0,0.0,0.0,0.0,0.0,-4.5866,0.0,0.0,0.0,0.0,0.0,0.0,0.0,0.0,-4.5486,-4.5382,-4.5281,-4.482,0.0,0.0,0.0,0.0,0.0,-4.0309,-3.9235,-3.8246,-3.8035,-3.8035,-3.8149,-3.8149,-3.8635,-3.8924,-3.8262,-3.9172,-3.9901,-3.9193,-3.9662,-4.007,-4.007,-4.007,-4.007,-4.007,-4.007,-4.0121,-4.0204,-4.0607,-4.1161,-4.1853,-4.2382,-4.2939,-4.3444,-4.3497,-4.3497,-4.3497,-4.3497,-4.3497,-4.3497,-4.3836,-4.4028,-4.4087,-4.4482,-4.4849,-4.518,-4.5457,-4.5586,-4.5586,-4.5586,-4.5586,-4.5586,-4.5586,-4.5586,-4.5586,-4.5586,-4.5586,-4.562,-4.5747,-4.5783,-4.5769,-4.5803,-4.5803,-4.5809,0.0,0.0,0.0,0.0,0.0,0.0,0.0,0.0,0.0,0.0,0.0,0.0,0.0,0.0,0.0,0.0,0.0,0.0,0.0,0.0,0.0,0.0,-3.912,-3.8371,-3.8694,-3.9195,-3.977,-4.0492,-4.076,-4.1227,-4.1896,-4.2699,-4.3719,-4.489,-4.5471,-4.5737,-4.5771,0.0,0.0,0.0,-4.5761,0.0,0.0,0.0,0.0,0.0,0.0,0.0,0.0,-4.5806,-4.5755,-4.5626,-4.5165,0.0,0.0,0.0,0.0,0.0,-4.1647,-4.1024,-4.0251,-3.9053,-3.9262,-3.9731,-3.9731,-3.985,-3.9901,-3.9782,-3.9952,-4.007,-3.9952,-4.002,-4.007,-4.007,-4.007,-4.007,-4.007,-4.007,-4.0286,-4.0733,-4.0856,-4.1358,-4.244,-4.2655,-4.2939,-4.3444,-4.3497,-4.3497,-4.3497,-4.3497,-4.3497,-4.3497,-4.3836,-4.4146,-4.4501,-4.4849,-4.5201,-4.5513,-4.5568,-4.5586,-4.5586,-4.5586,-4.5586,-4.5586,-4.5586,-4.5586,-4.5586,-4.5586,-4.5586,-4.562,-4.5747,-4.5718,-4.5648,-4.5828,-4.5859,-4.5803,0.0,0.0,0.0,0.0,0.0,0.0,0.0,0.0,0.0,0.0,0.0,0.0,0.0,0.0,0.0,0.0,0.0,0.0,0.0,0.0,0.0,-4.1933,-4.1252,-4.1052,-4.1485,-4.1379,-4.1654,-4.2423,-4.2759,-4.3281,-4.3993,-4.4536,-4.5211,-4.5976,-4.6065,-4.6061,-4.6005,-4.5868,-4.5761,-4.5699,0.0,0.0,0.0,0.0,0.0,0.0,0.0,0.0,0.0,0.0,-4.5857,-4.5794,-4.5453,0.0,0.0,0.0,0.0,0.0,-4.2386,-4.1871,-4.1196,-4.0199,-4.0036,-4.007,-4.007,-4.007,-4.007,-4.007,-4.007,-4.007,-4.007,-4.007,-4.007,-4.007,-4.0319,-4.0528,-4.0528,-4.0797,-4.1105,-4.1358,-4.1664,-4.208,-4.2655,-4.2976,-4.325,-4.3479,-4.3497,-4.3497,-4.3497,-4.3497,-4.3497,-4.3497,-4.4035,-4.4401,-4.4599,-4.5118,-4.5438,-4.5586,-4.5586,-4.5586,-4.5586,-4.5586,-4.5586,-4.5586,-4.5586,-4.5586,-4.5586,-4.5586,-4.5586,-4.562,-4.5747,-4.5775,-4.5718,-4.5852,-4.5861,-4.5815,0.0,0.0,0.0,0.0,0.0,0.0,0.0,0.0,0.0,0.0,0.0,0.0,0.0,0.0,0.0,0.0,0.0,0.0,0.0,0.0,-4.2959,-4.2354,-4.2774,-4.3045,-4.3076,-4.2926,-4.3174,-4.3905,-4.4332,-4.4912,-4.568,-4.586,-4.6074,-4.6289,-4.6131,-4.6046,-4.605,-4.5832,-4.5757,-4.5738,0.0,0.0,0.0,0.0,0.0,0.0,0.0,0.0,0.0,0.0,0.0,0.0,0.0,0.0,0.0,-4.4707,-4.4024,-4.3275,-4.281,-4.2342,-4.1853,-4.1087,-4.0577,-4.0237,-4.0121,-4.007,-4.007,-4.007,-4.007,-4.007,-4.007,-4.007,-4.0121,-4.0286,-4.0607,-4.0949,-4.1087,-4.149,-4.1853,-4.1979,-4.244,-4.275,-4.2864,-4.325,-4.3497,-4.3497,-4.3497,-4.3497,-4.3497,-4.3497,-4.3497,-4.3497,-4.4213,-4.458,-4.458,-4.5263,-4.5586,-4.5586,-4.5586,-4.5586,-4.5586,-4.5586,-4.5586,-4.5586,-4.5586,-4.5586,-4.5586,-4.5586,-4.5586,-4.562,-4.5747,-4.5803,-4.5832,-4.5852,-4.5871,-4.589,0.0,0.0,0.0,0.0,0.0,0.0,0.0,0.0,0.0,0.0,0.0,0.0,0.0,0.0,0.0,0.0,0.0,0.0,0.0,0.0,-4.3594,-4.3825,-4.3875,-4.3535,-4.2736,-4.3844,-4.4452,-4.4543,-4.5185,-4.5629,-4.5879,-4.6023,-4.6152,-4.6289,-4.6021,-4.591,-4.5893,-4.5703,-4.5605,-4.5605,-4.5586,0.0,0.0,0.0,0.0,0.0,0.0,0.0,0.0,0.0,0.0,0.0,0.0,0.0,-4.5189,-4.4724,-4.429,-4.3762,-4.294,-4.2655,-4.2342,-4.1178,-4.0856,-4.0685,-4.0204,-4.007,-4.007,-4.007,-4.007,-4.007,-4.007,-4.007,-4.0237,-4.078,-4.0856,-4.1087,-4.1664,-4.175,-4.2021,-4.2577,-4.2655,-4.2902,-4.341,-4.3479,-4.3497,-4.3497,-4.3497,-4.3497,-4.3497,-4.3497,-4.3497,-4.3497,-4.4213,-4.458,-4.458,-4.5263,-4.5586,-4.5586,-4.5586,-4.5586,-4.5586,-4.5586,-4.5586,-4.5586,-4.5586,-4.5586,-4.5586,-4.5586,-4.5586,-4.562,-4.5747,-4.5836,-4.5891,-4.5832,-4.593,-4.608,0.0,0.0,0.0,0.0,0.0,0.0,0.0,0.0,0.0,0.0,0.0,0.0,0.0,0.0,0.0,0.0,0.0,0.0,0.0,0.0,-4.4223,-4.4364,-4.4373,-4.4214,-4.3899,-4.4568,-4.4919,-4.4919,-4.547,-4.5777,-4.5891,-4.6036,-4.6165,-4.6289,-4.602,-4.5891,-4.589,-4.5692,-4.5586,-4.5586,-4.5586,-4.5586,0.0,0.0,0.0,0.0,0.0,0.0,0.0,0.0,-4.5987,-4.6075,-4.59,-4.5738,-4.5542,-4.515,-4.4735,-4.4261,-4.3684,-4.3123,-4.248,-4.1664,-4.1446,-4.1223,-4.0286,-4.007,-4.007,-4.007,-4.007,-4.007,-4.007,-4.0368,-4.0655,-4.0856,-4.1534,-4.2121,-4.2342,-4.2657,-4.294,-4.3178,-4.3214,-4.3286,-4.3479,-4.3497,-4.3497,-4.3497,-4.3497,-4.3497,-4.3497,-4.3497,-4.3597,-4.3804,-4.4337,-4.4682,-4.4919,-4.5362,-4.5586,-4.5586,-4.5586,-4.5586,-4.5586,-4.5586,-4.5586,-4.5586,-4.5586,-4.5586,-4.5586,-4.5586,-4.5586,-4.562,-4.5747,-4.5815,-4.5847,-4.5946,-4.6021,-4.6113,0.0,0.0,0.0,0.0,0.0,0.0,0.0,0.0,0.0,0.0,0.0,0.0,0.0,0.0,0.0,0.0,0.0,0.0,0.0,-4.48,-4.465,-4.4732,-4.4776,-4.4825,-4.4919,-4.514,-4.5201,-4.5096,-4.5592,-4.585,-4.5907,-4.608,-4.6202,-4.6289,-4.6027,-4.5899,-4.5881,-4.5703,-4.5586,-4.5586,-4.5586,-4.5586,0.0,0.0,0.0,0.0,0.0,0.0,0.0,0.0,-4.6054,-4.6144,-4.6021,-4.5891,-4.5757,-4.5401,-4.4965,-4.4501,-4.4087,-4.3471,-4.2808,-4.2244,-4.2062,-4.1768,-4.0642,-4.0368,-4.0286,-4.0121,-4.007,-4.0171,-4.0336,-4.0655,-4.1041,-4.1402,-4.2162,-4.275,-4.2939,-4.325,-4.3497,-4.3497,-4.3497,-4.3497,-4.3497,-4.3497,-4.3497,-4.3497,-4.3497,-4.3548,-4.3646,-4.3646,-4.3804,-4.4175,-4.458,-4.4872,-4.5096,-4.5438,-4.5586,-4.5586,-4.5586,-4.5586,-4.5586,-4.5586,-4.5586,-4.5586,-4.5586,-4.5586,-4.5586,-4.5586,-4.5618,-4.5661,-4.579,-4.5867,-4.5911,-4.6053,-4.614,-4.6175,0.0,0.0,0.0,0.0,0.0,0.0,0.0,0.0,0.0,0.0,0.0,0.0,0.0,0.0,0.0,0.0,0.0,0.0,0.0,-4.4781,-4.4776,-4.5096,-4.5096,-4.5263,-4.5586,-4.5586,-4.5438,-4.5096,-4.5641,-4.5899,-4.5907,-4.6173,-4.6308,-4.6289,-4.6027,-4.5899,-4.5881,-4.5684,-4.5603,-4.5586,-4.5603,-4.5603,-4.5586,0.0,0.0,0.0,0.0,0.0,0.0,0.0,-4.6198,-4.6289,-4.6144,-4.6001,-4.5813,-4.541,-4.4987,-4.4527,-4.4117,-4.374,-4.3375,-4.2826,-4.2693,-4.24,-4.1178,-4.0903,-4.0733,-4.0204,-4.0121,-4.0286,-4.0827,-4.0903,-4.1313,-4.2519,-4.2693,-4.2902,-4.341,-4.3497,-4.3497,-4.3497,-4.3497,-4.3497,-4.3497,-4.3497,-4.3497,-4.3497,-4.3479,-4.3646,-4.3986,-4.3998,-4.4175,-4.458,-4.4919,-4.5096,-4.5096,-4.5438,-4.5586,-4.5586,-4.5586,-4.5586,-4.5586,-4.5586,-4.5586,-4.5586,-4.5586,-4.5586,-4.5586,-4.5603,-4.568,-4.5822,-4.5872,-4.5981,-4.6108,-4.6108,-4.6198,-4.6308,0.0,0.0,0.0,0.0,0.0,0.0,0.0,0.0,0.0,0.0,0.0,0.0,0.0,0.0,0.0,0.0,0.0,0.0,0.0,-4.5362,-4.5342,-4.5438,-4.5438,-4.5495,-4.5586,-4.5586,-4.555,-4.5438,-4.5722,-4.585,-4.5907,-4.608,-4.6202,-4.6289,-4.6027,-4.5899,-4.589,-4.5803,-4.5696,-4.5603,-4.5708,-4.5677,-4.5586,0.0,0.0,0.0,0.0,0.0,0.0,0.0,0.0,0.0,-4.6247,-4.6147,-4.6001,-4.5774,-4.5426,-4.505,-4.4839,-4.4053,-4.3243,-4.3084,-4.2868,-4.248,-4.1707,-4.1206,-4.0856,-4.0703,-4.1013,-4.1331,-4.149,-4.1895,-4.2302,-4.2655,-4.3014,-4.3339,-4.3479,-4.3497,-4.3497,-4.3497,-4.3497,-4.3497,-4.3497,-4.3497,-4.3497,-4.3497,-4.3726,-4.3912,-4.3998,-4.4261,-4.4561,-4.4943,-4.5052,-4.5222,-4.5438,-4.555,-4.5586,-4.5586,-4.5586,-4.5586,-4.5586,-4.5586,-4.5586,-4.5586,-4.5586,-4.5586,-4.5603,-4.5708,-4.5783,-4.5881,-4.6008,-4.6055,-4.6113,-4.6202,-4.6268,-4.6308,0.0,0.0,0.0,0.0,0.0,0.0,0.0,0.0,0.0,0.0,0.0,0.0,0.0,0.0,0.0,0.0,0.0,0.0,0.0,0.0,-4.5586,-4.5586,-4.5586,-4.5586,-4.5586,-4.5586,-4.5586,-4.5586,-4.5764,-4.5861,-4.5907,-4.6084,-4.6223,-4.6289,-4.608,-4.5981,-4.5974,-4.5881,-4.5777,-4.5696,-4.5775,-4.5723,-4.5586,0.0,0.0,0.0,0.0,0.0,0.0,0.0,0.0,0.0,-4.6308,-4.6202,-4.608,-4.5932,-4.5615,-4.5263,-4.5144,-4.4334,-4.3527,-4.3527,-4.3263,-4.2846,-4.2284,-4.1664,-4.1268,-4.1268,-4.1534,-4.1895,-4.2121,-4.244,-4.2788,-4.2976,-4.3286,-4.3497,-4.3497,-4.3497,-4.3497,-4.3497,-4.3497,-4.3497,-4.3497,-4.3497,-4.3548,-4.3693,-4.3881,-4.4117,-4.4409,-4.4682,-4.4943,-4.5302,-4.5302,-4.54,-4.5586,-4.5586,-4.5586,-4.5586,-4.5586,-4.5586,-4.5586,-4.5586,-4.5586,-4.5586,-4.5586,-4.5618,-4.5677,-4.5796,-4.5881,-4.5988,-4.614,-4.6175,-4.6198,-4.6268,-4.6308,-4.6308,0.0,0.0,0.0,0.0,0.0,0.0,0.0,0.0,0.0,0.0,0.0,0.0,0.0,0.0,0.0,0.0,0.0,0.0,0.0,0.0,-4.5586,-4.5586,-4.5586,-4.5603,-4.562,-4.562,-4.5618,-4.5635,-4.5805,-4.589,-4.5907,-4.615,-4.6289,-4.6289,-4.615,-4.6108,-4.6084,-4.5974,-4.5881,-4.5796,-4.5822,-4.5718,-4.5586,-4.5586,0.0,0.0,0.0,0.0,0.0,0.0,0.0,0.0,-4.6308,-4.6223,-4.6084,-4.5967,-4.5653,-4.5334,-4.5186,-4.4644,-4.4087,-4.4058,-4.3791,-4.3375,-4.2902,-4.2342,-4.1937,-4.1895,-4.1937,-4.2103,-4.2655,-4.2788,-4.2939,-4.341,-4.3497,-4.3497,-4.3497,-4.3497,-4.3497,-4.3497,-4.3497,-4.3497,-4.3497,-4.3513,-4.3679,-4.3986,-4.4058,-4.4382,-4.5074,-4.5118,-4.5302,-4.5586,-4.5586,-4.5586,-4.5586,-4.5586,-4.5586,-4.5586,-4.5586,-4.5586,-4.5586,-4.5586,-4.5586,-4.5586,-4.562,-4.5692,-4.5815,-4.5881,-4.5995,-4.612,-4.6247,-4.6308,-4.6308,-4.6308,-4.6308,-4.6308,0.0,0.0,0.0,0.0,0.0,0.0,0.0,0.0,0.0,0.0,0.0,0.0,0.0,0.0,0.0,0.0,0.0,0.0,0.0,0.0,-4.5586,-4.5586,-4.5586,-4.5651,-4.5761,-4.5761,-4.577,-4.5841,-4.5825,-4.5859,-4.5907,-4.6075,-4.62,-4.6289,-4.615,-4.6108,-4.6108,-4.6075,-4.5955,-4.579,-4.5861,-4.5783,-4.5586,-4.5586,-4.5586,0.0,0.0,0.0,0.0,0.0,0.0,0.0,-4.6268,-4.6289,-4.6225,-4.6108,-4.5913,-4.575,-4.567,-4.5266,-4.4806,-4.4553,-4.3974,-4.3479,-4.3375,-4.3232,-4.3032,-4.2598,-4.2828,-4.316,-4.3286,-4.3339,-4.3375,-4.3479,-4.3497,-4.3497,-4.3497,-4.3497,-4.3497,-4.3497,-4.3497,-4.3497,-4.3497,-4.3758,-4.3924,-4.3998,-4.4535,-4.4924,-4.5096,-4.5342,-4.5532,-4.5586,-4.5586,-4.5586,-4.5586,-4.5586,-4.5586,-4.5586,-4.5586,-4.5586,-4.5586,-4.5586,-4.5586,-4.5603,-4.5708,-4.5808,-4.5891,-4.6014,-4.6144,-4.6268,-4.6289,-4.6308,-4.6308,-4.6308,-4.6308,-4.6308,0.0,0.0,0.0,0.0,0.0,0.0,0.0,0.0,0.0,0.0,0.0,0.0,0.0,0.0,0.0,0.0,0.0,0.0,0.0,0.0,0.0,-4.5586,-4.5665,-4.5718,-4.5796,-4.5844,-4.5852,-4.5899,-4.5938,-4.5963,-4.5995,-4.612,-4.6225,-4.6308,-4.6225,-4.62,-4.62,-4.62,-4.6059,-4.5839,-4.5891,-4.5769,-4.5586,-4.5586,-4.5586,-4.5603,-4.568,0.0,0.0,0.0,0.0,0.0,0.0,0.0,-4.6268,-4.6144,-4.6045,-4.5959,-4.5852,-4.5497,-4.5107,-4.4688,-4.4165,-4.3758,-4.3758,-4.3631,-4.341,-4.3142,-4.3304,-4.3497,-4.3497,-4.3497,-4.3497,-4.3497,-4.3497,-4.3497,-4.3497,-4.3497,-4.3563,-4.3726,-4.3758,-4.3804,-4.4023,-4.4016,-4.4087,-4.4261,-4.4463,-4.4713,-4.5074,-4.5282,-4.5438,-4.5586,-4.5586,-4.5586,-4.5586,-4.5586,-4.5586,-4.5586,-4.5586,-4.5586,-4.5586,-4.5586,-4.5586,-4.5603,-4.5733,-4.5836,-4.5907,-4.6045,-4.6175,-4.6308,-4.6308,-4.6308,-4.6308,-4.6308,-4.6308,-4.6308,0.0,0.0,0.0,0.0,0.0,0.0,0.0,0.0,0.0,0.0,0.0,0.0,0.0,0.0,0.0,0.0,0.0,0.0,0.0,0.0,0.0,0.0,-4.5718,-4.5809,-4.5828,-4.5891,-4.5959,-4.5974,-4.608,-4.6124,-4.6144,-4.6247,-4.6308,-4.6308,-4.6308,-4.6308,-4.6308,-4.6308,-4.617,-4.5924,-4.5907,-4.5794,-4.5635,-4.5603,-4.5586,-4.5586,-4.5586,-4.5665,-4.5775,-4.5796,0.0,0.0,0.0,0.0,-4.623,-4.6122,-4.6105,-4.6064,-4.589,-4.5578,-4.5208,-4.4792,-4.4401,-4.4087,-4.4087,-4.3899,-4.3679,-4.3679,-4.3612,-4.3597,-4.3597,-4.3646,-4.3646,-4.3597,-4.3646,-4.3664,-4.3597,-4.3664,-4.3758,-4.3986,-4.4016,-4.4106,-4.4392,-4.4204,-4.4233,-4.458,-4.4401,-4.4542,-4.514,-4.5201,-4.5322,-4.5586,-4.5586,-4.5586,-4.5586,-4.5586,-4.5586,-4.5586,-4.5586,-4.5586,-4.5586,-4.5618,-4.5635,-4.5651,-4.5777,-4.5871,-4.594,-4.608,-4.62,-4.6308,-4.6308,-4.6308,-4.6308,-4.6308,-4.6308,-4.6308,0.0,0.0,0.0,0.0,0.0,0.0,0.0,0.0,0.0,0.0,0.0,0.0,0.0,0.0,0.0,0.0,0.0,0.0,-4.5603,0.0,0.0,-4.5586,-4.5718,-4.5832,-4.5891,-4.6021,-4.612,-4.6247,-4.6268,-4.6268,-4.6268,-4.6289,-4.6308,-4.6308,-4.6308,-4.6308,-4.6308,-4.6308,-4.6202,-4.605,-4.5959,-4.585,-4.5761,-4.5651,-4.5586,-4.5586,-4.5586,-4.562,-4.5651,-4.5761,-4.5815,0.0,0.0,0.0,-4.612,-4.6108,-4.6093,-4.6084,-4.6069,-4.5681,-4.5264,-4.508,-4.4757,-4.4527,-4.4527,-4.4474,-4.4447,-4.4447,-4.4194,-4.3924,-4.3924,-4.4223,-4.4337,-4.3986,-4.4223,-4.4337,-4.3986,-4.4252,-4.4337,-4.4046,-4.4016,-4.3912,-4.3679,-4.4184,-4.4553,-4.4599,-4.5077,-4.5438,-4.5513,-4.5531,-4.5568,-4.5586,-4.5586,-4.5586,-4.5586,-4.5586,-4.5586,-4.5586,-4.5586,-4.5586,-4.5603,-4.5723,-4.5769,-4.5783,-4.5971,-4.6069,-4.6084,-4.6223,-4.6289,-4.6308,-4.6308,-4.6308,-4.6308,-4.6308,-4.6308,-4.6308,0.0,0.0,0.0,0.0,0.0,0.0,0.0,0.0,0.0,0.0,0.0,0.0,0.0,0.0,0.0,-4.5815,-4.5825,-4.5776,-4.562,-4.5586,-4.5586,-4.5586,-4.5757,-4.5862,-4.5899,-4.6113,-4.6246,-4.6308,-4.6308,-4.6308,-4.6308,-4.6308,-4.6308,-4.6308,-4.6308,-4.6308,-4.6308,-4.6308,-4.6223,-4.6089,-4.6039,-4.5944,-4.5859,-4.5756,-4.5723,-4.5708,-4.5637,-4.5586,-4.5603,-4.5665,-4.5733,-4.5809,-4.5825,0.0,0.0,0.0,-4.6097,-4.6074,-4.6006,-4.5792,-4.5545,-4.5419,-4.5118,-4.4872,-4.4872,-4.4732,-4.458,-4.458,-4.4606,-4.4561,-4.4373,-4.4474,-4.4553,-4.4346,-4.4501,-4.4527,-4.4346,-4.4501,-4.4606,-4.4612,-4.4612,-4.4619,-4.4669,-4.4806,-4.4872,-4.4872,-4.4988,-4.5118,-4.5322,-4.5322,-4.54,-4.5586,-4.5586,-4.5586,-4.5586,-4.5586,-4.5586,-4.5586,-4.5586,-4.5586,-4.5603,-4.5783,-4.5844,-4.5822,-4.6008,-4.6108,-4.6113,-4.6247,-4.6308,-4.6308,-4.6308,-4.6308,-4.6308,-4.6308,-4.6308,-4.6289,0.0,0.0,0.0,0.0,0.0,0.0,0.0,0.0,0.0,0.0,0.0,0.0,0.0,0.0,0.0,0.0,-4.5881,-4.5809,-4.5601,-4.5586,-4.562,-4.5651,-4.5817,-4.5916,-4.594,-4.6175,-4.6308,-4.6308,-4.6308,-4.6308,-4.6308,-4.6308,-4.6308,-4.6308,-4.6308,-4.6308,-4.6308,-4.6308,-4.6246,-4.6147,-4.6113,-4.6039,-4.5944,-4.5844,-4.5796,-4.5783,-4.5651,-4.5586,-4.5586,-4.5586,-4.5665,-4.5747,-4.5747,-4.5808,0.0,0.0,0.0,-4.6078,-4.5986,-4.592,-4.5832,-4.5692,-4.5473,-4.5265,-4.5223,-4.5033,-4.4853,-4.4853,-4.5033,-4.514,-4.4896,-4.4853,-4.4849,-4.4732,-4.4781,-4.4806,-4.4751,-4.4781,-4.4919,-4.5074,-4.5096,-4.5161,-4.5342,-4.5201,-4.5096,-4.5096,-4.4943,-4.4966,-4.5222,-4.5222,-4.5342,-4.5586,-4.5586,-4.5586,-4.5586,-4.5586,-4.5586,-4.5586,-4.5586,-4.562,-4.5648,-4.582,-4.5891,-4.5899,-4.6064,-4.6147,-4.617,-4.6268,-4.6308,-4.6308,-4.6308,-4.6308,-4.6308,-4.6308,-4.6308,-4.6289,0.0,0.0,0.0,0.0,0.0,0.0,0.0,0.0,0.0,0.0,0.0,0.0,-4.6269,-4.6308,-4.6246,-4.6104,-4.5974,-4.5809,-4.5601,-4.5586,-4.5668,-4.5783,-4.5871,0.0,-4.6084,-4.6225,-4.6308,-4.6308,-4.6308,-4.6308,-4.6308,-4.6308,-4.6308,-4.6308,-4.6308,-4.6308,-4.6308,-4.6308,-4.6308,-4.6289,-4.6147,-4.6108,-4.6069,-4.5859,-4.5796,-4.5783,-4.5651,-4.5586,-4.5586,-4.5586,-4.5603,-4.5603,-4.5603,-4.5708,-4.5809,0.0,0.0,0.0,-4.6095,-4.6084,-4.6047,-4.5852,-4.5783,-4.5728,-4.5601,-4.5568,-4.555,-4.555,-4.5568,-4.5568,-4.555,-4.555,-4.5438,-4.5137,-4.5342,-4.5438,-4.5118,-4.5342,-4.5438,-4.5137,-4.5096,-4.4966,-4.4682,-4.4919,-4.5096,-4.5096,-4.5381,-4.5568,-4.5568,-4.5568,-4.5586,-4.5586,-4.5586,-4.5586,-4.5586,-4.5586,-4.5586,-4.5586,-4.5586,-4.5665,-4.5796,-4.5881,-4.5974,-4.6084,-4.6225,-4.6289,-4.6289,-4.6308,-4.6308,-4.6308,-4.6308,-4.6308,-4.6308,-4.6308,-4.6308,-4.6289,0.0,0.0,0.0,0.0,0.0,0.0,0.0,0.0,0.0,0.0,0.0,0.0,0.0,-4.6308,-4.6247,-4.6113,-4.5981,-4.5862,-4.5805,-4.5794,-4.5817,-4.5871,-4.5967,-4.6045,-4.6108,-4.6225,-4.6308,-4.6308,-4.6308,-4.6308,-4.6308,-4.6308,-4.6308,-4.6308,-4.6308,-4.6308,-4.6308,-4.6308,-4.6308,-4.6308,-4.6247,-4.6225,-4.6202,-4.6053,-4.5946,-4.585,-4.5769,-4.568,-4.5586,-4.5586,-4.5586,-4.5586,-4.5586,-4.5635,-4.5696,-4.5769,-4.5871,-4.5962,-4.5924,-4.5937,-4.5941,-4.582,-4.5832,-4.5861,-4.5805,-4.5794,-4.5776,-4.5747,-4.5718,-4.5708,-4.562,-4.5586,-4.5568,-4.5438,-4.5513,-4.5568,-4.5438,-4.5513,-4.5568,-4.5438,-4.5419,-4.5362,-4.5263,-4.5342,-4.5419,-4.5419,-4.5531,-4.5586,-4.5586,-4.5586,-4.5586,-4.5586,-4.5586,-4.5586,-4.5586,-4.5586,-4.5651,-4.5718,-4.5718,-4.5777,-4.5871,-4.5974,-4.605,-4.6113,-4.6246,-4.6308,-4.6308,-4.6308,-4.6308,-4.6308,-4.6308,-4.6308,-4.6308,-4.6308,-4.6247,-4.6147,0.0,0.0,0.0,0.0,0.0,0.0,0.0,0.0,0.0,-4.5747,0.0,0.0,0.0,0.0,-4.6247,-4.6113,-4.6027,-4.5959,-4.5899,-4.5899,-4.5916,-4.5974,-4.6045,-4.6117,-4.6173,-4.6247,-4.6308,-4.6308,-4.6308,-4.6308,-4.6308,-4.6308,-4.6308,-4.6308,-4.6308,-4.6308,-4.6308,-4.6308,-4.6308,-4.6308,-4.6308,-4.6308,-4.6289,-4.6108,-4.5981,-4.59,-4.5777,-4.568,-4.5586,-4.5586,-4.5586,-4.5586,-4.5586,-4.5586,-4.5637,-4.5761,-4.5844,-4.5862,-4.5839,-4.5874,-4.5887,-4.5819,-4.5847,-4.5891,-4.5864,-4.5885,-4.59,-4.5847,-4.5825,-4.5808,-4.5708,-4.5673,-4.5648,-4.5603,-4.5586,-4.5586,-4.5586,-4.5586,-4.5586,-4.5586,-4.5586,-4.5586,-4.5586,-4.5586,-4.5586,-4.5586,-4.5586,-4.5586,-4.5586,-4.5586,-4.5586,-4.5586,-4.5586,-4.5586,-4.5586,-4.5651,-4.5723,-4.5796,-4.582,-4.5881,-4.5974,-4.605,-4.612,-4.6173,-4.6268,-4.6308,-4.6308,-4.6308,-4.6308,-4.6308,-4.6308,-4.6308,-4.6308,-4.6308,-4.6223,-4.608,0.0,0.0,0.0,0.0,0.0,0.0,0.0,0.0,-4.4895,-4.5684,0.0,0.0,0.0,0.0,0.0,-4.6117,-4.6113,-4.6045,-4.5916,-4.5907,-4.5974,-4.6108,-4.6113,-4.6173,-4.6308,-4.6308,-4.6308,0.0,0.0,0.0,0.0,-4.6289,-4.6289,-4.6289,-4.6289,-4.6289,-4.6289,-4.6289,-4.6289,-4.6289,-4.6289,-4.6289,-4.6268,-4.5995,-4.5899,-4.5862,-4.5673,-4.5603,-4.5586,-4.5586,-4.5586,-4.5586,-4.5586,-4.5586,-4.5637,-4.5761,-4.5796,-4.5815,0.0,0.0,0.0,-4.5816,-4.5846,-4.5878,-4.5812,-4.5865,-4.5916,-4.5907,-4.5907,-4.5907,-4.5899,-4.5859,-4.5756,-4.5635,-4.5603,-4.5586,-4.5586,-4.5586,-4.5586,-4.5586,-4.5586,-4.5586,-4.5586,-4.5586,-4.5586,-4.5586,-4.5586,-4.5586,-4.5586,-4.5586,-4.5586,-4.5586,-4.5603,-4.5603,-4.5603,-4.5733,-4.579,-4.5822,-4.5872,-4.5981,-4.6113,-4.6113,-4.6175,-4.6308,-4.6308,-4.6308,-4.6308,-4.6308,-4.6308,-4.6308,-4.6308,-4.6308,-4.6289,-4.6289,-4.6202,-4.6075,0.0,0.0,0.0,0.0,0.0,0.0,-4.4497,-4.4611,-4.4878,0.0,0.0,0.0,-4.608,-4.6223,-4.6289,-4.6247,-4.6247,-4.6225,-4.6198,-4.6198,-4.6202,-4.6246,-4.6247,-4.6268,-4.6308,-4.6308,-4.6308,0.0,0.0,0.0,0.0,0.0,0.0,-4.6001,-4.6001,-4.6001,-4.6027,-4.6117,-4.6108,-4.6001,-4.6001,-4.6001,-4.5995,-4.5924,-4.5862,-4.582,-4.5756,-4.5696,-4.5586,-4.5586,-4.5586,-4.5586,-4.5586,-4.5586,-4.5603,-4.5651,-4.5668,-4.5665,-4.5673,0.0,0.0,0.0,0.0,0.0,-4.6,-4.6031,-4.6035,-4.6045,-4.6045,-4.6027,-4.5916,-4.5872,-4.5852,-4.582,-4.5699,-4.5586,-4.5586,-4.5586,-4.5586,-4.5586,-4.5586,-4.5586,-4.5586,-4.5586,-4.5586,-4.5586,-4.5586,-4.5586,-4.5586,-4.5586,-4.5586,-4.5586,-4.5692,-4.5747,-4.5747,-4.5836,-4.5918,-4.6027,-4.6033,-4.6117,-4.6247,-4.6247,-4.6268,-4.6308,-4.6308,-4.6308,-4.6308,-4.6308,-4.6308,-4.6308,-4.6308,-4.6246,-4.617,-4.617,-4.604,-4.5889,0.0,0.0,0.0,0.0,0.0,-4.3689,-4.4259,-4.4485,-4.4815,0.0,0.0,0.0,-4.6075,-4.6173,-4.6246,-4.6308,-4.6308,-4.6308,-4.6308,-4.6308,-4.6308,-4.6308,-4.6308,-4.6308,-4.6308,-4.6308,-4.6308,0.0,0.0,0.0,0.0,0.0,0.0,0.0,0.0,-4.5872,-4.5861,-4.5938,-4.5955,-4.5899,-4.5899,-4.5899,-4.5899,-4.5862,-4.5825,-4.5796,-4.5733,-4.5665,-4.5586,-4.5586,-4.5586,-4.5586,-4.5586,-4.5586,-4.5586,-4.5586,-4.5586,-4.5586,-4.5586,-4.5668,-4.5723,-4.5723,0.0,0.0,-4.5988,-4.605,-4.6111,-4.6166,-4.6175,-4.615,-4.608,-4.6027,-4.5981,-4.5981,-4.585,-4.5736,-4.5736,-4.5736,-4.5736,-4.5736,-4.5736,-4.5736,-4.5736,-4.5736,-4.5736,-4.5736,-4.5736,-4.5736,-4.5736,-4.5736,-4.5736,-4.5736,-4.5789,-4.5847,-4.5847,-4.5935,-4.6008,-4.6108,-4.617,-4.6225,-4.6308,-4.6308,-4.6308,-4.6308,-4.6308,-4.6308,-4.6308,-4.6246,-4.6247,-4.6308,-4.6308,-4.6223,-4.6108,-4.6108,-4.5963,-4.5796,0.0,0.0,-4.198,-4.2596,-4.3133,-4.3631,-4.4016,-4.4392,-4.4732,0.0,-4.5519,-4.5867,-4.6053,-4.608,-4.6147,-4.6268,-4.6289,-4.6308,-4.6308,-4.6308,-4.6308,-4.6308,-4.6289,-4.6289,-4.6308,-4.6268,-4.6268,0.0,0.0,0.0,0.0,0.0,0.0,0.0,0.0,0.0,-4.5924,-4.6021,-4.6053,-4.5998,-4.592,-4.5881,-4.5862,-4.5796,-4.5769,-4.5775,-4.5651,-4.5586,-4.5586,-4.5586,-4.5586,-4.5586,-4.5586,-4.5586,-4.5586,-4.5586,-4.5586,-4.5586,-4.5586,-4.5586,-4.5586,-4.5586,-4.5677,0.0,-4.5872,-4.5974,-4.6104,-4.6225,-4.6268,-4.6268,-4.6268,-4.6169,-4.6075,-4.6075,-4.5991,-4.592,-4.5907,-4.5899,-4.5899,-4.5899,-4.5899,-4.5899,-4.5899,-4.5899,-4.5899,-4.5899,-4.5899,-4.5899,-4.5899,-4.5899,-4.5899,-4.5899,-4.5916,-4.5916,-4.5916,-4.6069,-4.6117,-4.6117,-4.6246,-4.6308,-4.6308,-4.6308,-4.6308,-4.6308,-4.6308,-4.6289,-4.6268,-4.6147,-4.6173,-4.6289,-4.6268,-4.6173,-4.6069,-4.6069,-4.5938,-4.5769,-4.0814,0.0,-4.2011,-4.2575,-4.3133,-4.3712,-4.4392,-4.4553,-4.4825,-4.5419,-4.5673,-4.5803,-4.5844,-4.5994,-4.6113,-4.6144,-4.6246,-4.6308,-4.6308,-4.6308,-4.6308,-4.6308,-4.62,-4.6198,-4.6308,-4.6084,-4.6033,-4.6144,0.0,0.0,0.0,0.0,0.0,0.0,0.0,-4.6709,-4.6733,-4.7388,-4.727,-4.6629,-4.5951,-4.5661,-4.5661,-4.5632,-4.5635,-4.5635,-4.5603,-4.5586,-4.5586,-4.5586,-4.5586,-4.5586,-4.5586,-4.5586,-4.5586,-4.5586,-4.5586,-4.5586,-4.5586,-4.5586,-4.5586,-4.5586,-4.562,0.0,-4.579,-4.5832,-4.588,-4.5959,-4.5981,-4.5981,-4.5981,-4.5956,-4.5949,-4.5949,-4.6003,-4.6015,-4.592,-4.5899,-4.5899,-4.5899,-4.5899,-4.5899,-4.5899,-4.5899,-4.5899,-4.5899,-4.5899,-4.5899,-4.5899,-4.5899,-4.5899,-4.5899,-4.6001,-4.605,-4.605,-4.6198,-4.6268,-4.6268,-4.6289,-4.6308,-4.6308,-4.6308,-4.6308,-4.6308,-4.6308,-4.6246,-4.6144,-4.6113,-4.6117,-4.612,-4.6027,-4.5938,-4.5856,-4.5856,-4.5769,-4.5635,-4.1181,-4.1594,-4.2073,-4.2955,-4.3332,-4.3679,-4.4223,-4.4474,-4.4781,-4.5283,-4.5543,-4.5737,-4.5796,-4.588,-4.5986,-4.6084,-4.615,-4.62,-4.62,-4.62,-4.6173,-4.6089,-4.6039,-4.6033,-4.6108,-4.5974,-4.5924,-4.5995,0.0,0.0,0.0,0.0,0.0,0.0,0.0,-4.7509,-4.7528,-4.7932,-4.7875,-4.7432,-4.6586,-4.599,-4.5586,-4.5586,-4.5586,-4.5586,-4.5586,-4.5586,-4.5586,-4.5586,-4.5586,-4.5586,-4.5586,-4.5586,-4.5586,-4.5586,-4.5495,-4.5342,-4.5342,-4.5342,-4.5342,-4.5342,-4.5342,0.0,0.0,-4.5401,-4.5321,-4.56,-4.5645,-4.5705,-4.587,-4.5899,-4.5899,-4.5899,-4.6001,-4.6049,-4.5917,-4.6019,-4.6108,-4.6108,-4.6108,-4.6108,-4.6108,-4.6108,-4.6108,-4.6108,-4.6108,-4.6108,-4.6108,-4.6108,-4.6108,-4.6108,-4.6153,-4.62,-4.62,-4.6268,-4.6308,-4.6308,-4.6308,-4.6308,-4.6308,-4.6308,-4.6308,-4.6308,-4.6225,-4.615,-4.6084,-4.5986,-4.5957,-4.5957,-4.5899,-4.5861,-4.5796,-4.5796,-4.5723,-4.5586,-4.1594,-4.1813,-4.2178,-4.332,-4.3497,-4.3646,-4.4046,-4.4392,-4.4732,-4.514,-4.5438,-4.5635,-4.5747,-4.5783,-4.5878,-4.6059,-4.6084,-4.6108,-4.6108,-4.6108,-4.6039,-4.5907,-4.59,-4.59,-4.5899,-4.6027,-4.6104,-4.6115,-4.6203,0.0,0.0,0.0,0.0,-4.8105,-4.8279,-4.8355,-4.8355,-4.8529,-4.8509,-4.8298,-4.7644,-4.6855,-4.6047,-4.5913,-4.5836,-4.5817,-4.5663,-4.5586,-4.5586,-4.5586,-4.5586,-4.5586,-4.5586,-4.5586,-4.5586,-4.5513,-4.5322,-4.5074,-4.503,-4.4988,-4.4988,-4.4988,-4.4988,-4.5036,0.0,0.0,0.0,-4.5173,-4.5237,-4.5336,-4.5602,-4.5646,-4.5677,-4.5739,-4.586,-4.5928,-4.5891,-4.6075,-4.6223,-4.6223,-4.6268,-4.6289,-4.6268,-4.6289,-4.6308,-4.6308,-4.6308,-4.6308,-4.6308,-4.6308,-4.6308,-4.6308,-4.6308,-4.6308,-4.6308,-4.6308,-4.6308,-4.6308,-4.6308,-4.6289,-4.6268,-4.6268,-4.6247,-4.6223,-4.6113,-4.6045,-4.604,-4.5867,-4.5783,-4.5769,-4.5817,-4.5813,-4.5761,-4.5761,-4.5692,-4.5586,-4.1582,-4.1807,-4.2149,-4.3303,-4.3497,-4.3744,-4.4419,-4.4553,-4.4849,-4.5457,-4.5568,-4.5603,-4.562,-4.5718,-4.5832,-4.5927,-4.6033,-4.6108,-4.6108,-4.6108,-4.6039,-4.5907,-4.5847,-4.5836,-4.5899,-4.6477,-4.6831,-4.6875,-4.7513,-4.7892,0.0,0.0,0.0,-4.8125,-4.8913,-4.924,-4.9298,-5.0067,-4.9952,-4.924,-4.9144,-4.8586,-4.774,-4.7028,-4.6759,-4.6644,-4.5874,-4.5586,-4.5586,-4.5586,-4.5586,-4.5586,-4.5586,-4.5586,-4.5531,-4.5243,-4.5118,-4.503,-4.4751,-4.4657,-4.4657,-4.4657,-4.4657,-4.4657,-4.4688,0.0,-4.4644,-4.47,0.0,-4.4706,-4.473,0.0,0.0,-4.5145,-4.53,-4.548,-4.577,-4.5891,-4.5959,-4.5959,-4.617,-4.6247,-4.6124,-4.6225,-4.6308,-4.6308,-4.6308,-4.6308,-4.6308,-4.6308,-4.6308,-4.6308,-4.6308,-4.6308,-4.6308,-4.6308,-4.6308,-4.6308,-4.6308,-4.6246,-4.6117,-4.6117,-4.6069,-4.594,-4.5924,-4.5901,-4.584,-4.5822,-4.5718,-4.5618,-4.5616,-4.5635,-4.5618,-4.5618,-4.562,-4.5586,-4.1138,-4.1576,-4.2062,-4.2884,-4.3286,-4.3679,-4.4175,-4.4631,-4.5074,-4.555,-4.5586,-4.5586,-4.5586,-4.5651,-4.5733,-4.5825,-4.5901,-4.593,-4.593,-4.6348,-4.6577,-4.6472,-4.6905,-4.7156,-4.7173,-4.7444,-4.7603,-4.7648,-4.795,-4.8241,0.0,0.0,-4.8786,-4.9283,-4.9628,-4.9946,-5.0183,-5.0529,-5.0491,-5.0144,-5.0144,-4.9933,-4.9413,-4.7586,-4.6586,-4.6105,-4.572,-4.5586,-4.5586,-4.5586,-4.5586,-4.5586,-4.5586,-4.5476,-4.5263,-4.514,-4.4806,-4.4409,-4.429,-4.4233,-4.4233,-4.4233,-4.4233,-4.4233,-4.4233,-4.4106,-4.4004,-4.4204,0.0,0.0,0.0,0.0,0.0,0.0,-4.4887,-4.5055,-4.5341,-4.5515,-4.5675,-4.587,-4.5995,-4.608,-4.6108,-4.6147,-4.6223,-4.6289,-4.6225,-4.6223,-4.6308,-4.6308,-4.6308,-4.6308,-4.6308,-4.6308,-4.6308,-4.6308,-4.6308,-4.6308,-4.6223,-4.615,-4.6108,-4.6027,-4.594,-4.5899,-4.5861,-4.582,-4.5796,-4.5723,-4.5651,-4.5586,-4.5586,-4.5586,-4.5586,-4.5586,-4.5586,-4.5586,-4.0625,-4.1268,-4.1979,-4.2616,-4.3142,-4.3612,-4.3955,-4.4638,-4.5201,-4.5438,-4.5531,-4.5586,-4.5586,-4.5586,-4.5648,-4.5783,-4.5796,-4.5796,-4.5796,-4.6538,-4.6974,-4.6894,-4.7682,-4.8105,-4.8105,-4.8336,-4.8395,-4.8297,-4.8528,-4.8764,0.0,0.0,0.0,-4.9949,-4.9949,-5.0159,-5.0544,-5.0544,-5.0604,-5.0702,-5.0702,-5.0548,-5.0106,-4.8029,-4.6701,-4.5932,-4.5682,-4.5586,-4.5586,-4.5495,-4.5457,-4.5438,-4.5362,-4.5161,-4.4943,-4.483,-4.4409,-4.3986,-4.3881,-4.3849,-4.3849,-4.3849,-4.3849,-4.3849,-4.3849,-4.366,-4.3563,-4.3804,-4.3849,0.0,0.0,0.0,-4.4337,-4.4419,0.0,-4.4602,-4.4924,-4.5093,-4.5345,-4.5766,-4.5841,-4.5918,-4.6033,-4.6045,-4.6108,-4.6246,-4.617,-4.617,-4.6289,-4.6308,-4.6308,-4.6308,-4.6308,-4.6308,-4.6308,-4.6308,-4.6289,-4.6246,-4.6147,-4.6069,-4.6008,-4.5909,-4.5852,-4.5828,-4.5764,-4.5747,-4.5733,-4.5635,-4.5586,-4.5586,-4.5586,-4.5586,-4.5586,-4.5586,-4.5586,-4.5586,-4.0121,-4.103,-4.1979,-4.2616,-4.3142,-4.3612,-4.3955,-4.4638,-4.5096,-4.5118,-4.54,-4.5586,-4.5586,-4.5586,-4.5648,-4.5783,-4.5796,-4.5796,-4.5796,-4.6538,-4.6974,-4.6894,-4.7682,-4.8105,-4.8105,-4.8933,-4.9159,-4.8777,-4.9616,-4.9848,0.0,0.0,0.0,-4.9504,-4.9504,-4.9746,-5.0135,-5.0135,-5.0336,-5.0702,-5.0702,-5.0183,-4.9336,-4.8413,-4.7567,-4.6759,-4.5893,-4.5586,-4.555,-4.5222,-4.5118,-4.5052,-4.4732,-4.4606,-4.4553,-4.4146,-4.3998,-4.3924,-4.3579,-4.3513,-4.3513,-4.3513,-4.3513,-4.3513,-4.3513,-4.3532,-4.3479,-4.3513,-4.3513,-4.3513,-4.3548,-4.3548,-4.3646,-4.3955,-4.4028,0.0,0.0,-4.4631,-4.4858,-4.553,-4.5718,-4.5832,-4.5899,-4.5907,-4.5967,-4.6108,-4.6089,-4.617,-4.6289,-4.6308,-4.6308,-4.6308,-4.6308,-4.6308,-4.6308,-4.6308,-4.6226,-4.6113,-4.6089,-4.5994,-4.5822,-4.5809,-4.5733,-4.562,-4.5603,-4.5603,-4.5603,-4.5603,-4.5586,-4.5586,-4.5586,-4.5586,-4.5586,-4.5586,-4.5586,-4.5586,-4.007,-4.072,-4.1402,-4.1979,-4.2865,-4.3612,-4.3955,-4.4204,-4.4561,-4.5052,-4.5201,-4.5342,-4.5568,-4.5586,-4.562,-4.5665,-4.5665,-4.5915,-4.6494,-4.7268,-4.7966,-4.8529,-4.9375,-4.9817,-4.9817,-4.9846,-4.9786,-4.9673,-4.9694,-4.9504,0.0,0.0,0.0,-4.9108,-4.9108,-4.9326,-4.9719,-4.9974,-5.0183,-5.0336,-5.0604,-5.051,-5.0087,-4.8644,-4.7605,-4.6797,-4.5913,-4.5476,-4.5243,-4.5159,-4.4943,-4.4732,-4.465,-4.4419,-4.4175,-4.4028,-4.3849,-4.3646,-4.3548,-4.3497,-4.3497,-4.3497,-4.3497,-4.3497,-4.3497,-4.3497,-4.3497,-4.3497,-4.3497,-4.3497,-4.3497,-4.3497,-4.3548,-4.3646,-4.3679,-4.3804,0.0,-4.4447,-4.4682,-4.4919,-4.5247,-4.5484,-4.5505,-4.5706,-4.5871,-4.5967,-4.5974,-4.6033,-4.615,-4.6247,-4.6308,-4.6308,-4.6308,-4.6308,-4.6308,-4.6202,-4.6147,-4.6108,-4.5974,-4.5867,-4.5796,-4.5708,-4.5651,-4.5586,-4.5586,-4.5586,-4.5586,-4.5586,-4.5586,-4.5586,-4.5586,-4.5586,-4.5586,-4.5586,-4.5586,-4.5586,-4.007,-4.0528,-4.1087,-4.1707,-4.2734,-4.3563,-4.3804,-4.3924,-4.4233,-4.483,-4.503,-4.5222,-4.5568,-4.5586,-4.5586,-4.5586,-4.5586,-4.597,-4.6836,-4.7663,-4.849,-4.9356,-5.0221,-5.0702,-5.0702,-5.0313,-5.0043,-4.9898,-4.9475,-4.9075,0.0,0.0,0.0,-4.8692,-4.8692,-4.8897,-4.9295,-4.9561,-4.9773,-4.9924,-5.0336,-5.0229,-4.9701,-4.841,-4.7665,-4.7164,-4.5879,-4.5263,-4.5074,-4.4806,-4.4561,-4.4364,-4.4252,-4.4035,-4.3836,-4.3836,-4.3679,-4.3497,-4.3497,-4.3497,-4.3497,-4.3497,-4.3497,-4.3497,-4.3497,-4.3497,-4.3497,-4.3497,-4.3497,-4.3497,-4.3497,-4.3497,-4.3497,-4.3497,-4.3497,-4.3563,0.0,-4.4065,-4.4213,-4.4213,-4.4716,-4.5111,-4.5208,-4.543,-4.5641,-4.5861,-4.5852,-4.5909,-4.6027,-4.6113,-4.617,-4.617,-4.617,-4.617,-4.617,-4.6075,-4.6021,-4.5986,-4.5867,-4.5789,-4.5737,-4.5635,-4.5586,-4.5586,-4.5586,-4.5586,-4.5586,-4.5586,-4.5586,-4.5586,-4.5586,-4.5586,-4.5586,-4.5586,-4.5586,-4.5586,-4.007,-4.0528,-4.1087,-4.1707,-4.2734,-4.3479,-4.3497,-4.3772,-4.4117,-4.4527,-4.4849,-4.5161,-4.5513,-4.555,-4.5568,-4.5568,-4.5568,-4.5953,-4.6876,-4.7664,-4.8471,-4.9375,-5.0201,-5.0624,-5.0624,-5.0249,-4.9853,-4.9475,-4.9075,-4.8657,0.0,0.0,0.0,0.0,-4.8306,-4.8513,-4.8863,-4.8897,-4.9139,-4.9532,-4.9924,-4.9359,-4.8266,-4.7743,-4.7752,-4.7722,-4.5793,-4.5074,-4.4943,-4.4233,-4.3986,-4.3924,-4.3597,-4.3497,-4.3497,-4.3497,-4.3497,-4.3497,-4.3497,-4.3497,-4.3497,-4.3497,-4.3497,-4.3497,-4.3497,-4.3497,-4.3497,-4.3497,-4.3497,-4.3497,-4.3497,-4.3497,-4.3497,-4.3497,-4.3497,-4.3497,-4.3497,-4.3497,-4.3497,-4.3497,-4.4125,-4.4682,-4.5011,-4.5074,-4.5285,-4.5722,-4.5796,-4.5832,-4.5881,-4.5899,-4.5899,-4.5899,-4.5899,-4.5899,-4.5899,-4.5899,-4.5871,-4.5796,-4.5796,-4.5718,-4.5586,-4.5586,-4.5586,-4.5586,-4.5586,-4.5586,-4.5586,-4.5586,-4.5586,-4.5586,-4.5586,-4.5586,-4.5586,-4.5586,-4.5586,-4.5586,-3.9952,-4.0528,-4.1087,-4.1707,-4.2422,-4.305,-4.3444,-4.3563,-4.3758,-4.4106,-4.4233,-4.4428,-4.4806,-4.4872,-4.4966,-4.5201,-4.5222,-4.5833,-4.7245,-4.7551,-4.8205,-4.9421,-4.9686,-4.98,-4.98,-4.9397,-4.9171,-4.9043,-4.8657,-4.8383,-4.8306,0.0,0.0,0.0,-4.8306,-4.8364,-4.8477,-4.8779,-4.9139,-4.9504,-4.9589,-4.9098,-4.8239,-4.7443,-4.6847,-4.6258,-4.5136,-4.4535,-4.4243,-4.4058,-4.3818,-4.3612,-4.3513,-4.3497,-4.3497,-4.3497,-4.3497,-4.3497,-4.3497,-4.3497,-4.3497,-4.3497,-4.3497,-4.3497,-4.3497,-4.3497,-4.3497,-4.3497,-4.3497,-4.3497,-4.3497,-4.3497,-4.3497,-4.3497,-4.3497,-4.3497,-4.3497,-4.3497,-4.3497,-4.3497,-4.3899,-4.4175,-4.4271,-4.4781,-4.5161,-4.5265,-4.56,-4.5822,-4.582,-4.5872,-4.5899,-4.5899,-4.5899,-4.5899,-4.5899,-4.5839,-4.5828,-4.5796,-4.5692,-4.5635,-4.5586,-4.5586,-4.5586,-4.5586,-4.5586,-4.5586,-4.5586,-4.5586,-4.5586,-4.5586,-4.5586,-4.5586,-4.5586,-4.5586,-4.5586,-4.5586,-3.9952,-4.0319,-4.0797,-4.1664,-4.1853,-4.2266,-4.3321,-4.3497,-4.3612,-4.3955,-4.4016,-4.4146,-4.4553,-4.458,-4.4676,-4.4872,-4.4872,-4.5404,-4.6676,-4.7068,-4.7787,-4.8947,-4.9315,-4.9504,-4.9504,-4.9108,-4.8897,-4.8897,-4.8477,-4.8306,-4.8306,0.0,0.0,0.0,-4.8306,-4.8306,-4.8306,-4.8532,-4.8779,-4.8959,-4.8778,-4.8128,0.0,-4.6521,-4.5637,-4.4741,-4.4274,-4.4076,-4.3986,-4.3818,-4.3646,-4.3497,-4.3497,-4.3497,-4.3497,-4.3497,-4.3497,-4.3497,-4.3497,-4.3497,-4.3497,-4.3497,-4.3497,-4.3497,-4.3497,-4.3497,-4.3497,-4.3497,-4.3497,-4.3497,-4.3497,-4.3497,-4.3497,-4.3497,-4.3497,-4.3497,-4.3497,-4.3497,-4.3497,-4.3497,-4.3679,-4.3772,-4.3772,-4.4587,-4.5052,-4.4896,-4.5266,-4.5503,-4.5503,-4.5538,-4.562,-4.5757,-4.5776,-4.5776,-4.5776,-4.5728,-4.5723,-4.5708,-4.5635,-4.5586,-4.5586,-4.5586,-4.5586,-4.5586,-4.5586,-4.5586,-4.5586,-4.5586,-4.5586,-4.5586,-4.5586,-4.5586,-4.5586,-4.5586,-4.5586,-4.5586,-3.9901,-4.007,-4.0417,-4.1508,-4.1268,-4.1429,-4.3014,-4.3286,-4.3424,-4.3781,-4.3812,-4.3998,-4.4419,-4.4447,-4.4474,-4.4527,-4.4527,-4.4866,-4.5677,-4.6393,-4.7194,-4.8106,-4.881,-4.9213,-4.9326,-4.8996,-4.8813,-4.8813,-4.8477,-4.8306,-4.8306,-4.8306,0.0,-4.8306,-4.8306,-4.8306,-4.8306,-4.8306,-4.8251,-4.8124,-4.7766,-4.6882,-4.5681,-4.5352,-4.4494,-4.3497,-4.3497,-4.3712,-4.3881,-4.3597,-4.3497,-4.3497,-4.3497,-4.3497,-4.3497,-4.3497,-4.3497,-4.3497,-4.3497,-4.3497,-4.3497,-4.3497,-4.3497,-4.3497,-4.3497,-4.3497,-4.3497,-4.3497,-4.3497,-4.3497,-4.3497,-4.3497,-4.3497,-4.3497,-4.3497,-4.3497,-4.3497,-4.3497,-4.3497,-4.3497,-4.3548,0.0,-4.3479,-4.4373,-4.4849,-4.4553,-4.4849,-4.5052,-4.5096,-4.5096,-4.5243,-4.5586,-4.5586,-4.5586,-4.5586,-4.5586,-4.5586,-4.5586,-4.5586,-4.5586,-4.5586,-4.5586,-4.5586,-4.5586,-4.5586,-4.5586,-4.5586,-4.5586,-4.5586,-4.5586,-4.5586,-4.5586,-4.5586,-4.5586,-4.5586,-4.5586,-3.985,-4.007,-4.0286,-4.0967,-4.0949,-4.1161,-4.1961,-4.2103,-4.2306,-4.2847,-4.294,-4.3123,-4.3646,-4.3679,-4.3804,-4.4058,-4.4106,-4.4442,-4.5245,-4.5431,-4.6039,-4.7259,-4.7462,-4.7849,-4.8513,-4.8458,-4.8402,-4.8402,-4.8326,-4.8306,-4.8306,-4.8306,-4.8306,-4.8306,-4.8306,-4.8306,-4.8306,-4.8306,-4.7921,-4.7315,-4.7224,-4.6287,-4.4892,-4.4851,-4.4246,-4.3497,-4.3497,-4.3548,-4.3563,-4.3513,-4.3497,-4.3497,-4.3497,-4.3497,-4.3497,-4.3497,-4.3497,-4.3497,-4.3497,-4.3497,-4.3497,-4.3497,-4.3497,-4.3497,-4.3497,-4.3497,-4.3497,-4.3497,-4.3497,-4.3497,-4.3497,-4.3497,-4.3497,-4.3497,-4.3497,-4.3497,-4.3497,-4.3497,-4.3497,-4.3497,-4.374,-4.3804,-4.3513,-4.3912,-4.4175,-4.4117,-4.4474,-4.4825,-4.5074,-4.5096,-4.5243,-4.5586,-4.5586,-4.5586,-4.5586,-4.5586,-4.5586,-4.5586,-4.5586,-4.5586,-4.5586,-4.5586,-4.5586,-4.5586,-4.5586,-4.5586,-4.5586,-4.5586,-4.5586,-4.5586,-4.5586,-4.5586,-4.5586,-4.5586,-4.5586,-4.5586,-3.985,-4.007,-4.0286,-4.0827,-4.0655,-4.0672,-4.1268,-4.1105,-4.1241,-4.2121,-4.2244,-4.2324,-4.26,-4.26,-4.2829,-4.3281,-4.3334,-4.3603,-4.4262,-4.4687,-4.5194,-4.5828,-4.6269,-4.6687,-4.7219,-4.7197,-4.7438,-4.7838,-4.7838,-4.7838,-4.7838,-4.8172,-4.8114,-4.7856,-4.8172,-4.8306,-4.8269,-4.7865,-4.7462,-4.704,-4.6214,-4.5406,-4.4654,-4.425,-4.3828,-4.3497,-4.3497,-4.3497,-4.3497,-4.3497,-4.3497,-4.3497,-4.3497,-4.3497,-4.3497,-4.3497,-4.3497,-4.3497,-4.3497,-4.3497,-4.3497,-4.3497,-4.3497,-4.3497,-4.3497,-4.3497,-4.3497,-4.3497,-4.3497,-4.3497,-4.3497,-4.3497,-4.3497,-4.3497,-4.3497,-4.3497,-4.3497,-4.3497,-4.3497,-4.3497,-4.3646,-4.3679,-4.3513,-4.3646,-4.3804,-4.3986,-4.4175,-4.4535,-4.5074,-4.4943,-4.5055,-4.5586,-4.5586,-4.5586,-4.5586,-4.5586,-4.5586,-4.5586,-4.5586,-4.5586,-4.5586,-4.5586,-4.5586,-4.5586,-4.5586,-4.5586,-4.5586,-4.5586,-4.5586,-4.5586,-4.5586,-4.5586,-4.5586,-4.5586,-4.5586,-4.5586,-3.9952,-4.007,-4.0254,-4.0655,-4.0368,-4.0254,-4.0655,-4.0368,-4.0483,-4.1508,-4.1639,-4.1664,-4.181,-4.181,-4.1979,-4.248,-4.2519,-4.2675,-4.3105,-4.3743,-4.4144,-4.4345,-4.4947,-4.5446,-4.5773,-4.5773,-4.614,-4.6922,-4.7102,-4.7145,-4.7125,-4.791,-4.8035,-4.7614,-4.791,-4.8049,-4.7994,-4.7205,-4.6764,-4.6489,-4.5223,-4.4617,-4.4378,-4.3736,-4.3497,-4.3497,-4.3497,-4.3497,-4.3497,-4.3497,-4.3497,-4.3497,-4.3497,-4.3497,-4.3497,-4.3497,-4.3497,-4.3497,-4.3497,-4.3497,-4.3497,-4.3497,-4.3497,-4.3497,-4.3497,-4.3497,-4.3497,-4.3497,-4.3497,-4.3497,-4.3497,-4.3497,-4.3497,-4.3497,-4.3497,-4.3497,-4.3497,-4.3497,-4.3497,-4.3497,-4.3497,-4.3497,-4.3497,-4.3497,-4.3646,-4.3986,-4.4016,-4.429,-4.4966,-4.4825,-4.4943,-4.5476,-4.5568,-4.5568,-4.5495,-4.5568,-4.5586,-4.5586,-4.5586,-4.5586,-4.5586,-4.5586,-4.5586,-4.5586,-4.5586,-4.5586,-4.5586,-4.5586,-4.5586,-4.5586,-4.5586,-4.5586,-4.5586,-4.5586,-4.572,-4.5874,-3.9952,-4.007,-4.0121,-4.0171,-4.0121,-4.0121,-4.0171,-4.0121,-4.0353,-4.0972,-4.1013,-4.1161,-4.175,-4.181,-4.1793,-4.1895,-4.1895,-4.1895,-4.1979,-4.2032,-4.2388,-4.3141,-4.323,-4.364,-4.4352,-4.437,-4.4668,-4.5296,-4.6037,-4.6281,-4.6067,-4.7571,-4.8267,-4.8192,-4.7516,-4.7223,-4.7186,-4.6361,-4.559,-4.4929,-4.4764,-4.4268,-4.3589,-4.3516,-4.3497,-4.3497,-4.3497,-4.3497,-4.3497,-4.3497,-4.3497,-4.3497,-4.3497,-4.3497,-4.3497,-4.3497,-4.3497,-4.3497,-4.3497,-4.3497,-4.3497,-4.3497,-4.3497,-4.3497,-4.3497,-4.3497,-4.3497,-4.3497,-4.3497,-4.3497,-4.3497,-4.3497,-4.3497,-4.3497,-4.3497,-4.3497,-4.3497,-4.3497,-4.3497,-4.3497,-4.3497,-4.3497,-4.3497,-4.3497,-4.3646,-4.3986,-4.4016,-4.4175,-4.4606,-4.4896,-4.5074,-4.514,-4.5438,-4.5438,-4.5159,-4.5438,-4.5586,-4.5586,-4.5586,-4.5586,-4.5586,-4.5586,-4.5586,-4.5586,-4.5586,-4.5586,-4.5586,-4.5586,-4.5586,-4.5586,-4.5586,-4.5586,-4.5586,-4.5586,-4.6105,-4.6778,-3.8541,-3.9102,-3.9368,-3.9368,-3.9782,-4.007,-4.007,-4.007,-4.0171,-4.0434,-4.0417,-4.0497,-4.0767,-4.0767,-4.0891,-4.1223,-4.1268,-4.1402,-4.1768,-4.181,-4.1934,-4.2253,-4.2253,-4.2511,-4.2958,-4.2929,-4.3444,-4.4482,-4.5311,-4.5845,-4.6103,-4.7108,-4.7145,-4.6361,-4.6051,-4.5906,-4.5851,-4.5389,-4.5002,-4.4672,-4.4176,-4.3791,-4.3497,-4.3497,-4.3497,-4.3497,-4.3497,-4.3497,-4.3497,-4.3497,-4.3497,-4.3497,-4.3497,-4.3497,-4.3497,-4.3497,-4.3497,-4.3497,-4.3497,-4.3497,-4.3497,-4.3497,-4.3497,-4.3497,-4.3497,-4.3497,-4.3497,-4.3497,-4.3497,-4.3497,-4.3497,-4.3497,-4.3497,-4.3497,-4.3497,-4.3497,-4.3497,-4.3497,-4.3497,-4.3497,-4.3497,-4.3497,-4.3497,-4.3497,-4.3548,-4.3693,-4.3693,-4.3974,-4.4553,-4.4726,-4.48,-4.48,-4.5322,-4.5438,-4.5096,-4.5438,-4.5586,-4.5586,-4.5586,-4.5586,-4.5586,-4.5586,-4.5586,-4.5586,-4.5586,-4.5586,-4.5586,-4.5586,-4.5586,-4.5586,-4.5586,-4.5586,-4.5663,-4.6182,-4.6605,-4.7048,-3.7632,-3.8189,-3.858,-3.858,-3.9209,-3.9731,-3.9731,-3.9952,-4.007,-4.007,-4.007,-4.007,-4.007,-4.007,-4.0237,-4.0607,-4.0655,-4.0844,-4.1286,-4.1286,-4.1286,-4.1286,-4.1286,-4.1383,-4.1515,-4.1515,-4.2077,-4.3152,-4.3973,-4.4573,-4.4917,-4.558,-4.5508,-4.4839,-4.4786,-4.4736,-4.4722,-4.4437,-4.436,-4.4305,-4.3718,-4.3497,-4.3497,-4.3497,-4.3497,-4.3497,-4.3497,-4.3497,-4.3497,-4.3497,-4.3497,-4.3497,-4.3497,-4.3497,-4.3497,-4.3497,-4.3497,-4.3497,-4.3497,-4.3497,-4.3497,-4.3497,-4.3497,-4.3497,-4.3497,-4.3497,-4.3497,-4.3497,-4.3497,-4.3497,-4.3497,-4.3497,-4.3497,-4.3497,-4.3497,-4.3497,-4.3497,-4.3497,-4.3497,-4.3497,-4.3497,-4.3497,-4.3497,-4.3497,-4.3497,-4.3497,-4.3497,-4.3758,-4.4392,-4.4527,-4.4553,-4.4419,-4.5011,-4.5182,-4.4943,-4.5302,-4.5495,-4.5586,-4.5586,-4.5586,-4.5586,-4.5586,-4.5586,-4.5586,-4.5586,-4.5586,-4.5586,-4.5586,-4.5586,-4.5586,-4.5586,-4.5759,-4.6067,-4.6682,-4.7221,-4.7798,-3.7632,-3.7822,-3.7806,-3.7806,-3.8414,-3.8908,-3.8908,-3.961,-4.007,-4.007,-4.007,-4.007,-4.007,-4.007,-4.0121,-4.0121,-4.0121,-4.0121,-4.0121,-4.0121,-4.0121,-4.0121,-4.0121,-4.0138,-4.0138,-4.0138,-4.0385,-4.0938,-4.1799,-4.2107,-4.1864,-4.265,-4.3474,-4.4228,-4.3989,-4.3924,-4.3909,-4.3651,-4.3497,-4.3497,-4.3497,-4.3497,-4.3497,-4.3497,-4.3497,-4.3497,-4.3497,-4.3497,-4.3497,-4.3497,-4.3497,-4.3497,-4.3497,-4.3497,-4.3497,-4.3497,-4.3497,-4.3497,-4.3497,-4.3497,-4.3497,-4.3497,-4.3497,-4.3497,-4.3497,-4.3497,-4.3497,-4.3497,-4.3497,-4.3497,-4.3497,-4.3497,-4.3497,-4.3497,-4.3497,-4.3497,-4.3497,-4.3497,-4.3497,-4.3497,-4.3497,-4.3497,-4.3497,-4.3497,-4.3497,-4.3497,-4.3497,-4.3646,-4.3986,-4.4373,-4.4419,-4.3998,-4.4401,-4.4606,-4.4624,-4.4943,-4.5263,-4.5586,-4.5586,-4.5586,-4.5586,-4.5586,-4.5586,-4.5586,-4.5586,-4.5586,-4.5586,-4.5586,-4.5586,-4.5586,-4.5586,-4.6124,-4.6894,-4.6913,-4.7952,-4.9375,-3.6196,-3.6646,-3.6964,-3.6964,-3.7616,-3.8149,-3.8149,-3.8374,-3.8707,-3.9209,-3.9262,-3.9489,-4.002,-4.007,-4.007,-4.007,-4.007,-4.007,-4.007,-4.007,-4.007,-4.007,-4.007,-4.007,-4.007,-4.007,-4.0368,-4.0903,-4.1782,-4.2334,-4.2633,-4.2517,-4.23,-4.1939,-4.1858,-4.2078,-4.2501,-4.2822,-4.3178,-4.3497,-4.3497,-4.3497,-4.3497,-4.3497,-4.3497,-4.3497,-4.3497,-4.3497,-4.3497,-4.3497,-4.3497,-4.3497,-4.3497,-4.3497,-4.3497,-4.3497,-4.3497,-4.3497,-4.3497,-4.3497,-4.3497,-4.3497,-4.3497,-4.3497,-4.3497,-4.3497,-4.3497,-4.3497,-4.3497,-4.3497,-4.3497,-4.3497,-4.3497,-4.3497,-4.3497,-4.3497,-4.3497,-4.3497,-4.3497,-4.3497,-4.3497,-4.3497,-4.3497,-4.3497,-4.3497,-4.3497,-4.3497,-4.3548,-4.3646,-4.4004,-4.4016,-4.3679,-4.428,-4.4474,-4.4175,-4.458,-4.4919,-4.5243,-4.5243,-4.5381,-4.5586,-4.5586,-4.5586,-4.5586,-4.5586,-4.5586,-4.5586,-4.5586,-4.5586,-4.5663,-4.624,-4.6663,-4.7048,-4.8182,-4.8933,-4.9471,-3.5504,-3.5894,-3.6165,-3.6165,-3.6814,-3.7338,-3.7338,-3.7632,-3.8092,-3.8799,-3.8908,-3.9209,-4.002,-4.007,-4.007,-4.007,-4.007,-4.007,-4.007,-4.007,-4.007,-4.007,-4.007,-4.007,-4.007,-4.007,-4.0237,-4.0625,-4.1123,-4.1587,-4.1893,-4.1587,-4.1106,-4.0625,-4.0827,-4.1223,-4.1853,-4.244,-4.3014,-4.3497,-4.3497,-4.3497,-4.3497,-4.3497,-4.3497,-4.3497,-4.3497,-4.3497,-4.3497,-4.3497,-4.3497,-4.3497,-4.3497,-4.3497,-4.3497,-4.3497,-4.3497,-4.3497,-4.3497,-4.3497,-4.3497,-4.3497,-4.3497,-4.3497,-4.3497,-4.3497,-4.3497,-4.3497,-4.3497,-4.3497,-4.3497,-4.3497,-4.3497,-4.3497,-4.3497,-4.3497,-4.3497,-4.3497,-4.3497,-4.3497,-4.3497,-4.3497,-4.3497,-4.3497,-4.3497,-4.3497,-4.3497,-4.3497,-4.3497,-4.3693,-4.3726,-4.3532,-4.3962,-4.4136,-4.4016,-4.4233,-4.4631,-4.5096,-4.5222,-4.5322,-4.5419,-4.5531,-4.5531,-4.5419,-4.555,-4.5513,-4.5419,-4.555,-4.5778,-4.6144,-4.6701,-4.7278,-4.7971,-4.9009,-4.9606,-4.9971,-3.5504,-3.5504,-3.5504,-3.5504,-3.6054,-3.6492,-3.6492,-3.716,-3.7921,-3.8619,-3.8728,-3.9086,-3.9901,-4.002,-4.002,-4.0087,-4.007,-4.007,-4.007,-4.007,-4.007,-4.007,-4.007,-4.007,-4.007,-4.007,-4.007,-4.007,-4.007,-4.007,-4.007,-4.007,-4.007,-4.0121,-4.0607,-4.1178,-4.1768,-4.2382,-4.2939,-4.341,-4.341,-4.341,-4.341,-4.3444,-4.3444,-4.3444,-4.3497,-4.3497,-4.3497,-4.3497,-4.3497,-4.3497,-4.3497,-4.3497,-4.3497,-4.3497,-4.3497,-4.3497,-4.3497,-4.3497,-4.3497,-4.3497,-4.3497,-4.3497,-4.3497,-4.3497,-4.3497,-4.3497,-4.3497,-4.3497,-4.3497,-4.3497,-4.3497,-4.3497,-4.3497,-4.3497,-4.3497,-4.3497,-4.3497,-4.3497,-4.3497,-4.3497,-4.3497,-4.3497,-4.3497,-4.3497,-4.3497,-4.3497,-4.3497,-4.3497,-4.3497,-4.3497,-4.3497,-4.3646,-4.3955,-4.3955,-4.4318,-4.503,-4.5362,-4.5381,-4.5096,-4.5419,-4.5419,-4.514,-4.5438,-4.54,-4.5159,-4.5438,-4.6087,-4.6913,-4.6971,-4.7971,-4.9413,-4.9471,-4.999,-5.0702,-3.5504,-3.5504,-3.5504,-3.5504,-3.5604,-3.5782,-3.5782,-3.5894,-3.6305,-3.7068,-3.7128,-3.7642,-3.9016,-3.9193,-3.9437,-4.007,-4.007,-4.007,-4.007,-4.007,-4.007,-4.007,-4.007,-4.007,-4.007,-4.007,-4.007,-4.007,-4.007,-4.007,-4.007,-4.007,-4.007,-4.0138,-4.0254,-4.0577,-4.1178,-4.1768,-4.2103,-4.2226,-4.2714,-4.2619,-4.2266,-4.2714,-4.2902,-4.2939,-4.3375,-4.3497,-4.3497,-4.3497,-4.3497,-4.3497,-4.3497,-4.3497,-4.3497,-4.3497,-4.3497,-4.3497,-4.3497,-4.3497,-4.3497,-4.3497,-4.3497,-4.3497,-4.3497,-4.3497,-4.3497,-4.3497,-4.3497,-4.3497,-4.3497,-4.3497,-4.3497,-4.3497,-4.3497,-4.3497,-4.3497,-4.3497,-4.3497,-4.3497,-4.3497,-4.3497,-4.3497,-4.3497,-4.3497,-4.3497,-4.3497,-4.3497,-4.3497,-4.3497,-4.3497,-4.3497,-4.3497,-4.3548,-4.3631,-4.3631,-4.3836,-4.4261,-4.4638,-4.4943,-4.5096,-4.518,-4.5322,-4.5476,-4.5302,-4.5322,-4.5476,-4.5302,-4.5879,-4.6971,-4.7586,-4.8471,-4.9471,-5.0144,-5.051,-5.0702,-3.5444,-3.5504,-3.5504,-3.5504,-3.5504,-3.5504,-3.5504,-3.5504,-3.5782,-3.6492,-3.6615,-3.7084,-3.8246,-3.869,-3.9086,-3.9489,-3.9901,-4.007,-4.007,-4.007,-4.007,-4.007,-4.007,-4.007,-4.007,-4.007,-4.007,-4.007,-4.007,-4.007,-4.007,-4.007,-4.007,-4.007,-4.007,-4.0417,-4.0903,-4.1268,-4.1534,-4.1853,-4.2162,-4.208,-4.1853,-4.2162,-4.248,-4.275,-4.3014,-4.3286,-4.3497,-4.3497,-4.3497,-4.3497,-4.3497,-4.3497,-4.3497,-4.3497,-4.3497,-4.3497,-4.3497,-4.3497,-4.3497,-4.3497,-4.3497,-4.3497,-4.3497,-4.3497,-4.3497,-4.3497,-4.3497,-4.3497,-4.3497,-4.3497,-4.3497,-4.3497,-4.3497,-4.3497,-4.3497,-4.3497,-4.3497,-4.3497,-4.3497,-4.3497,-4.3497,-4.3497,-4.3497,-4.3497,-4.3497,-4.3497,-4.3497,-4.3497,-4.3497,-4.3497,-4.3497,-4.3497,-4.3497,-4.3646,-4.3758,-4.3772,-4.4337,-4.4606,-4.4612,-4.4781,-4.4966,-4.514,-4.4943,-4.4966,-4.5159,-4.5519,-4.6273,-4.7317,-4.8318,-4.9221,-5.0048,-5.0529,-5.0702,-5.0702,-3.5235,-3.5429,-3.5504,-3.5504,-3.5504,-3.5504,-3.5504,-3.5504,-3.5718,-3.6322,-3.6446,-3.6737,-3.7515,-3.8302,-3.8799,-3.8908,-3.961,-4.007,-4.007,-4.007,-4.007,-4.007,-4.007,-4.007,-4.007,-4.007,-4.007,-4.007,-4.007,-4.007,-4.007,-4.007,-4.007,-4.007,-4.007,-4.0368,-4.078,-4.0874,-4.1133,-4.1552,-4.1621,-4.1639,-4.1534,-4.1621,-4.1979,-4.244,-4.2616,-4.2921,-4.3267,-4.3444,-4.3444,-4.341,-4.3479,-4.3497,-4.3497,-4.3497,-4.3497,-4.3497,-4.3497,-4.3497,-4.3497,-4.3497,-4.3497,-4.3497,-4.3497,-4.3497,-4.3497,-4.3497,-4.3497,-4.3497,-4.3497,-4.3497,-4.3497,-4.3497,-4.3497,-4.3497,-4.3497,-4.3497,-4.3497,-4.3497,-4.3497,-4.3497,-4.3497,-4.3497,-4.3497,-4.3497,-4.3497,-4.3497,-4.3497,-4.3497,-4.3497,-4.3497,-4.3497,-4.3497,-4.3497,-4.3772,-4.3772,-4.3532,-4.4125,-4.428,-4.3998,-4.4346,-4.4553,-4.4599,-4.4527,-4.458,-4.4758,-4.5798,-4.6793,-4.7783,-4.8951,-4.9933,-5.0702,-5.0702,-5.0702,-5.0702,-3.4607,-3.51,-3.5504,-3.5504,-3.5504,-3.5504,-3.5504,-3.5504,-3.5569,-3.5683,-3.5668,-3.5958,-3.6737,-3.7499,-3.8189,-3.8854,-3.961,-4.007,-4.007,-4.007,-4.007,-4.007,-4.007,-4.007,-4.007,-4.007,-4.007,-4.007,-4.007,-4.007,-4.007,-4.007,-4.007,-4.007,-4.007,-4.0171,-4.0237,-4.0703,-4.0703,-4.0417,-4.0874,-4.075,-4.0417,-4.0874,-4.1087,-4.1313,-4.2342,-4.2422,-4.2226,-4.3196,-4.3214,-4.2902,-4.3375,-4.3497,-4.3497,-4.3497,-4.3497,-4.3497,-4.3497,-4.3497,-4.3497,-4.3497,-4.3497,-4.3497,-4.3497,-4.3497,-4.3497,-4.3497,-4.3497,-4.3497,-4.3497,-4.3497,-4.3497,-4.3497,-4.3497,-4.3497,-4.3497,-4.3497,-4.3497,-4.3497,-4.3497,-4.3497,-4.3497,-4.3497,-4.3497,-4.3497,-4.3497,-4.3497,-4.3497,-4.3497,-4.3497,-4.3497,-4.3497,-4.3497,-4.3497,-4.3529,-4.3529,-4.3497,-4.3631,-4.3791,-4.3998,-4.4058,-4.4261,-4.458,-4.4233,-4.4455,-4.5065,-4.5628,-4.6725,-4.8107,-4.9029,-4.9933,-5.0702,-5.0702,-5.0702,-5.0702,-3.4337,-3.4726,-3.507,-3.5444,-3.5504,-3.5504,-3.5504,-3.5504,-3.5504,-3.5504,-3.5846,-3.6054,-3.6006,-3.7055,-3.7921,-3.8246,-3.9032,-3.961,-4.007,-4.007,-4.007,-4.007,-4.007,-4.007,-4.007,-4.007,-4.007,-4.007,-4.007,-4.007,-4.007,-4.007,-4.007,-4.007,-4.007,-4.007,-4.0121,-4.0368,-4.0336,-4.0121,-4.0368,-4.0336,-4.0121,-4.0368,-4.0655,-4.0995,-4.1534,-4.175,-4.1895,-4.2386,-4.2404,-4.2244,-4.2523,-4.2828,-4.305,-4.305,-4.325,-4.3497,-4.3497,-4.3497,-4.3497,-4.3497,-4.3497,-4.3497,-4.3497,-4.3497,-4.3497,-4.3497,-4.3497,-4.3497,-4.3497,-4.3497,-4.3497,-4.3497,-4.3497,-4.3497,-4.3497,-4.3497,-4.3497,-4.3497,-4.3497,-4.3497,-4.3497,-4.3497,-4.3497,-4.3497,-4.3497,-4.3497,-4.3497,-4.3497,-4.3497,-4.3497,-4.3497,-4.3497,-4.3497,-4.3497,-4.3497,-4.3497,-4.3497,-4.3563,-4.3726,-4.3726,-4.3943,-4.428,-4.3881,-4.4016,-4.4602,-4.5965,-4.6929,-4.7732,-4.945,-5.0337,-5.0702,-5.0702,-5.0702,-5.0663,-3.4023,-3.4367,-3.4696,-3.5385,-3.5504,-3.5504,-3.5504,-3.5683,-3.5782,-3.5782,-3.6399,-3.6692,-3.6085,-3.7235,-3.8035,-3.8035,-3.8745,-3.9437,-4.007,-4.007,-4.007,-4.007,-4.007,-4.007,-4.007,-4.007,-4.007,-4.007,-4.007,-4.007,-4.007,-4.007,-4.007,-4.007,-4.007,-4.007,-4.007,-4.007,-4.007,-4.007,-4.007,-4.007,-4.007,-4.007,-4.0368,-4.0733,-4.0874,-4.1133,-4.1464,-4.1725,-4.1725,-4.1621,-4.1768,-4.2121,-4.248,-4.248,-4.279,-4.3142,-4.3444,-4.3497,-4.3497,-4.3497,-4.3497,-4.3497,-4.3497,-4.3497,-4.3497,-4.3497,-4.3497,-4.3497,-4.3497,-4.3497,-4.3497,-4.3497,-4.3497,-4.3497,-4.3497,-4.3497,-4.3497,-4.3497,-4.3497,-4.3497,-4.3497,-4.3497,-4.3497,-4.3497,-4.3497,-4.3497,-4.3497,-4.3497,-4.3497,-4.3497,-4.3497,-4.3497,-4.3497,-4.3497,-4.3497,-4.3497,-4.3497,-4.3497,-4.3497,-4.3497,-4.366,-4.3986,-4.3646,-4.3883,-4.4665,-4.6401,-4.7326,-4.7846,-4.9908,-5.0702,-5.0702,-5.0702,-5.0624,-5.0523,-3.3425,-3.4053,-3.4696,-3.5385,-3.5504,-3.5504,-3.5504,-3.6054,-3.6492,-3.6492,-3.7219,-3.769,-3.7648,-3.8358,-3.8799,-3.8799,-3.9542,-4.002,-4.0087,-4.007,-4.007,-4.007,-4.007,-4.007,-4.007,-4.007,-4.007,-4.007,-4.007,-4.007,-4.007,-4.007,-4.007,-4.007,-4.007,-4.007,-4.007,-4.007,-4.007,-4.007,-4.007,-4.007,-4.007,-4.007,-4.0121,-4.0204,-4.0733,-4.0625,-4.0385,-4.1464,-4.1446,-4.1087,-4.1621,-4.1853,-4.1853,-4.1853,-4.1877,-4.2144,-4.3232,-4.3497,-4.3497,-4.3497,-4.3497,-4.3497,-4.3497,-4.3497,-4.3497,-4.3497,-4.3497,-4.3497,-4.3497,-4.3497,-4.3497,-4.3497,-4.3497,-4.3497,-4.3497,-4.3497,-4.3497,-4.3497,-4.3497,-4.3497,-4.3497,-4.3497,-4.3497,-4.3497,-4.3497,-4.3497,-4.3497,-4.3497,-4.3497,-4.3497,-4.3497,-4.3497,-4.3497,-4.3497,-4.3497,-4.3497,-4.3497,-4.3497,-4.3497,-4.3497,-4.366,-4.3986,-4.3646,-4.4487,-4.6191,-4.6833,-4.7938,-4.9336,-5.0337,-5.0702,-5.0702,-5.0702,-5.0442,-5.0135,-3.2766,-3.3425,-3.4083,-3.4741,-3.522,-3.5504,-3.5504,-3.6117,-3.6446,-3.6006,-3.744,-3.8133,-3.7144,-3.8173,-3.8908,-3.8908,-3.9193,-3.9558,-4.007,-4.007,-4.007,-4.007,-4.007,-4.007,-4.007,-4.007,-4.007,-4.007,-4.007,-4.007,-4.007,-4.007,-4.007,-4.007,-4.007,-4.007,-4.007,-4.007,-4.007,-4.007,-4.007,-4.007,-4.007,-4.007,-4.007,-4.0121,-4.0336,-4.0286,-4.0171,-4.0594,-4.0594,-4.0449,-4.0689,-4.0967,-4.1313,-4.1664,-4.181,-4.1877,-4.2346,-4.2444,-4.2444,-4.2444,-4.2752,-4.3014,-4.3014,-4.325,-4.3497,-4.3497,-4.3497,-4.3497,-4.3497,-4.3497,-4.3497,-4.3497,-4.3214,-4.3142,-4.3444,-4.3214,-4.3142,-4.3444,-4.3497,-4.3497,-4.3497,-4.3497,-4.3497,-4.3497,-4.3497,-4.3497,-4.3497,-4.3497,-4.3497,-4.3497,-4.3497,-4.3497,-4.3497,-4.3497,-4.3497,-4.3497,-4.3497,-4.3497,-4.3497,-4.3497,-4.3563,-4.366,-4.3548,-4.4313,-4.5735,-4.6438,-4.7504,-4.8795,-4.9626,-4.9949,-4.9949,-4.9949,-4.9853,-4.9692,-3.2377,-3.3036,-3.3709,-3.4367,-3.504,-3.5504,-3.5504,-3.6117,-3.6446,-3.5879,-3.76,-3.8509,-3.7408,-3.8509,-3.9262,-3.9262,-3.9262,-3.9489,-4.007,-4.007,-4.007,-4.007,-4.007,-4.007,-4.007,-4.007,-4.007,-4.007,-4.007,-4.007,-4.007,-4.007,-4.007,-4.007,-4.007,-4.007,-4.007,-4.007,-4.007,-4.007,-4.007,-4.007,-4.007,-4.007,-4.007,-4.007,-4.007,-4.007,-4.007,-4.007,-4.007,-4.007,-4.007,-4.0368,-4.075,-4.115,-4.1286,-4.1286,-4.1286,-4.1286,-4.1331,-4.1725,-4.2121,-4.244,-4.244,-4.2696,-4.2977,-4.2977,-4.2977,-4.2977,-4.2977,-4.2977,-4.2977,-4.2977,-4.2675,-4.2559,-4.2903,-4.2657,-4.2541,-4.2903,-4.2977,-4.3032,-4.325,-4.3069,-4.3105,-4.3479,-4.3321,-4.3321,-4.3479,-4.3497,-4.3497,-4.3497,-4.3497,-4.3497,-4.3497,-4.3497,-4.3497,-4.3497,-4.3497,-4.3497,-4.3497,-4.3497,-4.3582,-4.3646,-4.3548,-4.4402,-4.587,-4.6327,-4.7353,-4.874,-4.9277,-4.9504,-4.9504,-4.9504,-4.9416,-4.9265,-3.2377,-3.3036,-3.3694,-3.4352,-3.504,-3.5489,-3.5504,-3.6165,-3.6615,-3.6615,-3.793,-3.8908,-3.8908,-3.961,-4.007,-4.007,-4.007,-4.007,-4.007,-4.007,-4.007,-4.007,-4.007,-4.007,-4.007,-4.007,-4.007,-4.007,-4.007,-4.007,-4.007,-4.007,-4.007,-4.007,-4.007,-4.007,-4.007,-4.007,-4.007,-4.007,-4.007,-4.007,-4.007,-4.007,-4.007,-4.007,-4.007,-4.007,-4.007,-4.007,-4.007,-4.007,-4.007,-4.007,-4.007,-4.007,-4.007,-4.007,-4.007,-4.007,-4.0385,-4.1508,-4.181,-4.1793,-4.1793,-4.181,-4.181,-4.181,-4.181,-4.181,-4.181,-4.181,-4.181,-4.181,-4.181,-4.1793,-4.181,-4.181,-4.1793,-4.181,-4.181,-4.2038,-4.2616,-4.2162,-4.2266,-4.3391,-4.3014,-4.2939,-4.3463,-4.3497,-4.3497,-4.3497,-4.3497,-4.3497,-4.3497,-4.3497,-4.3497,-4.3497,-4.3497,-4.3497,-4.3497,-4.3497,-4.366,-4.3986,-4.3646,-4.4841,-4.6967,-4.6644,-4.7679,-4.9475,-4.9475,-4.9475,-4.9475,-4.9475,-4.9234,-4.8897,-3.1735,-3.2362,-3.3021,-3.3679,-3.4789,-3.5738,-3.6213,-3.7365,-3.806,-3.7499,-3.8761,-3.9542,-3.8962,-3.961,-4.007,-4.007,-4.007,-4.007,-4.007,-4.007,-4.007,-4.007,-4.007,-4.007,-4.007,-4.007,-4.007,-4.007,-4.007,-4.007,-4.007,-4.007,-4.007,-4.007,-4.007,-4.007,-4.007,-4.007,-4.007,-4.007,-4.007,-4.007,-4.007,-4.007,-4.007,-4.007,-4.007,-4.007,-4.007,-4.007,-4.007,-4.007,-4.007,-4.007,-4.007,-4.007,-4.007,-4.007,-4.007,-4.007,-4.0171,-4.0514,-4.0891,-4.1178,-4.1178,-4.149,-4.181,-4.181,-4.181,-4.181,-4.181,-4.181,-4.181,-4.181,-4.1446,-4.1313,-4.175,-4.1446,-4.1313,-4.175,-4.181,-4.1853,-4.2038,-4.1895,-4.1919,-4.2266,-4.2559,-4.2788,-4.2939,-4.3304,-4.3497,-4.3497,-4.3497,-4.3497,-4.3497,-4.3497,-4.3497,-4.3497,-4.3497,-4.3497,-4.3497,-4.3497,-4.3529,-4.3646,-4.3548,-4.4716,-4.6625,-4.6249,-4.7244,-4.9043,-4.8763,-4.8676,-4.8676,-4.8676,-4.8568,-4.8477,-3.1482,-3.2063,-3.2721,-3.338,-3.4637,-3.5825,-3.6507,-3.7658,-3.8302,-3.7863,-3.8887,-3.9437,-3.8962,-3.961,-4.007,-4.007,-4.007,-4.007,-4.007,-4.007,-4.007,-4.007,-4.007,-4.007,-4.007,-4.007,-4.007,-4.007,-4.007,-4.007,-4.007,-4.007,-4.007,-4.007,-4.007,-4.007,-4.007,-4.007,-4.007,-4.007,-4.007,-4.007,-4.007,-4.007,-4.007,-4.007,-4.007,-4.007,-4.007,-4.007,-4.007,-4.007,-4.007,-4.007,-4.007,-4.007,-4.007,-4.007,-4.007,-4.007,-4.007,-4.007,-4.0319,-4.0577,-4.0577,-4.0844,-4.1122,-4.1122,-4.1122,-4.1122,-4.1122,-4.1122,-4.1122,-4.1122,-4.0797,-4.0703,-4.1076,-4.0797,-4.0703,-4.1059,-4.1122,-4.1196,-4.1402,-4.1241,-4.1196,-4.1446,-4.1979,-4.2342,-4.2342,-4.2884,-4.3178,-4.3178,-4.341,-4.3497,-4.3497,-4.3497,-4.3497,-4.3497,-4.3497,-4.3497,-4.3497,-4.3497,-4.3497,-4.3497,-4.3497,-4.4533,-4.6231,-4.6009,-4.6984,-4.8621,-4.8383,-4.8306,-4.8306,-4.8306,-4.8306,-4.8306,-3.1482,-3.2018,-3.2632,-3.3336,-3.4666,-3.5836,-3.658,-3.7467,-3.7994,-3.7994,-3.858,-3.9032,-3.9032,-3.9662,-4.007,-4.007,-4.007,-4.007,-4.007,-4.007,-4.007,-4.007,-4.007,-4.007,-4.007,-4.007,-4.007,-4.007,-4.007,-4.007,-4.007,-4.007,-4.007,-4.007,-4.007,-4.007,-4.007,-4.007,-4.007,-4.007,-4.007,-4.007,-4.007,-4.007,-4.007,-4.007,-4.007,-4.007,-4.007,-4.007,-4.007,-4.007,-4.007,-4.007,-4.007,-4.007,-4.007,-4.007,-4.007,-4.007,-4.007,-4.007,-4.007,-4.007,-4.007,-4.007,-4.007,-4.007,-4.007,-4.007,-4.007,-4.007,-4.007,-4.007,-4.007,-4.007,-4.007,-4.007,-4.007,-4.007,-4.007,-4.0286,-4.078,-4.0368,-4.0286,-4.078,-4.1402,-4.1707,-4.1707,-4.2302,-4.2655,-4.2711,-4.3178,-4.3444,-4.3497,-4.3497,-4.3497,-4.3497,-4.3497,-4.3497,-4.3497,-4.3497,-4.3497,-4.3497,-4.3497,-4.4397,-4.5902,-4.5902,-4.6856,-4.8306,-4.8306,-4.8306,-4.8306,-4.8306,-4.8306,-4.8306,-3.1482,-3.1644,-3.2103,-3.3272,-3.4776,-3.6142,-3.7361,-3.8739,-3.9627,-3.9627,-3.9731,-3.9833,-3.9833,-4.002,-4.007,-4.007,-4.007,-4.007,-4.007,-4.007,-4.007,-4.007,-4.007,-4.007,-4.007,-4.007,-4.007,-4.007,-4.007,-4.007,-4.007,-4.007,-4.007,-4.007,-4.007,-4.007,-4.007,-4.007,-4.007,-4.007,-4.007,-4.007,-4.007,-4.007,-4.007,-4.007,-4.007,-4.007,-4.007,-4.007,-4.007,-4.007,-4.007,-4.007,-4.007,-4.007,-4.007,-4.007,-4.007,-4.007,-4.007,-4.007,-4.007,-4.007,-4.007,-4.007,-4.007,-4.007,-4.007,-4.007,-4.007,-4.007,-4.007,-4.007,-4.007,-4.007,-4.007,-4.007,-4.007,-4.007,-4.007,-4.0171,-4.0237,-4.0171,-4.0171,-4.0237,-4.078,-4.1087,-4.1087,-4.1664,-4.2203,-4.2711,-4.2826,-4.3069,-4.3497,-4.3497,-4.3497,-4.3497,-4.3497,-4.3497,-4.3497,-4.3497,-4.3497,-4.3497,-4.3497,-4.4397,-4.5902,-4.5902,-4.6856,-4.8306,-4.8306,-4.8306,-4.8306,-4.8306,-4.8306,-4.8306,-3.1582,-3.1796,-3.2318,-3.3326,-3.502,-3.6617,-3.7633,-3.909,-4.007,-4.007,-4.007,-4.007,-4.007,-4.007,-4.007,-4.007,-4.007,-4.007,-4.007,-4.007,-4.007,-4.007,-4.007,-4.007,-4.007,-4.007,-4.007,-4.007,-4.007,-4.007,-4.007,-4.007,-4.007,-4.007,-4.007,-4.007,-4.007,-4.007,-4.007,-4.007,-4.007,-4.007,-4.007,-4.007,-4.007,-4.007,-4.007,-4.007,-4.007,-4.007,-4.007,-4.007,-4.007,-4.007,-4.007,-4.007,-4.007,-4.007,-4.007,-4.007,-4.007,-4.007,-4.007,-4.007,-4.007,-4.007,-4.007,-4.007,-4.007,-4.007,-4.007,-4.007,-4.007,-4.007,-4.007,-4.007,-4.007,-4.007,-4.007,-4.007,-4.007,-4.007,-4.007,-4.007,-4.007,-4.007,-4.0368,-4.0546,-4.0546,-4.1059,-4.1534,-4.1853,-4.2121,-4.2541,-4.3087,-4.3142,-4.325,-4.3497,-4.3497,-4.3497,-4.3497,-4.3497,-4.3497,-4.3497,-4.3497,-4.4397,-4.5902,-4.5902,-4.6856,-4.8306,-4.8306,-4.8306,-4.8306,-4.8306,-4.8306,-4.8306,-3.1992,-3.2367,-3.2959,-3.3599,-3.5421,-3.705,-3.7694,-3.9126,-4.007,-4.007,-4.007,-4.007,-4.007,-4.007,-4.007,-4.007,-4.007,-4.007,-4.007,-4.007,-4.007,-4.007,-4.007,-4.007,-4.007,-4.007,-4.007,-4.007,-4.007,-4.007,-4.007,-4.007,-4.007,-4.007,-4.007,-4.007,-4.007,-4.007,-4.007,-4.007,-4.007,-4.007,-4.007,-4.007,-4.007,-4.007,-4.007,-4.007,-4.007,-4.007,-4.007,-4.007,-4.007,-4.007,-4.007,-4.007,-4.007,-4.007,-4.007,-4.007,-4.007,-4.007,-4.007,-4.007,-4.007,-4.007,-4.007,-4.007,-4.007,-4.007,-4.007,-4.007,-4.007,-4.007,-4.007,-4.007,-4.007,-4.007,-4.007,-4.007,-4.007,-4.007,-4.007,-4.007,-4.007,-4.007,-4.007,-4.007,-4.007,-4.0528,-4.0827,-4.0903,-4.1402,-4.1955,-4.2519,-4.2537,-4.277,-4.3196,-4.3321,-4.341,-4.3497,-4.3497,-4.3497,-4.3497,-4.3497,-4.4397,-4.5902,-4.5902,-4.6856,-4.8306,-4.8306,-4.8306,-4.8306,-4.8306,-4.8306,-4.8306,-3.3339,-3.3391,-3.3665,-3.4349,-3.5728,-3.7053,-3.7765,-3.9158,-4.007,-4.007,-4.007,-4.007,-4.007,-4.007,-4.007,-4.007,-4.007,-4.007,-4.007,-4.007,-4.007,-4.007,-4.007,-4.007,-4.007,-4.007,-4.007,-4.007,-4.007,-4.007,-4.007,-4.007,-4.007,-4.007,-4.007,-4.007,-4.007,-4.007,-4.007,-4.007,-4.007,-4.007,-4.007,-4.007,-4.007,-4.007,-4.007,-4.007,-4.007,-4.007,-4.007,-4.007,-4.007,-4.007,-4.007,-4.007,-4.007,-4.007,-4.007,-4.007,-4.007,-4.007,-4.007,-4.007,-4.007,-4.007,-4.007,-4.007,-4.007,-4.007,-4.007,-4.007,-4.007,-4.007,-4.007,-4.007,-4.007,-4.007,-4.007,-4.007,-4.007,-4.007,-4.007,-4.007,-4.007,-4.007,-4.007,-4.007,-4.007,-4.0171,-4.0417,-4.0903,-4.1047,-4.1348,-4.1895,-4.1937,-4.1979,-4.2062,-4.2559,-4.305,-4.3497,-4.3497,-4.3497,-4.3497,-4.3497,-4.4397,-4.5902,-4.5902,-4.6856,-4.8306,-4.8306,-4.8306,-4.8306,-4.8306,-4.8306,-4.8306,-3.3684,-3.3887,-3.4235,-3.4528,-3.6172,-3.75,-3.7841,-3.914,-4.007,-4.007,-4.007,-4.007,-4.007,-4.007,-4.007,-4.007,-4.007,-4.007,-4.007,-4.007,-4.007,-4.007,-4.007,-4.007,-4.007,-4.007,-4.007,-4.007,-4.007,-4.007,-4.007,-4.007,-4.007,-4.007,-4.007,-4.007,-4.007,-4.007,-4.007,-4.007,-4.007,-4.007,-4.007,-4.007,-3.9833,-3.9385,-3.8941,-3.9102,-3.9437,-3.9437,-3.9731,-4.007,-4.007,-4.007,-4.007,-4.007,-4.007,-4.007,-4.007,-4.007,-4.007,-4.007,-4.007,-4.007,-4.007,-4.007,-4.007,-4.007,-4.007,-4.007,-4.007,-4.007,-4.007,-4.007,-4.007,-4.007,-4.007,-4.007,-4.007,-4.007,-4.007,-4.007,-4.007,-4.007,-4.007,-4.007,-4.007,-4.007,-4.007,-4.007,-4.0204,-4.0449,-4.0483,-4.0737,-4.1313,-4.1313,-4.1621,-4.2302,-4.2559,-4.2826,-4.305,-4.3356,-4.3497,-4.3497,-4.3497,-4.4397,-4.5902,-4.5902,-4.6856,-4.8306,-4.8306,-4.8306,-4.8306,-4.8306,-4.8306,-4.8306]},{"header":{"parameterUnit":"m.s-1","parameterCategory":1,"la1":30.6,"la2":28.766,"lo1":-90.7593,"lo2":-88.6598,"dy":0.0162,"dx":0.0183,"nx":116,"ny":114,"refTime":"2023-06-18T00:00:00:Z","depth":0,"parameterNumber":3,"parameterNumberName":"V-component_of_WINDS"},"data":[0.0,0.0,0.0,0.0,0.0,0.0,0.0,0.0,0.0,0.0,0.0,0.0,0.0,0.0,0.0,0.0,0.0,0.0,0.0,0.0,0.0,0.0,0.0,0.0,0.0,0.0,0.0,0.0,0.0,0.0,0.0,0.0,0.0,0.0,0.0,0.0,0.0,0.0,0.0,0.0,0.0,0.0,0.0,0.0,0.0,0.0,0.0,0.0,0.0,0.0,0.0,0.0,0.0,0.0,0.0,0.0,0.0,0.0,0.0,0.0,0.0,0.0,0.0,0.0,0.0,0.0,0.0,0.0,0.0,0.0,0.0,0.0,0.0,0.0,0.0,0.0,0.0,0.0,0.0,0.0,0.0,0.0,0.0,0.0,0.0,0.0,0.0,0.0,0.0,0.0,0.0,0.0,0.0,0.0,0.0,0.0,0.0,0.0,0.0,0.0,0.0,0.0,0.0,0.0,0.0,0.0,0.0,0.0,0.0,0.0,0.0,0.0,0.0,0.0,0.0,0.0,0.0,0.0,0.0,0.0,0.0,0.0,0.0,0.0,0.0,0.0,0.0,0.0,0.0,0.0,0.0,0.0,0.0,0.0,0.0,0.0,0.0,0.0,0.0,0.0,0.0,0.0,0.0,0.0,0.0,0.0,0.0,0.0,0.0,0.0,0.0,0.0,0.0,0.0,0.0,0.0,0.0,0.0,0.0,0.0,0.0,0.0,0.0,0.0,0.0,0.0,0.0,0.0,0.0,0.0,0.0,0.0,0.0,0.0,0.0,0.0,0.0,0.0,0.0,0.0,0.0,0.0,0.0,0.0,0.0,0.0,0.0,0.0,0.0,0.0,0.0,0.0,0.0,0.0,0.0,0.0,0.0,0.0,0.0,0.0,0.0,0.0,0.0,0.0,0.0,0.0,0.0,0.0,0.0,0.0,0.0,0.0,0.0,0.0,0.0,0.0,0.0,0.0,0.0,0.0,0.0,0.0,0.0,0.0,0.0,0.0,0.0,0.0,0.0,0.0,0.0,0.0,0.0,0.0,0.0,0.0,0.0,0.0,0.0,0.0,0.0,0.0,0.0,0.0,0.0,0.0,0.0,0.0,0.0,0.0,0.0,0.0,0.0,0.0,0.0,0.0,0.0,0.0,0.0,0.0,0.0,0.0,0.0,0.0,0.0,0.0,0.0,0.0,0.0,0.0,0.0,0.0,0.0,0.0,0.0,0.0,0.0,0.0,0.0,0.0,0.0,0.0,0.0,0.0,0.0,0.0,0.0,0.0,0.0,0.0,0.0,0.0,0.0,0.0,0.0,0.0,0.0,0.0,0.0,0.0,0.0,0.0,0.0,0.0,0.0,0.0,0.0,0.0,0.0,0.0,0.0,0.0,0.0,0.0,0.0,0.0,0.0,0.0,0.0,0.0,0.0,0.0,0.0,0.0,0.0,0.0,0.0,0.0,0.0,0.0,0.0,0.0,0.0,0.0,0.0,0.0,0.0,0.0,0.0,0.0,0.0,0.0,0.0,0.0,0.0,0.0,0.0,0.0,0.0,0.0,0.0,0.0,0.0,0.0,0.0,0.0,0.0,0.0,0.0,0.0,0.0,0.0,0.0,0.0,0.0,0.0,0.0,0.0,0.0,0.0,0.0,0.0,0.0,0.0,0.0,0.0,0.0,0.0,0.0,0.0,0.0,0.0,0.0,0.0,0.0,0.0,0.0,0.0,0.0,0.0,0.0,0.0,0.0,0.0,0.0,0.0,0.0,0.0,0.0,0.0,0.0,0.0,0.0,0.0,0.0,0.0,0.0,0.0,0.0,0.0,0.0,0.0,0.0,0.0,0.0,0.0,0.0,0.0,0.0,0.0,0.0,0.0,0.0,0.0,0.0,0.0,0.0,0.0,0.0,0.0,0.0,0.0,0.0,0.0,0.0,0.0,0.0,0.0,0.0,0.0,0.0,0.0,0.0,0.0,0.0,0.0,0.0,0.0,0.0,0.0,0.0,0.0,0.0,0.0,0.0,0.0,0.0,0.0,0.0,0.0,0.0,0.0,0.0,0.0,0.0,0.0,0.0,0.0,0.0,0.0,0.0,0.0,0.0,0.0,0.0,0.0,0.0,0.0,0.0,0.0,0.0,0.0,0.0,0.0,0.0,0.0,0.0,0.0,0.0,0.0,0.0,0.0,0.0,0.0,0.0,0.0,0.0,0.0,0.0,0.0,0.0,0.0,0.0,0.0,0.0,0.0,0.0,0.0,0.0,0.0,0.0,0.0,0.0,0.0,0.0,0.0,0.0,0.0,0.0,0.0,0.0,0.0,0.0,0.0,0.0,0.0,0.0,0.0,0.0,0.0,0.0,0.0,0.0,0.0,0.0,0.0,0.0,0.0,0.0,0.0,0.0,0.0,0.0,0.0,0.0,0.0,0.0,0.0,0.0,0.0,0.0,0.0,0.0,0.0,0.0,0.0,0.0,0.0,0.0,0.0,0.0,0.0,0.0,0.0,0.0,0.0,0.0,0.0,0.0,0.0,0.0,0.0,0.0,0.0,0.0,0.0,0.0,0.0,0.0,0.0,0.0,0.0,0.0,0.0,0.0,0.0,0.0,0.0,0.0,0.0,0.0,0.0,0.0,0.0,0.0,0.0,0.0,0.0,0.0,0.0,0.0,0.0,0.0,0.0,0.0,0.0,0.0,0.0,0.0,0.0,0.0,0.0,0.0,0.0,0.0,0.0,0.0,0.0,0.0,0.0,0.0,0.0,0.0,0.0,0.0,0.0,0.0,0.0,0.0,0.0,0.0,0.0,0.0,0.0,0.0,0.0,0.0,0.0,0.0,0.0,0.0,0.0,0.0,0.0,0.0,0.0,0.0,0.0,0.0,0.0,0.0,0.0,0.0,0.0,0.0,0.0,0.0,0.0,0.0,0.0,0.0,0.0,0.0,0.0,0.0,0.0,0.0,0.0,0.0,0.0,0.0,0.0,0.0,0.0,0.0,0.0,0.0,0.0,0.0,0.0,0.0,0.0,0.0,0.0,0.0,0.0,0.0,0.0,0.0,0.0,0.0,0.0,0.0,0.0,0.0,0.0,0.0,0.0,0.0,0.0,0.0,0.0,0.0,0.0,0.0,0.0,0.0,0.0,0.0,0.0,0.0,0.0,0.0,0.0,0.0,0.0,0.0,0.0,0.0,0.0,0.0,0.0,0.0,0.0,0.0,0.0,0.0,0.0,0.0,0.0,0.0,0.0,0.0,0.0,0.0,0.0,0.0,0.0,0.0,0.0,0.0,0.0,0.0,0.0,0.0,0.0,0.0,0.0,0.0,0.0,0.0,0.0,0.0,0.0,0.0,0.0,0.0,0.0,0.0,0.0,0.0,0.0,0.0,0.0,0.0,0.0,0.0,0.0,0.0,0.0,0.0,0.0,0.0,0.0,0.0,0.0,0.0,0.0,0.0,0.0,0.0,0.0,0.0,0.0,0.0,0.0,0.0,0.0,0.0,0.0,0.0,0.0,0.0,0.0,0.0,0.0,0.0,0.0,0.0,0.0,0.0,0.0,0.0,0.0,0.0,0.0,0.0,0.0,0.0,0.0,0.0,0.0,0.0,0.0,0.0,0.0,0.0,0.0,0.0,0.0,0.0,0.0,0.0,0.0,0.0,0.0,0.0,0.0,0.0,0.0,0.0,0.0,0.0,0.0,0.0,0.0,0.0,0.0,0.0,0.0,0.0,0.0,0.0,0.0,0.0,0.0,0.0,0.0,0.0,0.0,0.0,0.0,0.0,0.0,0.0,0.0,0.0,0.0,0.0,0.0,0.0,0.0,0.0,0.0,0.0,0.0,0.0,0.0,0.0,0.0,0.0,0.0,0.0,0.0,0.0,0.0,0.0,0.0,0.0,0.0,0.0,0.0,0.0,0.0,0.0,0.0,0.0,0.0,0.0,0.0,0.0,0.0,0.0,0.0,0.0,0.0,0.0,0.0,0.0,0.0,0.0,0.0,0.0,0.0,0.0,0.0,0.0,0.0,0.0,0.0,0.0,0.0,0.0,0.0,0.0,0.0,0.0,0.0,0.0,0.0,0.0,0.0,0.0,0.0,0.0,0.0,0.0,0.0,0.0,0.0,0.0,0.0,0.0,0.0,0.0,0.0,0.0,0.0,0.0,0.0,0.0,0.0,0.0,0.0,0.0,0.0,0.0,0.0,0.0,0.0,0.0,0.0,0.0,0.0,0.0,0.0,0.0,0.0,0.0,0.0,0.0,0.0,0.0,0.0,0.0,0.0,0.0,0.0,0.0,0.0,0.0,0.0,0.0,0.0,0.0,0.0,0.0,0.0,0.0,0.0,0.0,0.0,0.0,0.0,0.0,0.0,0.0,0.0,0.0,0.0,0.0,0.0,0.0,0.0,0.0,0.0,0.0,0.0,0.0,0.0,0.0,0.0,0.0,0.0,0.0,0.0,0.0,0.0,0.0,0.0,0.0,0.0,0.0,0.0,0.0,0.0,0.0,0.0,0.0,0.0,0.0,0.0,0.0,0.0,0.0,0.0,0.0,0.0,0.0,0.0,0.0,0.0,0.0,0.0,0.0,0.0,0.0,0.0,0.0,0.0,0.0,0.0,0.0,0.0,0.0,0.0,0.0,0.0,0.0,0.0,0.0,0.0,0.0,0.0,0.0,0.0,0.0,0.0,0.0,0.0,0.0,0.0,0.0,0.0,0.0,0.0,0.0,0.0,0.0,0.0,0.0,0.0,0.0,0.0,0.0,0.0,0.0,0.0,0.0,0.0,0.0,0.0,0.0,0.0,0.0,0.0,0.0,0.0,0.0,0.0,0.0,0.0,0.0,0.0,0.0,0.0,0.0,0.0,0.0,0.0,0.0,0.0,0.0,0.0,0.0,0.0,0.0,0.0,0.0,0.0,0.0,0.0,0.0,0.0,0.0,0.0,0.0,0.0,0.0,0.0,0.0,0.0,0.0,0.0,0.0,0.0,0.0,0.0,0.0,0.0,0.0,0.0,0.0,0.0,0.0,0.0,0.0,0.0,0.0,0.0,0.0,0.0,0.0,0.0,0.0,0.0,0.0,0.0,0.0,0.0,0.0,0.0,0.0,0.0,0.0,0.0,0.0,0.0,0.0,0.0,0.0,0.0,0.0,0.0,0.0,0.0,0.0,0.0,0.0,0.0,0.0,0.0,0.0,0.0,0.0,0.0,0.0,0.0,0.0,0.0,0.0,0.0,0.0,0.0,0.0,0.0,0.0,0.0,0.0,0.0,0.0,0.0,0.0,0.0,0.0,0.0,0.0,0.0,0.0,0.0,0.0,0.0,0.0,0.0,0.0,0.0,0.0,0.0,0.0,0.0,0.0,0.0,0.0,0.0,0.0,0.0,0.0,0.0,0.0,0.0,0.0,0.0,0.0,0.0,0.0,0.0,0.0,0.0,0.0,0.0,0.0,0.0,0.0,0.0,0.0,0.0,0.0,0.0,0.0,0.0,0.0,0.0,0.0,0.0,0.0,0.0,0.0,0.0,0.0,0.0,0.0,0.0,0.0,0.0,0.0,0.0,0.0,0.0,0.0,0.0,0.0,0.0,0.0,0.0,0.0,0.0,0.0,0.0,0.0,0.0,0.0,0.0,0.0,0.0,0.0,0.0,0.0,0.0,0.0,0.0,0.0,0.0,0.0,0.0,0.0,0.0,0.0,0.0,0.0,0.0,0.0,0.0,0.0,0.0,0.0,0.0,0.0,0.0,0.0,0.0,0.0,0.0,0.0,0.0,0.0,0.0,0.0,0.0,0.0,0.0,0.0,0.0,0.0,0.0,0.0,0.0,0.0,0.0,0.0,0.0,0.0,0.0,0.0,0.0,0.0,0.0,0.0,0.0,0.0,0.0,0.0,0.0,0.0,0.0,0.0,0.0,0.0,0.0,0.0,0.0,0.0,0.0,0.0,0.0,0.0,0.0,0.0,0.0,0.0,0.0,0.0,0.0,0.0,0.0,0.0,0.0,0.0,0.0,0.0,0.0,0.0,0.0,0.0,0.0,0.0,0.0,0.0,0.0,0.0,0.0,0.0,0.0,0.0,0.0,0.0,0.0,0.0,0.0,0.0,0.0,1.1227,0.9829,0.0,0.0,0.0,0.0,0.0,0.0,0.0,0.0,0.0,0.0,0.0,0.0,0.0,0.0,0.0,0.0,0.0,0.0,0.0,0.0,0.0,0.0,0.0,0.0,0.0,0.0,0.0,0.0,0.0,0.0,0.0,0.0,0.0,0.0,0.0,0.0,0.0,0.0,0.116,0.0535,-0.0089,-0.1341,-0.313,-0.5371,0.0,0.0,0.0,0.0,0.0,0.0,0.0,0.0,0.0,0.0,0.0,0.0,0.0,0.0,0.0,0.0,0.0,0.0,0.0,0.0,0.0,0.0,0.0,0.0,0.0,0.0,0.0,0.0,0.0,0.0,0.0,0.0,0.0,0.0,0.0,0.0,0.0,0.0,0.0,0.0,0.0,0.0,0.0,0.0,0.0,0.0,0.0,0.0,0.0,0.0,0.0,0.0,0.0,0.0,0.0,0.0,0.0,0.0,0.0,0.0,0.0,0.0,0.0,0.0,0.0,0.0,0.0,0.0,0.0,0.0,1.2205,1.1358,0.0,0.0,0.0,0.0,0.0,0.0,0.0,0.0,0.0,0.0,0.0,0.0,0.0,0.0,0.0,0.0,0.0,0.0,0.0,0.0,0.0,0.0,0.0,0.0,0.0,0.0,0.0,0.0,0.0,0.0,0.0,0.0,0.0,0.0,0.0,0.0,0.0,0.0,0.2486,0.2224,0.2047,0.0627,-0.1075,-0.2856,-0.0891,0.0,0.0,0.0,0.0,0.0,0.0,0.0,0.0,0.0,0.0,0.0,0.0,0.0,0.0,0.0,0.0,0.0,0.0,0.0,0.0,0.0,0.0,0.0,0.0,0.0,0.0,0.0,0.0,0.0,0.0,0.0,0.0,0.0,0.0,0.0,0.0,0.0,0.0,0.0,0.0,0.0,0.0,0.0,0.0,0.0,0.0,0.0,0.0,0.0,0.0,0.0,0.0,0.0,0.0,0.0,0.0,0.0,0.0,0.0,0.0,0.0,0.0,0.0,1.2913,1.2994,1.2994,1.2994,1.3496,1.4288,1.3099,1.3108,1.368,1.1356,0.0,0.0,0.0,0.0,0.0,0.0,0.0,0.0,0.0,0.0,0.0,0.0,0.0,0.0,0.0,0.0,0.0,0.0,0.0,0.0,0.0,0.0,0.0,0.0,0.0,0.0,0.0,0.0,0.0,0.0,0.0,0.0,0.0,0.6096,0.6091,0.608,0.5162,0.4169,0.3045,0.0975,-0.0179,-0.0447,-0.0179,-0.0358,-0.0894,0.0,0.0,0.0,0.0,0.0,0.0,0.0,0.0,0.0,0.0,0.0,0.0,0.0,0.0,0.0,0.0,0.0,0.0,0.0,0.0,0.0,0.0,0.0,0.0,0.0,0.0,0.0,0.0,0.0,0.0,0.0,0.0,0.0,0.0,0.0,0.0,0.0,0.0,0.0,0.0,0.0,1.9222,1.9222,0.0,0.0,0.0,0.0,0.0,0.0,0.0,0.0,0.0,0.0,0.0,0.0,0.0,1.2191,1.2402,1.3423,1.3922,1.3916,1.488,1.5358,1.5358,1.5358,1.5434,1.5593,1.5356,0.0,1.3776,1.2231,0.0,0.0,0.0,0.0,0.0,0.0,0.0,0.0,0.0,0.0,0.0,0.0,0.0,0.0,0.0,0.0,0.0,0.0,0.0,0.0,0.0,0.0,0.0,0.0,0.0,0.0,0.0,0.0,0.0,0.0,0.0,0.0,0.8199,0.7005,0.6124,0.5696,0.4564,0.4077,0.4168,0.3131,0.1757,0.0,0.0,0.0,0.0,0.0,0.0,0.0,0.0,0.0,0.0,0.0,0.0,0.0,0.0,0.0,0.0,0.0,0.0,0.0,0.0,0.0,0.0,0.0,0.0,0.0,0.0,0.0,0.0,0.0,0.0,0.0,0.0,0.0,0.0,0.0,0.0,0.0,0.0,0.0,0.0,0.0,0.0,0.0,0.0,1.9131,1.9222,1.8596,1.8048,1.7412,0.0,0.0,0.0,0.0,0.0,0.0,0.0,0.0,0.0,1.316,1.3166,1.3622,1.4317,1.4801,1.5036,1.5036,1.5593,1.5832,1.5832,1.5832,1.5832,1.5832,1.5832,1.5439,1.4854,1.359,1.2231,1.0974,0.0,0.0,0.0,0.0,0.8038,0.8038,0.0,0.0,0.0,0.0,0.0,0.0,0.0,0.0,0.0,0.0,0.0,0.0,0.0,0.0,0.0,1.5553,0.0,0.0,0.0,0.0,0.0,0.0,0.0,0.0,0.9451,0.756,0.6281,0.5674,0.455,0.4398,0.5317,0.5278,0.3781,0.1117,0.0351,0.0,0.0,0.0,0.0,-0.0445,0.0,0.0,0.0,0.0,0.0,0.0,0.0,0.0,0.0,0.0,0.0,0.0,0.0,0.0,0.0,0.0,0.0,0.0,0.0,0.0,0.0,0.0,0.0,0.0,0.0,0.0,0.0,0.0,0.0,0.0,0.0,0.0,0.0,0.0,0.0,0.0,0.0,2.0223,1.9951,1.8772,1.8588,1.8041,0.0,0.0,0.0,0.0,0.0,0.0,1.2915,1.2915,1.3397,1.4364,1.4364,1.4848,1.5825,1.5832,1.5832,1.5832,1.5832,1.5832,1.5832,1.5832,1.5635,1.5337,1.5337,1.5146,1.4758,1.4172,1.3102,1.175,1.0485,0.9217,0.8038,0.8038,0.8038,0.8038,0.0,0.0,0.0,0.0,0.0,0.0,0.0,0.0,0.0,0.0,0.0,0.0,0.0,0.0,1.7368,1.645,1.5536,1.4204,0.0,0.0,0.0,0.0,0.0,0.9301,0.9311,0.825,0.7723,0.7654,0.6727,0.6321,0.6408,0.6496,0.5725,0.4122,0.1288,0.0,0.0,0.0,0.0,-0.0445,-0.5191,0.0,0.0,0.0,0.0,0.0,0.0,0.0,0.0,0.0,0.0,0.0,0.0,0.0,0.0,0.0,0.0,0.0,0.0,0.0,0.0,0.0,0.0,0.0,0.0,0.0,0.0,0.0,0.0,0.0,0.0,0.0,0.0,0.0,0.0,0.0,0.0,0.0,0.0,2.1293,2.1114,0.0,0.0,0.0,0.0,1.5825,1.573,1.5635,1.5635,1.5635,1.5635,1.573,1.573,1.573,1.5832,1.5832,1.5832,1.5832,1.5832,1.5832,1.5832,1.5832,1.514,1.3974,1.3974,1.3295,1.2237,1.3392,1.3102,1.175,1.0485,0.9217,0.8038,0.8038,0.8038,0.8038,0.0,0.0,0.0,0.0,0.0,0.0,0.0,0.0,0.0,0.0,0.0,0.0,0.0,1.9629,1.9291,1.8362,1.7464,1.6435,1.5114,0.0,0.0,0.0,0.0,1.0944,1.0265,0.9291,0.8466,0.7783,0.685,0.6335,0.6339,0.6491,0.6244,0.5522,0.3275,0.1461,0.0,0.0,0.0,-0.0445,-0.5191,-0.7081,0.0,0.0,0.0,0.0,0.0,0.0,0.0,0.0,0.0,0.0,0.0,0.0,0.0,0.0,0.0,0.0,0.0,0.0,0.0,0.0,0.0,0.0,0.0,0.0,0.0,0.0,0.0,0.0,0.0,0.0,0.0,0.0,0.0,0.0,0.0,0.0,0.0,2.0395,2.0845,0.0,1.9039,1.8141,1.7505,1.7037,1.6292,1.5832,1.5832,1.5832,1.5832,1.5832,1.5832,1.5832,1.5832,1.5832,1.5832,1.5832,1.5832,1.5832,1.5832,1.5832,1.514,1.3878,1.3878,1.3102,1.1945,1.2431,1.1848,1.0583,1.0194,0.9217,0.8038,0.8038,0.8038,0.8038,0.0,0.0,0.0,0.0,0.0,0.0,0.0,0.0,0.0,0.0,0.0,2.0707,2.0974,2.1049,2.0782,2.0204,1.9038,1.8026,1.7083,0.0,0.0,0.0,1.331,1.2432,1.1822,1.0484,0.9518,0.8836,0.7783,0.7176,0.6799,0.698,0.681,0.6284,0.5015,0.2844,0.0,0.0,0.0,-0.0445,-0.5188,-0.7078,-0.7129,0.0,0.0,0.0,0.0,0.0,0.0,0.0,0.0,0.0,0.0,0.0,0.0,0.0,0.0,0.0,0.0,0.0,0.0,0.0,0.0,0.0,0.0,0.0,0.0,0.0,0.0,0.0,0.0,0.0,0.0,0.0,0.0,0.0,0.0,2.2833,2.2315,2.0305,2.1212,2.1302,1.967,1.9131,1.8596,1.7777,1.6943,1.6292,1.5825,1.5832,1.5832,1.5832,1.5832,1.5832,1.5832,1.5832,1.5832,1.5832,1.5832,1.5832,1.5832,1.5832,1.514,1.3878,1.3392,1.2522,1.1268,1.0779,1.0096,0.941,0.9801,0.9217,0.8038,0.8038,0.8038,0.8038,0.0,0.0,0.0,0.0,0.0,0.0,0.0,0.0,0.0,0.0,2.2125,2.2823,2.2002,2.1939,2.1939,2.1877,2.0333,1.9003,1.7996,1.6244,0.0,0.0,0.0,0.0,1.3745,1.1822,1.0858,1.0858,0.982,0.8765,0.7859,0.8183,0.7577,0.6285,0.6278,0.3974,0.0,0.0,0.0,-0.0445,-0.5181,-0.7071,-0.7139,0.0,0.0,0.0,0.0,0.0,0.0,0.0,0.0,0.0,0.0,0.0,0.0,0.0,0.0,0.0,0.0,0.0,0.0,0.0,0.0,0.0,0.0,0.0,0.0,0.0,0.0,0.0,0.0,0.0,0.0,0.0,0.0,0.0,2.4787,2.38,2.2677,2.148,2.2403,2.2227,1.9861,2.0666,2.0305,1.7956,1.7692,1.7131,1.5825,1.5832,1.5832,1.5832,1.5832,1.5832,1.5832,1.5832,1.5832,1.5832,1.5832,1.5832,1.5832,1.5832,1.514,1.3872,1.2528,1.117,0.9903,0.8528,0.8038,0.8137,0.941,0.9118,0.8038,0.8038,0.8038,0.8038,0.0,0.0,0.0,0.0,0.0,0.0,0.0,0.0,0.0,0.0,2.3009,2.2942,2.2811,2.328,2.3148,2.2002,2.1491,2.0515,1.9003,0.0,0.0,0.0,0.0,0.0,1.4807,1.2823,1.179,1.179,1.011,0.9145,0.8917,0.9003,0.8075,0.6307,0.6274,0.3963,0.0,0.0,0.0,-0.0435,-0.5154,-0.7078,-0.7139,0.0,0.0,0.0,0.0,0.0,0.0,0.0,0.0,0.0,0.0,0.0,0.0,0.0,0.0,0.0,0.0,0.0,0.0,0.0,0.0,0.0,0.0,0.0,0.0,0.0,0.0,0.0,0.0,0.0,0.0,0.0,2.6058,2.5714,2.4957,2.38,2.296,2.2677,2.2862,2.2862,2.2138,2.1578,2.0666,1.9131,1.8234,1.7131,1.5825,1.5832,1.5832,1.5832,1.5832,1.5832,1.5832,1.5832,1.5832,1.5832,1.5832,1.5832,1.5832,1.5832,1.514,1.3872,1.2528,1.117,0.9903,0.8528,0.8038,0.8038,0.8432,0.8333,0.8038,0.8038,0.8038,0.8038,0.0,0.0,0.0,0.0,0.0,0.0,0.0,0.0,0.0,0.0,2.4115,2.3914,2.406,2.4509,2.4266,2.3027,2.2579,2.183,2.0462,0.0,0.0,0.0,0.0,1.6314,1.6314,1.4466,1.3469,1.3469,1.1877,1.0926,1.0548,1.0524,0.9306,0.7076,0.6524,0.4932,0.2629,0.2661,0.1641,-0.042,-0.5152,-0.7122,-0.7139,-0.7139,-0.7139,-0.7139,-0.7139,-0.7058,-0.7068,-0.7081,0.0,0.0,0.0,0.0,0.0,0.0,0.0,0.0,0.0,0.0,0.0,0.0,0.0,0.0,0.0,0.0,0.0,0.0,0.0,0.0,0.0,0.0,0.0,0.0,2.7209,2.6789,2.563,2.4553,2.3627,2.3135,2.3135,2.3135,2.3135,2.2492,2.1302,1.9588,1.8864,1.7677,1.592,1.5832,1.5832,1.5832,1.5832,1.5832,1.5832,1.5832,1.5832,1.5832,1.5832,1.5832,1.5832,1.5832,1.5439,1.4561,1.2721,1.1458,1.0681,0.8722,0.8038,0.8038,0.0,0.0,0.0,0.0,0.8038,0.8038,0.0,0.0,0.0,0.0,0.0,0.0,0.0,0.0,0.0,0.0,0.0,2.5536,2.5592,2.5661,2.5313,2.4465,2.3631,2.2784,0.0,0.0,0.0,1.9413,1.8645,1.8131,1.8063,1.6383,1.5438,1.5376,1.4378,1.3426,1.2517,1.2573,1.1241,0.8708,0.7279,0.6524,0.6281,0.6284,0.3887,-0.0405,-0.4598,-0.6586,-0.7122,-0.7139,-0.7058,-0.7143,-0.7058,-0.7071,-0.6996,-0.6453,0.0,0.0,0.0,0.0,0.0,0.0,0.0,0.0,0.0,0.0,0.0,0.0,0.0,0.0,0.0,0.0,0.0,0.0,0.0,0.0,0.0,0.0,0.0,0.0,2.8176,2.7855,2.6648,2.563,2.4542,2.3212,2.3135,2.3135,2.3135,2.3135,2.2129,1.967,1.9497,1.8395,1.592,1.5832,0.0,0.0,0.0,1.5832,1.5832,1.5832,1.5832,1.5832,1.5832,1.5832,1.5832,1.5832,1.573,1.5439,1.3011,1.1848,1.1463,0.9019,0.8038,0.8038,0.8038,0.8038,0.8038,0.8038,0.8038,0.8038,0.0,0.0,0.0,0.0,0.0,0.0,0.0,0.0,0.0,2.8307,2.8054,2.7584,2.709,2.7064,2.6551,2.5272,2.4483,2.3433,0.0,0.0,2.0515,2.0364,2.0171,1.9727,1.9013,1.7968,1.7014,1.6358,1.5376,1.4799,1.4641,1.4601,1.3506,1.1421,0.9559,0.7785,0.6287,0.6335,0.3874,-0.0081,-0.0999,-0.3668,-0.709,-0.7132,-0.7088,-0.7081,-0.7088,-0.7094,-0.6551,-0.2681,-0.0803,0.0801,0.557,0.7108,0.0,0.0,0.0,0.0,0.0,0.0,0.0,0.0,0.0,0.0,0.0,0.0,0.0,0.0,0.0,0.0,0.0,0.0,0.0,2.8072,2.8858,2.8791,2.6801,2.6307,2.5389,2.3299,2.3135,2.3135,2.3135,2.3135,2.2129,1.967,1.9497,1.8395,1.592,1.5832,1.5832,1.5832,1.5832,1.5832,1.5832,1.5832,1.5832,1.5832,1.5832,0.0,1.5832,1.5832,1.5242,1.4166,1.2624,1.1361,1.019,0.8627,0.8038,0.8038,0.8038,0.8038,0.8038,0.8038,0.8038,0.8038,0.0,0.0,0.0,0.0,0.0,0.0,0.0,0.0,0.0,0.0,2.9569,2.9484,2.8576,2.8531,2.798,2.652,2.5739,0.0,0.0,2.3528,2.3149,2.2494,2.2053,2.1432,2.0655,1.9705,1.9048,1.8572,1.7649,1.6968,1.6513,1.6018,1.4545,1.219,1.1211,0.9099,0.6331,0.6329,0.5107,0.2977,0.0827,-0.144,-0.3813,-0.6228,-0.5641,-0.3565,-0.3568,-0.3573,-0.3218,-0.0803,0.0,0.0801,0.556,0.7091,0.7068,0.0,0.0,0.0,0.0,0.0,0.0,0.0,0.0,0.0,0.0,0.0,0.0,0.0,0.0,2.4779,2.5037,0.0,2.8047,2.8809,2.9443,2.904,2.6812,2.6483,2.5641,2.3387,2.3135,2.3135,2.3135,2.3135,2.2129,1.967,1.9497,1.8395,1.592,1.5832,1.5832,1.5832,1.5832,1.5832,1.5832,1.5832,1.5832,1.5832,1.5832,1.5832,1.5737,1.514,1.4459,1.3776,1.1843,1.0583,0.9903,0.8528,0.8038,0.8038,0.8038,0.8038,0.8038,0.8038,0.8038,0.8038,0.0,0.0,0.0,0.0,0.0,0.0,0.0,0.0,0.0,0.0,3.1097,3.1373,3.0411,3.0089,2.9335,0.0,0.0,0.0,0.0,2.6218,2.5977,2.4925,2.4178,2.3443,2.2698,2.1747,2.1146,2.1009,1.9954,1.9107,1.8398,1.762,1.5791,1.3304,1.3408,1.1197,0.7499,0.7493,0.7042,0.6023,0.2727,0.0848,-0.0433,-0.4257,-0.3301,0.0,0.0,0.0,0.0,0.0,0.0623,0.2047,0.5905,0.7071,0.7139,0.7139,0.7228,0.0,0.0,0.0,0.0,0.0,0.0,0.0,0.0,2.073,2.1811,2.1001,2.2928,2.4903,2.5401,2.683,2.8358,2.9639,2.9792,2.904,2.6812,2.6483,2.5641,2.3387,2.3135,2.3135,2.3135,2.3135,2.2129,1.967,1.9497,1.8395,1.592,1.5832,1.5832,1.5832,1.5832,1.5832,1.5832,1.5832,1.5832,1.5832,1.5832,1.5832,1.573,1.4459,1.3776,1.3392,1.0774,0.9608,0.9509,0.8432,0.8038,0.8038,0.8038,0.8038,0.8038,0.8038,0.8038,0.8038,0.0,0.0,0.0,0.0,0.0,0.0,0.0,0.0,0.0,0.0,0.0,0.0,0.0,0.0,0.0,0.0,0.0,0.0,2.7015,2.7051,2.7051,2.6899,2.6783,2.6323,2.5501,2.4182,2.3134,2.2377,2.1077,2.0375,2.0311,2.0171,1.9128,1.733,1.7331,1.5223,1.1618,1.1616,0.9595,0.627,0.6289,0.3735,-0.0087,-0.0618,-0.0445,0.0,0.0,0.0,0.0,0.0,0.285,0.6358,0.6903,0.7071,0.7139,0.7139,0.7841,0.8973,1.0265,1.2893,1.5598,1.7009,1.8149,1.9283,0.0,2.1211,2.1952,2.1886,2.4231,2.6368,2.6439,2.8154,2.9639,2.9779,2.9792,2.904,2.6812,2.6483,2.5641,2.3387,2.3135,2.3135,2.3135,2.3135,2.2129,1.967,1.9497,1.8395,1.592,1.5832,1.5832,1.5832,1.5832,1.5832,1.5832,1.5832,1.5832,1.5832,1.5832,1.5832,1.573,1.4459,1.3295,1.1945,0.9312,0.8233,0.8237,0.8038,0.8038,0.8038,0.8038,0.8038,0.8038,0.8038,0.8038,0.8038,0.0,0.0,0.0,0.0,0.0,0.0,0.0,0.0,0.0,0.0,0.0,0.0,0.0,0.0,0.0,0.0,0.0,0.0,2.891,2.9859,2.9897,2.8653,2.8325,2.7828,2.7003,2.625,2.5629,2.5306,2.4696,2.4023,2.314,2.314,2.1874,1.9458,1.8472,1.8195,1.8468,1.6473,1.1993,0.6369,0.6908,0.5902,0.4092,0.413,0.4142,0.4144,0.4101,0.4113,0.0,0.417,0.5414,0.7302,0.8711,0.9148,0.9139,0.9139,0.9488,1.0428,1.2849,1.5051,1.709,1.8789,1.9599,2.0079,2.0489,2.1745,2.2702,2.2103,2.4889,2.7311,2.6677,2.8369,2.9792,2.9792,2.9792,2.904,2.6812,2.6483,2.5641,2.3387,2.3135,2.3135,2.3135,2.3135,2.2129,1.967,1.9497,1.8395,1.592,1.5832,1.5832,1.5832,1.5832,1.5832,1.5832,1.5832,1.5832,1.5832,1.5832,1.5439,1.4657,1.3301,1.1648,0.9608,0.8432,0.8038,0.8038,0.8038,0.8038,0.8038,0.8038,0.8038,0.8038,0.8038,0.8038,0.8038,0.0,0.0,0.0,0.0,0.0,0.0,0.0,0.0,0.0,0.0,0.0,0.0,0.0,0.0,0.0,0.0,0.0,0.0,0.0,3.2669,3.2599,3.1065,3.0425,2.9859,2.9346,2.865,2.8345,2.8345,2.7951,2.7206,2.6194,2.6194,2.4651,2.1856,2.018,2.0234,2.1561,1.9029,1.4268,0.8516,0.8846,0.9038,0.8996,0.9004,0.9,0.8837,0.7548,0.7126,0.7088,0.7125,0.7922,0.9447,1.174,1.2009,1.1477,1.1107,1.1278,1.2207,1.527,1.6879,1.8141,1.9756,2.0401,2.0566,2.0566,2.1897,2.285,2.2178,2.4826,2.7087,2.6677,2.8114,2.9443,2.9792,2.9792,2.904,2.6812,2.6483,2.5641,2.3387,2.3135,2.3135,2.3135,2.3135,2.2129,1.967,1.9497,1.8395,1.592,1.5832,1.5832,1.5832,1.5832,1.5832,1.5832,1.5832,1.5832,1.5832,1.5832,1.5146,1.3878,1.2134,1.0092,0.8038,0.8038,0.8038,0.8038,0.8038,0.8038,0.8038,0.8038,0.8038,0.8038,0.8038,0.8038,0.8038,0.0,0.0,0.0,0.0,0.0,0.0,0.0,0.0,0.0,0.0,0.0,0.0,0.0,0.0,3.5937,3.5782,3.5263,0.0,0.0,3.4972,3.4523,3.444,3.3625,3.3149,3.3131,3.1852,3.1164,3.1164,2.9865,2.9201,2.9164,2.9164,2.7753,2.5197,2.3655,2.1176,1.8142,1.8051,1.6413,1.3881,1.3917,1.3849,1.3888,1.3888,1.3888,1.3284,0.8742,0.7125,0.7116,0.7112,1.0134,1.4298,1.6445,1.5548,1.3561,1.2517,1.3018,1.44,1.6667,1.8069,1.8957,1.9036,1.9835,2.0566,2.0566,2.1375,2.2038,2.2038,2.3613,2.5381,2.6439,2.746,2.8505,2.9624,2.9792,2.904,2.6812,2.6483,2.5641,2.3387,2.3135,2.3135,2.3135,2.3135,2.2129,1.967,1.9497,1.8395,1.592,1.5832,1.5832,1.5832,1.5832,1.5832,1.5832,1.5832,1.5832,1.5832,1.5832,1.5146,1.3776,1.1258,0.9312,0.8038,0.8038,0.8038,0.8038,0.8038,0.8038,0.8038,0.8038,0.8038,0.8038,0.8038,0.8038,0.8038,0.0,0.0,0.0,0.0,0.0,0.0,0.0,0.0,0.0,0.0,0.0,0.0,0.0,0.0,0.0,0.0,3.7608,3.74,3.6498,3.6922,3.6934,3.6357,3.5748,3.5177,3.4634,3.388,3.3204,3.2618,3.2251,3.188,3.1476,3.102,3.0321,2.935,2.709,2.4331,2.1495,2.3011,2.3151,2.2109,1.9447,1.8442,1.8407,1.8391,1.8399,1.8245,0.0,1.4172,1.2188,1.507,1.7119,1.807,1.5851,1.7544,1.9776,1.7299,1.6839,1.7523,1.8928,2.0101,2.109,2.1834,2.1725,2.1669,2.2339,2.2253,2.2403,2.3745,2.4276,2.488,2.5855,2.6947,2.7831,2.8244,2.913,2.904,2.6812,2.6483,2.5641,2.3387,2.3135,2.3135,2.3135,2.3135,2.2129,1.967,1.9497,1.8395,1.592,1.5832,1.5832,1.5832,1.5832,1.5832,1.5832,1.5832,1.5832,1.5737,1.4082,1.2528,1.1258,0.9509,0.8432,0.8038,0.8038,0.8038,0.8038,0.8038,0.8038,0.8038,0.8038,0.8038,0.8038,0.8038,0.8038,0.8038,0.0,0.0,0.0,0.0,0.0,0.0,0.0,0.0,0.0,0.0,0.0,0.0,0.0,0.0,0.0,0.0,0.0,3.8665,3.7295,0.0,3.7847,3.7083,3.664,3.611,3.5429,3.4832,3.4251,3.3698,3.3969,3.3803,3.3238,3.3325,3.3569,3.3837,3.1485,3.0104,2.9654,3.1147,3.1756,3.1227,2.5142,2.2732,2.2575,2.1155,2.1448,0.0,2.1084,1.9705,1.8727,2.0108,2.0598,2.0389,1.8939,2.0958,2.3406,2.1115,2.0198,2.0111,2.1253,2.2018,2.2615,2.3356,2.2999,2.2702,2.3368,2.3294,2.3441,2.4707,2.4595,2.4555,2.5595,2.6382,2.6854,2.6854,2.818,2.845,2.6213,2.588,2.5221,2.3299,2.3135,2.3135,2.3135,2.3135,2.2129,1.967,1.9497,1.8395,1.592,1.5832,1.5832,1.5832,1.5832,1.5832,1.5832,1.5832,1.5832,1.5737,1.3113,1.1458,1.0583,0.8821,0.8038,0.8038,0.8038,0.8038,0.8038,0.8038,0.8038,0.8038,0.8038,0.8038,0.8038,0.8038,0.8038,0.8038,0.0,0.0,0.0,0.0,0.0,0.0,0.0,0.0,0.0,0.0,0.0,0.0,0.0,0.0,0.0,0.0,0.0,0.0,3.8166,0.0,0.0,3.6853,3.6474,3.6075,3.563,3.4821,3.4412,3.4408,3.4873,3.4854,3.4389,3.579,3.7082,3.8098,3.6414,3.7672,4.1058,4.096,4.0827,3.9799,2.9334,2.5132,2.4812,2.2003,2.3244,2.6009,2.2242,2.3309,2.5934,2.1903,2.0868,2.1787,2.5474,2.5716,2.4574,2.3858,2.2911,2.2339,2.3334,2.3588,2.3661,2.3661,2.3588,2.3588,2.3661,2.4264,2.4862,2.5004,2.4499,2.4371,2.5401,2.5724,2.5779,2.5688,2.7012,2.7348,2.5115,2.4787,2.4382,2.3222,2.3135,2.3135,2.3135,2.3135,2.2129,1.967,1.9497,1.8395,1.592,1.5832,1.5832,1.5832,1.5832,1.5832,1.5832,1.5832,1.573,1.5534,1.3113,1.1848,1.1653,0.9118,0.8038,0.8038,0.8038,0.8038,0.8038,0.8038,0.8038,0.8038,0.8038,0.8038,0.8038,0.8038,0.8038,0.8038,0.0,0.0,0.0,0.0,0.0,0.0,0.0,0.0,0.0,0.0,0.0,0.0,0.0,0.0,0.0,0.0,0.0,0.0,3.8206,3.7622,3.7221,3.7024,3.6424,3.5981,0.0,0.0,0.0,3.4458,3.4156,3.3927,3.3845,3.5291,3.6147,3.6479,3.7467,3.8436,3.9255,3.7697,3.5848,3.2389,0.0,0.6752,0.8089,2.0345,2.5613,2.6342,2.5339,2.5636,2.5912,2.1964,2.4217,2.8663,2.8447,2.7735,2.6863,2.5901,2.5411,2.5131,2.4743,2.5134,2.5721,2.5721,2.5146,2.4779,2.5569,2.4169,2.322,2.4707,2.3108,2.1855,2.28,2.4282,2.5037,2.4223,2.636,2.7348,2.5115,2.4787,2.4382,2.3222,2.3135,2.3135,2.3135,2.3135,2.2129,1.967,1.9497,1.8395,1.592,1.5832,1.5832,1.5832,1.5832,1.5832,1.5832,1.5832,1.4854,1.2915,1.2237,1.0872,0.9019,0.8333,0.8038,0.8038,0.8038,0.8038,0.8038,0.8038,0.8038,0.8038,0.8038,0.8038,0.8038,0.8038,0.8038,0.8038,0.0,0.0,0.0,0.0,0.0,0.0,0.0,0.0,0.0,0.0,0.0,0.0,0.0,0.0,0.0,0.0,0.0,0.0,0.0,3.6631,3.6304,3.6033,3.5497,3.5108,0.0,0.0,0.0,0.0,0.0,0.0,3.2723,3.4588,3.5583,3.5719,3.5593,3.5525,3.5239,3.0847,0.0,0.0,0.0,0.0,1.9169,2.9164,3.0261,2.6496,2.6531,2.743,2.8545,2.7495,2.989,3.2943,3.0684,2.9667,2.9099,2.7867,2.718,2.6803,2.6296,2.6346,2.6533,2.6533,2.6094,2.5804,2.6383,2.5193,2.4169,2.4862,2.3305,2.2048,2.2553,2.4028,2.4937,2.4287,2.5971,2.6778,2.5041,2.4372,2.38,2.3135,2.3135,2.3135,2.3135,2.3135,2.2129,1.967,1.9497,1.8395,1.592,1.5832,1.5832,1.5832,1.5832,1.5832,1.5832,1.5242,1.4268,1.2716,1.1653,1.0293,0.8825,0.8233,0.8038,0.8038,0.8038,0.8038,0.8038,0.8038,0.8038,0.8038,0.8038,0.8038,0.8038,0.8038,0.8038,0.8038,0.0,0.0,0.0,0.0,0.0,0.0,0.0,0.0,0.0,0.0,0.0,0.0,0.0,0.0,0.0,0.0,0.0,0.0,0.0,0.0,0.0,0.0,3.4186,3.3875,3.3495,3.2752,3.2149,3.1661,3.2547,3.2482,0.0,0.0,0.0,0.0,0.0,0.0,0.0,0.0,0.0,0.0,0.0,0.0,4.1194,0.0,0.0,2.6498,2.6529,2.8882,3.2348,3.4461,3.5132,3.4675,3.2315,3.153,3.1145,2.9827,2.887,2.8244,2.7959,2.7391,2.6879,2.6589,2.6589,2.6658,2.6521,2.6383,2.6025,2.5004,2.3963,2.3294,2.3147,2.4104,2.4848,2.4613,2.551,2.5891,2.4702,2.3714,2.3135,2.3135,2.3135,2.3135,2.3135,2.3135,2.2129,1.967,1.9497,1.8395,1.592,1.5832,1.5832,1.5832,1.5832,1.573,1.554,1.4459,1.368,1.3392,1.1063,0.9899,0.9706,0.8531,0.8038,0.8038,0.8038,0.8038,0.8038,0.8038,0.8038,0.8038,0.8038,0.8038,0.8038,0.8038,0.8038,0.8038,0.0,0.0,0.0,0.0,0.0,0.0,0.0,0.0,0.0,0.0,3.7598,3.8414,0.0,0.0,0.0,0.0,0.0,0.0,0.0,0.0,0.0,0.0,0.0,0.0,3.2803,3.2053,3.1931,3.2391,3.1995,3.1678,0.0,0.0,0.0,0.0,0.0,0.0,0.0,0.0,0.0,0.0,0.0,1.656,0.0,0.0,0.0,0.0,2.6505,3.0137,3.471,3.3514,3.2716,3.236,3.3419,3.3135,3.2272,3.182,3.1632,3.1108,2.9108,2.8997,2.8962,2.7002,2.6973,2.7284,2.6658,2.5873,2.4992,2.3963,2.2925,2.2038,2.1231,2.2569,2.3514,2.2594,2.3961,2.4713,2.3551,2.3222,2.3135,2.3135,2.3135,2.3135,2.3135,2.3135,2.2129,1.967,1.9497,1.8395,1.592,1.5832,1.5832,1.5832,1.5832,1.5337,1.4262,1.3974,1.2813,1.0676,1.0194,0.941,0.8333,0.8137,0.8038,0.8038,0.8038,0.8038,0.8038,0.8038,0.8038,0.8038,0.8038,0.8038,0.8038,0.8038,0.8038,0.8038,0.0,0.0,0.0,0.0,0.0,0.0,0.0,0.0,3.5532,3.3679,3.4228,3.5277,3.6492,3.7404,0.0,0.0,0.0,0.0,0.0,0.0,0.0,0.0,0.0,0.0,3.2013,3.2155,3.216,3.2002,0.0,3.0817,2.9532,3.0862,3.1496,3.1171,2.3886,1.9332,1.7366,1.9648,1.2609,0.0,0.0,1.6517,0.0,0.0,0.0,0.0,2.6505,2.8732,3.1739,3.1827,3.1439,3.1276,3.3693,3.4071,3.3463,3.2678,3.2385,3.1925,3.0096,2.9779,2.9675,2.8141,2.7736,2.7604,2.7229,2.6414,2.5358,2.3818,2.3147,2.2553,2.1835,2.2646,2.3577,2.3748,2.4346,2.4617,2.4049,2.3464,2.3135,2.3135,2.3135,2.3135,2.3135,2.3135,2.2403,2.0576,1.9852,1.8395,1.592,1.5832,1.5832,1.5832,1.5832,1.5146,1.3878,1.3199,1.194,0.9998,0.9316,0.8627,0.8038,0.8038,0.8038,0.8038,0.8038,0.8038,0.8038,0.8038,0.8038,0.8038,0.8038,0.8038,0.8038,0.8038,0.8038,0.8038,0.0,0.0,0.0,0.0,0.0,0.0,0.0,3.1859,3.1496,3.1519,3.148,3.2316,3.4471,3.5993,3.7166,0.0,0.0,0.0,0.0,0.0,0.0,0.0,0.0,0.0,0.0,0.0,0.0,3.1494,3.15,0.0,0.0,0.0,0.0,0.0,2.3891,1.873,1.5759,1.9181,1.2631,0.0,0.0,1.6578,0.0,0.0,0.0,0.0,0.0,2.7165,2.8583,3.0645,3.12,3.153,3.4018,3.4529,3.407,3.3634,3.3161,3.25,3.1099,3.0851,3.0661,2.9324,2.8817,2.8484,2.7815,2.732,2.6332,2.3975,2.3514,2.3301,2.2501,2.2811,2.358,2.4757,2.465,2.4457,2.4457,2.3627,2.3135,2.3135,2.3135,2.3135,2.3135,2.3135,2.2589,2.1382,1.9943,1.8126,1.592,1.5832,1.5832,1.5832,1.5832,1.5045,1.3488,1.2431,1.1165,0.9608,0.8528,0.8038,0.8038,0.8038,0.8038,0.8038,0.8038,0.8038,0.8038,0.8038,0.8038,0.8038,0.8038,0.8038,0.8038,0.8038,0.8038,0.8038,0.0,0.0,0.0,0.0,0.0,0.0,0.0,1.9545,3.1461,3.1523,3.1469,3.1575,3.1828,3.4199,3.5785,0.0,0.0,0.0,0.0,0.0,0.0,0.0,0.0,0.0,0.0,0.0,0.0,3.1477,3.1509,0.0,0.0,0.0,0.0,0.0,0.0,2.035,2.0031,2.0462,0.0,0.0,0.0,0.0,0.0,0.0,0.0,0.0,0.0,2.6934,2.8933,3.1055,3.2657,3.3937,3.5142,3.4279,3.3272,3.5693,3.5426,3.4071,3.2554,3.3097,3.3335,2.9897,3.0477,3.1137,2.8341,2.8132,2.758,2.4177,2.3514,2.3078,2.161,2.1745,2.2178,2.2685,2.3024,2.3222,2.3222,2.3135,2.3135,2.3135,2.3135,2.3135,2.3135,2.3135,2.2589,2.1382,1.9131,1.7225,1.5825,1.5832,1.5832,1.5832,1.5832,1.4567,1.2139,1.1945,1.0681,0.8134,0.8038,0.8038,0.8038,0.8038,0.8038,0.8038,0.8038,0.8038,0.8038,0.8038,0.8038,0.8038,0.8038,0.8038,0.8038,0.8038,0.8038,0.8038,0.0,0.0,0.0,0.0,0.0,0.0,0.0,0.21,1.0752,1.369,2.4242,3.1524,3.1471,3.2477,3.3825,0.0,0.0,0.0,0.0,0.0,0.0,0.0,0.0,0.0,0.0,0.0,3.3993,3.398,3.3941,0.0,0.0,0.0,0.0,0.0,0.0,2.47,2.0876,2.5318,0.0,0.0,0.0,0.0,0.0,0.0,0.0,0.0,0.0,0.0,2.5695,2.8383,2.9712,3.0668,3.314,3.2771,3.1926,3.4675,3.5333,3.4889,3.3459,3.4145,3.4688,3.2304,3.1663,3.113,2.9504,2.8225,2.6653,2.4059,2.375,2.3449,2.1939,2.1973,2.2402,2.2822,2.3027,2.3135,2.3135,2.3135,2.3135,2.3135,2.3135,2.3135,2.3135,2.3135,2.2315,2.0395,1.868,1.7131,1.5825,1.5832,1.5832,1.5832,1.5832,1.4561,1.1945,1.1945,1.0583,0.8038,0.8038,0.8038,0.8038,0.8038,0.8038,0.8038,0.8038,0.8038,0.8038,0.8038,0.8038,0.8038,0.8038,0.8038,0.8038,0.8038,0.8038,0.8038,0.0,0.0,0.0,0.0,0.0,-3.3731,-2.1886,-1.4996,-0.8467,-0.0649,1.8564,3.1474,3.1481,3.2062,3.3236,3.5241,0.0,0.0,0.0,0.0,0.0,0.0,0.0,0.0,0.0,0.0,3.6523,3.6529,3.6519,3.6214,0.0,0.0,3.458,3.2672,0.0,0.0,0.0,0.0,0.0,0.0,0.0,0.0,0.0,0.0,0.0,0.0,0.0,0.0,0.0,0.0,0.0,2.7779,3.0794,3.1019,3.0761,3.3526,3.4612,3.4659,3.3684,3.4526,3.5243,3.3525,3.2526,3.1584,3.0176,2.8673,2.6951,2.4431,2.4231,2.3939,2.2386,2.2314,2.2646,2.3066,2.3135,2.3135,2.3135,2.3135,2.3135,2.3135,2.3135,2.3135,2.3135,2.2775,2.1587,1.9131,1.8141,1.7131,1.5825,1.5832,1.5832,1.5832,1.5832,1.4758,1.2528,1.2139,1.0779,0.8627,0.8237,0.8038,0.8038,0.8038,0.8038,0.8038,0.8038,0.8038,0.8038,0.8038,0.8038,0.8038,0.8038,0.8038,0.8038,0.8038,0.8038,0.8038,0.0,0.0,0.0,0.0,0.0,0.0,0.0,-3.0463,-2.1119,-0.6653,1.6437,3.1474,3.1478,3.3372,3.4757,3.5001,0.0,0.0,0.0,0.0,0.0,0.0,0.0,0.0,0.0,0.0,3.8675,3.8675,3.8671,3.7623,3.5585,3.5597,3.5599,3.5454,0.0,0.0,0.0,0.0,0.0,0.0,0.0,0.0,0.0,0.0,0.0,0.0,0.0,0.0,0.0,0.0,0.0,0.0,0.0,2.9353,2.9877,3.2905,3.3496,3.3123,3.3123,3.4361,3.5068,3.2731,3.3108,3.3279,3.0158,2.9913,2.9327,2.5758,2.4982,2.4519,2.2824,2.251,2.2646,2.3066,2.3135,2.3135,2.3135,2.3135,2.3135,2.3135,2.3135,2.3135,2.3135,2.2031,2.0305,1.787,1.7692,1.7131,1.5825,1.5832,1.5832,1.5832,1.5832,1.5146,1.3872,1.2522,1.1263,0.9998,0.8627,0.8038,0.8038,0.8038,0.8038,0.8038,0.8038,0.8038,0.8038,0.8038,0.8038,0.8038,0.8038,0.8038,0.8038,0.8038,0.8038,0.8038,0.0,0.0,0.0,0.0,0.0,0.0,0.0,-3.6786,-3.0299,-1.2862,-0.0518,1.1134,2.2766,3.0438,3.4346,3.3508,0.0,0.0,0.0,0.0,0.0,0.0,0.0,0.0,0.0,0.0,4.0416,4.0418,4.0407,4.0077,3.9433,3.9433,3.9432,3.9381,3.851,3.8138,0.0,0.0,0.0,0.0,0.0,0.0,0.0,0.0,0.0,0.0,0.0,0.0,0.0,0.0,0.0,0.0,0.0,0.0,0.0,2.8442,3.0077,3.1829,3.2617,3.3592,3.4091,3.2796,3.2402,3.1951,3.0428,2.9424,2.8113,2.557,2.5262,2.4821,2.2894,2.2744,2.2988,2.3115,2.3135,2.3135,2.3135,2.3135,2.3135,2.3135,2.3135,2.2775,2.1943,2.0755,1.9397,1.7777,1.685,1.6204,1.5825,1.5832,1.5832,1.5832,1.5832,1.5146,1.3878,1.2528,1.1268,0.9998,0.8627,0.8038,0.8038,0.8038,0.8038,0.8038,0.8038,0.8038,0.8038,0.8038,0.8038,0.8038,0.8038,0.8038,0.8038,0.8038,0.8038,0.7839,0.0,0.0,0.0,0.0,0.0,0.0,0.0,-3.8881,-3.4817,-2.0451,-0.9487,0.2091,1.5328,2.7294,3.2943,2.9452,0.0,0.0,0.0,0.0,0.0,0.0,0.0,0.0,0.0,3.8489,3.9085,3.9088,3.909,3.7906,3.5658,3.5666,3.5649,3.5644,3.5656,3.5647,0.0,0.0,0.0,0.0,0.0,0.0,-0.2897,0.0,0.0,0.0,0.0,0.0,0.0,0.0,0.0,0.0,0.0,0.0,0.0,0.0,2.6736,2.9167,3.1525,3.2715,3.3177,3.2303,3.1763,3.1155,3.0385,2.9088,2.7758,2.6422,2.5697,2.4938,2.3642,2.3209,2.3135,2.3135,2.3135,2.3135,2.3135,2.3135,2.3135,2.3135,2.3135,2.2403,2.0755,1.9943,1.8764,1.7131,1.6292,1.5832,1.5832,1.5832,1.5832,1.5832,1.5832,1.5439,1.4657,1.2818,1.1458,1.0681,0.8821,0.8038,0.8038,0.8038,0.8038,0.8038,0.8038,0.8038,0.0,0.8038,0.8038,0.8038,0.8038,0.8038,0.8038,0.8038,0.8038,0.7839,0.0,0.0,0.0,0.0,0.0,0.0,0.0,0.0,0.0,-2.8109,-1.188,0.215,1.0321,2.417,3.0356,2.4112,0.0,0.0,0.0,0.0,0.0,0.0,0.0,0.0,0.0,3.5489,3.561,3.5609,3.4892,3.1636,2.6066,2.6078,2.6083,2.6073,2.6096,2.5528,0.0,0.0,0.0,0.0,0.0,0.0,0.0,0.0,0.0,0.0,0.0,0.0,0.0,0.0,0.0,0.0,0.0,0.0,0.0,0.0,0.0,0.0,0.0,3.1409,3.2006,3.1154,3.0944,3.0657,2.9754,2.8767,0.0,2.7844,2.6191,2.4787,2.4702,2.38,2.3135,2.3135,2.3135,2.3135,2.3135,2.3135,2.3135,2.3135,2.3135,2.2138,1.9761,1.9497,1.8488,1.6015,1.5832,1.5832,1.5832,1.5832,1.5832,1.5832,1.5832,1.573,1.5635,1.3204,1.1848,1.175,0.9213,0.8038,0.8038,0.8038,0.8038,0.8038,0.8038,0.8038,0.8038,0.8038,0.8038,0.8038,0.8038,0.8038,0.7939,0.7939,0.7839,0.7637,0.0,0.0,0.0,0.0,0.0,0.0,0.0,0.0,0.0,0.0,-1.6489,-0.3152,1.613,2.1509,2.441,0.0,0.0,0.0,0.0,0.0,0.0,0.0,0.0,0.0,0.0,3.4384,3.5594,3.5581,2.7903,2.3406,2.1973,2.2015,2.1989,2.2024,2.1983,0.0,0.0,0.0,0.0,0.0,0.0,0.0,0.0,0.0,0.0,0.0,0.1004,0.3299,0.0,0.0,0.0,0.0,0.0,0.0,0.0,0.0,2.1697,2.3831,2.5672,0.0,2.8104,2.8694,2.8219,2.7591,0.0,2.7046,2.6625,2.5786,2.5199,2.4542,2.3627,2.3299,2.3135,2.3135,2.3135,2.3135,2.3135,2.3135,2.3135,2.3135,2.3135,2.2138,1.9761,1.9497,1.8488,1.6015,1.5832,1.5832,1.5832,1.5832,1.5832,1.5832,1.5832,1.5337,1.4364,1.2721,1.1365,1.0391,0.8825,0.8038,0.8038,0.8038,0.8038,0.8038,0.8038,0.8038,0.8038,0.8038,0.8038,0.8038,0.8038,0.8038,0.7839,0.6833,0.6431,0.6229,0.0,0.0,0.0,0.0,0.0,0.0,0.0,0.0,0.0,0.0,0.0,0.0,0.0,0.0,0.0,0.0,0.0,0.0,0.0,0.0,0.0,0.0,0.0,0.0,2.9644,2.9927,2.9574,2.8707,2.1246,1.762,1.7646,1.7655,1.7861,1.8194,1.3317,0.0,0.0,0.0,0.0,0.0,-0.4814,0.0,0.0,0.0,0.0,0.0,-0.0401,0.15,0.0,0.6677,0.9441,1.1381,0.0,0.0,0.0,0.0,1.9825,2.2475,2.3543,2.5125,2.6648,2.7209,2.6964,2.6483,2.6483,2.6141,2.5714,2.563,2.4713,2.3963,2.3887,2.3464,2.3135,2.3135,2.3135,2.3135,2.3135,2.3135,2.3135,2.3135,2.2589,2.1578,1.967,1.9047,1.7855,1.592,1.5832,1.5832,1.5832,1.5832,1.5832,1.5832,1.5242,1.4561,1.3878,1.2528,1.1268,0.9998,0.8627,0.8038,0.8038,0.8038,0.8038,0.8038,0.8038,0.8038,0.8038,0.8038,0.8038,0.7939,0.7335,0.7033,0.7033,0.6229,0.6029,0.5929,0.0,0.0,0.0,0.0,0.0,0.0,0.0,0.0,0.0,0.0,0.0,0.0,0.0,0.0,0.0,0.0,0.0,0.0,0.0,0.0,0.0,0.0,0.0,2.308,2.6742,2.3745,2.1445,1.988,1.5331,1.3188,1.3171,1.3153,1.3231,1.2922,0.3119,0.0,0.0,0.0,0.0,0.0,-0.7675,0.0,0.0,0.0,0.0,0.0,0.0,0.0,0.0,0.5686,0.7493,0.8188,1.076,0.0,0.0,0.0,0.0,0.0,2.2114,2.4043,2.5797,2.6141,2.6141,2.5975,2.5975,2.521,2.4798,2.5808,2.4478,2.3387,2.4372,2.3714,2.3135,2.3135,2.3135,2.3135,2.3135,2.3135,2.3047,2.2862,2.1933,2.0747,1.9405,1.8319,1.7131,1.592,1.5832,1.5832,1.5832,1.5832,1.5832,1.5832,1.4561,1.3776,1.3584,1.2231,1.0974,0.9706,0.8528,0.8038,0.8038,0.8038,0.8038,0.8038,0.8038,0.8038,0.8038,0.8038,0.8038,0.7839,0.6531,0.6129,0.6229,0.5827,0.5827,0.5929,0.0,0.0,0.0,0.0,0.0,0.0,0.0,0.0,0.0,0.0,0.0,0.0,0.0,0.0,0.0,0.0,0.0,0.0,0.0,0.0,0.0,0.0,1.6104,1.7487,2.0791,1.8173,1.6677,1.636,1.14,0.8951,0.8905,0.8979,0.6631,0.2156,-0.3978,-0.6734,-0.6637,0.0,0.0,0.0,-0.6431,0.0,0.0,0.0,0.0,0.0,0.0,0.0,0.0,0.3203,0.5415,0.6819,0.9497,0.0,0.0,0.0,0.0,0.0,1.9753,2.1016,2.2541,2.4522,2.4296,2.3637,2.3637,2.3474,2.3387,2.3551,2.3299,2.3135,2.3299,2.3222,2.3135,2.3135,2.3135,2.3135,2.3135,2.3135,2.2677,2.1658,2.1382,2.0395,1.8234,1.7777,1.7131,1.592,1.5832,1.5832,1.5832,1.5832,1.5832,1.5832,1.4561,1.3392,1.2237,1.0974,0.9608,0.8333,0.8137,0.8038,0.8038,0.8038,0.8038,0.8038,0.8038,0.8038,0.8038,0.8038,0.8038,0.7839,0.6531,0.6731,0.7434,0.512,0.5022,0.5827,0.0,0.0,0.0,0.0,0.0,0.0,0.0,0.0,0.0,0.0,0.0,0.0,0.0,0.0,0.0,0.0,0.0,0.0,0.0,0.0,0.0,1.7477,1.6772,1.6274,1.6133,1.6404,1.4955,1.1466,1.0959,0.9793,0.7955,0.5074,0.2369,-0.0201,-0.4131,-0.6679,-0.7905,-0.6651,-0.6839,-0.7955,0.0,0.0,0.0,0.0,0.0,0.0,0.0,0.0,0.0,0.0,0.381,0.542,0.8117,0.0,0.0,0.0,0.0,0.0,1.8211,1.9413,2.0764,2.2513,2.2999,2.3135,2.3135,2.3135,2.3135,2.3135,2.3135,2.3135,2.3135,2.3135,2.3135,2.3135,2.258,2.212,2.212,2.1578,2.0944,2.0395,1.9761,1.8956,1.7777,1.7037,1.6386,1.5825,1.5832,1.5832,1.5832,1.5832,1.5832,1.5832,1.3884,1.2522,1.195,0.9899,0.8627,0.8038,0.8038,0.8038,0.8038,0.8038,0.8038,0.8038,0.8038,0.8038,0.8038,0.8038,0.8038,0.7839,0.6531,0.6331,0.6731,0.4718,0.482,0.5727,0.0,0.0,0.0,0.0,0.0,0.0,0.0,0.0,0.0,0.0,0.0,0.0,0.0,0.0,0.0,0.0,0.0,0.0,0.0,0.0,1.649,1.8087,1.7282,1.5987,1.4309,1.5518,1.382,0.8933,1.095,1.0369,0.7235,0.2303,0.0,-0.0101,-0.3024,-0.545,-0.7397,-0.7875,-0.7965,-0.7962,0.0,0.0,0.0,0.0,0.0,0.0,0.0,0.0,0.0,0.0,0.0,0.0,0.0,0.0,0.0,1.1458,1.3459,1.5644,1.7296,1.8411,1.9405,2.0935,2.2031,2.2765,2.3047,2.3135,2.3135,2.3135,2.3135,2.3135,2.3135,2.3135,2.3047,2.2677,2.1933,2.1203,2.0935,2.0124,1.9405,1.9131,1.8234,1.7598,1.7318,1.6386,1.5832,1.5832,1.5832,1.5832,1.5832,1.5832,1.5832,1.5832,1.3307,1.1945,1.1945,0.9312,0.8038,0.8038,0.8038,0.8038,0.8038,0.8038,0.8038,0.8038,0.8038,0.8038,0.8038,0.8038,0.8038,0.7839,0.6531,0.5827,0.5425,0.4718,0.472,0.4722,0.0,0.0,0.0,0.0,0.0,0.0,0.0,0.0,0.0,0.0,0.0,0.0,0.0,0.0,0.0,0.0,0.0,0.0,0.0,0.0,1.533,1.4345,1.4256,1.5203,1.7375,1.4034,1.2119,1.1623,0.9399,0.7431,0.5532,0.1708,0.0,-0.0202,-0.3723,-0.5434,-0.5737,-0.7341,-0.8041,-0.8041,-0.8038,0.0,0.0,0.0,0.0,0.0,0.0,0.0,0.0,0.0,0.0,0.0,0.0,0.0,0.8682,1.1151,1.2909,1.4536,1.7023,1.7777,1.8411,2.0755,2.1382,2.1747,2.2862,2.3135,2.3135,2.3135,2.3135,2.3135,2.3135,2.3135,2.2765,2.1569,2.1382,2.0935,1.9761,1.9579,1.9039,1.7963,1.7777,1.7225,1.6015,1.5825,1.5832,1.5832,1.5832,1.5832,1.5832,1.5832,1.5832,1.5832,1.3307,1.1945,1.1945,0.9312,0.8038,0.8038,0.8038,0.8038,0.8038,0.8038,0.8038,0.8038,0.8038,0.8038,0.8038,0.8038,0.8038,0.7839,0.6531,0.5222,0.4318,0.5425,0.4321,0.2213,0.0,0.0,0.0,0.0,0.0,0.0,0.0,0.0,0.0,0.0,0.0,0.0,0.0,0.0,0.0,0.0,0.0,0.0,0.0,0.0,1.3204,1.2721,1.2619,1.3097,1.4052,1.1838,1.0681,1.0681,0.8018,0.6027,0.452,0.2312,0.0806,-0.0101,-0.3218,-0.452,-0.4722,-0.7033,-0.8038,-0.8038,-0.8038,-0.8038,0.0,0.0,0.0,0.0,0.0,0.0,0.0,0.0,0.0903,0.2314,0.4218,0.5717,0.7111,0.8981,1.0947,1.3006,1.4829,1.6445,1.8141,1.9761,2.0215,2.0666,2.2677,2.3135,2.3135,2.3135,2.3135,2.3135,2.3135,2.2492,2.1845,2.1382,2.0034,1.8864,1.8411,1.7669,1.7023,1.6574,1.648,1.6292,1.5825,1.5832,1.5832,1.5832,1.5832,1.5832,1.5832,1.5832,1.5439,1.4657,1.2818,1.1556,1.0681,0.892,0.8038,0.8038,0.8038,0.8038,0.8038,0.8038,0.8038,0.8038,0.8038,0.8038,0.8038,0.8038,0.8038,0.7839,0.6531,0.5727,0.5122,0.3919,0.2916,0.1913,0.0,0.0,0.0,0.0,0.0,0.0,0.0,0.0,0.0,0.0,0.0,0.0,0.0,0.0,0.0,0.0,0.0,0.0,0.0,1.117,1.1755,1.1361,1.1268,1.1072,1.0681,0.9801,0.9608,0.9998,0.6915,0.492,0.3915,0.2213,0.0907,-0.0101,-0.2815,-0.4016,-0.4216,-0.683,-0.8038,-0.8038,-0.8038,-0.8038,0.0,0.0,0.0,0.0,0.0,0.0,0.0,0.0,0.0301,0.1611,0.2916,0.4318,0.572,0.7496,0.9866,1.2237,1.3584,1.5501,1.7404,1.8588,1.8948,1.9588,2.1952,2.2492,2.2677,2.3047,2.3135,2.296,2.2589,2.1845,2.1025,2.0305,1.8772,1.7598,1.7131,1.6386,1.5832,1.5832,1.5832,1.5832,1.5832,1.5832,1.5832,1.5832,1.5832,1.5635,1.5242,1.5242,1.4657,1.3295,1.1945,1.0877,0.9998,0.8627,0.8038,0.8038,0.8038,0.8038,0.8038,0.8038,0.8038,0.8038,0.8038,0.8038,0.8038,0.8038,0.7736,0.7232,0.5927,0.5125,0.4522,0.2716,0.1712,0.1209,0.0,0.0,0.0,0.0,0.0,0.0,0.0,0.0,0.0,0.0,0.0,0.0,0.0,0.0,0.0,0.0,0.0,0.0,0.0,1.1165,1.1268,0.9998,0.9998,0.9312,0.8038,0.8038,0.8627,0.9998,0.6009,0.4016,0.3915,0.131,0.0,-0.0101,-0.2815,-0.4016,-0.4216,-0.6828,-0.7939,-0.8038,-0.7939,-0.7939,-0.8038,0.0,0.0,0.0,0.0,0.0,0.0,0.0,-0.1109,0.0202,0.1611,0.2914,0.4512,0.7192,0.9768,1.2139,1.3488,1.4848,1.6109,1.7412,1.7684,1.8326,2.0755,2.1293,2.1658,2.2862,2.3047,2.2677,2.148,2.1293,2.0486,1.8048,1.7684,1.7225,1.6015,1.5832,1.5832,1.5832,1.5832,1.5832,1.5832,1.5832,1.5832,1.5832,1.5825,1.5242,1.3974,1.3872,1.3295,1.1945,1.0681,0.9998,0.9998,0.8627,0.8038,0.8038,0.8038,0.8038,0.8038,0.8038,0.8038,0.8038,0.8038,0.8038,0.8038,0.7939,0.7235,0.5829,0.4518,0.3215,0.2013,0.2013,0.1109,0.0,0.0,0.0,0.0,0.0,0.0,0.0,0.0,0.0,0.0,0.0,0.0,0.0,0.0,0.0,0.0,0.0,0.0,0.0,0.0,0.892,0.9019,0.8627,0.8627,0.8432,0.8038,0.8038,0.8237,0.8627,0.6426,0.492,0.3915,0.2213,0.0907,-0.0101,-0.2815,-0.4016,-0.4116,-0.5827,-0.7135,-0.7939,-0.6933,-0.7132,-0.8038,0.0,0.0,0.0,0.0,0.0,0.0,0.0,0.0,0.0,0.0504,0.1511,0.2914,0.471,0.7093,0.9473,1.0765,1.3363,1.5846,1.6216,1.6994,1.8141,1.967,2.0657,2.1382,2.1756,2.1123,2.0494,2.0124,1.9314,1.8503,1.7777,1.6943,1.6204,1.5825,1.5832,1.5832,1.5832,1.5832,1.5832,1.5832,1.5832,1.5832,1.5832,1.4949,1.4268,1.3872,1.3006,1.194,1.0583,1.0194,0.9509,0.8627,0.8237,0.8038,0.8038,0.8038,0.8038,0.8038,0.8038,0.8038,0.8038,0.8038,0.8038,0.7939,0.6933,0.5824,0.4418,0.3116,0.2313,0.1913,0.0907,0.0303,0.0,0.0,0.0,0.0,0.0,0.0,0.0,0.0,0.0,0.0,0.0,0.0,0.0,0.0,0.0,0.0,0.0,0.0,0.0,0.0,0.0,0.8038,0.8038,0.8038,0.8038,0.8038,0.8038,0.8038,0.8038,0.6126,0.482,0.3915,0.2113,0.0807,-0.0101,-0.2213,-0.3215,-0.3316,-0.462,-0.6027,-0.7135,-0.6331,-0.6833,-0.8038,0.0,0.0,0.0,0.0,0.0,0.0,0.0,0.0,0.0,0.0,0.0907,0.2213,0.3615,0.5904,0.8287,0.9596,1.2399,1.4988,1.4988,1.5961,1.7311,1.8495,1.9761,2.0576,2.0576,2.0034,1.9314,1.8864,1.8234,1.7505,1.7037,1.6292,1.5832,1.5832,1.5832,1.5832,1.5832,1.5832,1.5832,1.5832,1.5832,1.5635,1.5045,1.4364,1.3488,1.242,1.1556,1.0583,0.9217,0.9217,0.8825,0.8038,0.8038,0.8038,0.8038,0.8038,0.8038,0.8038,0.8038,0.8038,0.8038,0.8038,0.7736,0.7132,0.5724,0.4418,0.3115,0.1712,0.1209,0.1109,0.0303,0.0,0.0,0.0,0.0,0.0,0.0,0.0,0.0,0.0,0.0,0.0,0.0,0.0,0.0,0.0,0.0,0.0,0.0,0.0,0.0,0.0,0.0,0.8038,0.8038,0.8038,0.7939,0.7839,0.7839,0.7736,0.7637,0.532,0.4116,0.3915,0.141,0.0101,-0.0101,-0.141,-0.2013,-0.2113,-0.3316,-0.462,-0.6029,-0.5829,-0.6731,-0.8038,-0.8038,0.0,0.0,0.0,0.0,0.0,0.0,0.0,0.0,0.0,0.0807,0.2113,0.3416,0.5606,0.7892,0.9296,1.1546,1.3584,1.368,1.4758,1.6109,1.7225,1.8411,1.9222,1.9314,1.9222,1.8856,1.7777,1.7505,1.7131,1.6015,1.5832,1.5832,1.5832,1.5832,1.5832,1.5832,1.5832,1.5832,1.5832,1.573,1.5146,1.3974,1.368,1.2517,1.0096,0.9899,0.9217,0.8038,0.8038,0.8038,0.8038,0.8038,0.8038,0.8038,0.8038,0.8038,0.8038,0.8038,0.8038,0.8038,0.7839,0.7033,0.5727,0.4418,0.3015,0.1711,0.0504,0.0,0.0,0.0,0.0,0.0,0.0,0.0,0.0,0.0,0.0,0.0,0.0,0.0,0.0,0.0,0.0,0.0,0.0,0.0,0.0,0.0,0.0,0.0,0.0,0.0,0.8038,0.8038,0.8038,0.7537,0.6431,0.6431,0.5924,0.4818,0.5322,0.5022,0.3915,0.2314,0.1008,-0.0101,-0.141,-0.2013,-0.2013,-0.2314,-0.3819,-0.5927,-0.482,-0.5824,-0.8038,-0.8038,-0.8038,0.0,0.0,0.0,0.0,0.0,0.0,0.0,-0.0303,0.0202,0.0706,0.2013,0.3613,0.5112,0.652,0.8799,1.1068,1.2042,1.4076,1.5825,1.6109,1.6379,1.6842,1.7863,1.7304,1.6567,1.6292,1.6204,1.6109,1.5825,1.5832,1.5832,1.5832,1.5832,1.5832,1.5832,1.5832,1.5832,1.5832,1.4854,1.4166,1.3872,1.2037,1.0578,0.9998,0.9019,0.8336,0.8038,0.8038,0.8038,0.8038,0.8038,0.8038,0.8038,0.8038,0.8038,0.8038,0.8038,0.8038,0.7939,0.6933,0.5625,0.4318,0.3016,0.1611,0.0404,0.0101,0.0,0.0,0.0,0.0,0.0,0.0,0.0,0.0,0.0,0.0,0.0,0.0,0.0,0.0,0.0,0.0,0.0,0.0,0.0,0.0,0.0,0.0,0.0,0.0,0.0,0.0,0.8038,0.7335,0.6731,0.6029,0.5325,0.4718,0.4016,0.4019,0.3718,0.3015,0.1711,0.0706,0.0,-0.0706,-0.1008,-0.1008,-0.1008,-0.2615,-0.502,-0.4318,-0.562,-0.8038,-0.8038,-0.8038,-0.7939,-0.7235,0.0,0.0,0.0,0.0,0.0,0.0,0.0,0.0303,0.1611,0.2514,0.3516,0.5427,0.7512,0.9485,1.1453,1.3397,1.4854,1.4854,1.5343,1.6015,1.6669,1.6298,1.5832,1.5832,1.5832,1.5832,1.5832,1.5832,1.5832,1.5832,1.5832,1.5534,1.4949,1.4854,1.4657,1.3986,1.3878,1.3584,1.3006,1.2226,1.1356,1.0096,0.9316,0.8627,0.8038,0.8038,0.8038,0.8038,0.8038,0.8038,0.8038,0.8038,0.8038,0.8038,0.8038,0.8038,0.7939,0.6631,0.5222,0.3915,0.2514,0.1209,0.0,0.0,0.0,0.0,0.0,0.0,0.0,0.0,0.0,0.0,0.0,0.0,0.0,0.0,0.0,0.0,0.0,0.0,0.0,0.0,0.0,0.0,0.0,0.0,0.0,0.0,0.0,0.0,0.0,0.6731,0.5929,0.5627,0.4318,0.3516,0.3316,0.2213,0.1611,0.1611,0.0504,0.0,0.0,0.0,0.0,0.0,0.0,-0.1411,-0.3715,-0.3915,-0.542,-0.7637,-0.7939,-0.8038,-0.8038,-0.8038,-0.7335,-0.6331,-0.6029,0.0,0.0,0.0,0.0,-0.0101,0.1006,0.161,0.2515,0.4722,0.6608,0.8583,1.096,1.2522,1.3584,1.3584,1.437,1.5146,1.5146,1.5337,1.5439,1.5439,1.5242,1.5242,1.5439,1.5242,1.5248,1.5439,1.5248,1.4854,1.3974,1.3878,1.359,1.2624,1.3199,1.3102,1.1945,1.2522,1.1935,0.9801,0.9608,0.9118,0.8038,0.8038,0.8038,0.8038,0.8038,0.8038,0.8038,0.8038,0.8038,0.8038,0.7736,0.7637,0.7537,0.6027,0.472,0.3515,0.2213,0.1008,0.0,0.0,0.0,0.0,0.0,0.0,0.0,0.0,0.0,0.0,0.0,0.0,0.0,0.0,0.0,0.0,0.0,0.0,0.0,0.0,0.0,0.0,0.0,0.0,0.0,0.7939,0.0,0.0,0.8038,0.6731,0.5425,0.4318,0.2916,0.1711,0.0504,0.0404,0.0303,0.0303,0.0101,0.0,0.0,0.0,0.0,0.0,0.0,-0.0907,-0.2413,-0.3516,-0.492,-0.6431,-0.7537,-0.8038,-0.8038,-0.8038,-0.7839,-0.7537,-0.6431,-0.5727,0.0,0.0,0.0,-0.1711,-0.1509,0.0201,0.2113,0.2414,0.5205,0.8389,0.9891,1.1263,1.2139,1.2139,1.2334,1.2431,1.2431,1.3301,1.4166,1.4166,1.3204,1.2818,1.3974,1.3204,1.2818,1.3974,1.3108,1.2818,1.3782,1.3878,1.4268,1.5146,1.3403,1.2042,1.195,0.9993,0.8627,0.8333,0.8233,0.8137,0.8038,0.8038,0.8038,0.8038,0.8038,0.8038,0.8038,0.8038,0.8038,0.7939,0.6833,0.6229,0.6129,0.3618,0.2414,0.2113,0.0807,0.0202,0.0,0.0,0.0,0.0,0.0,0.0,0.0,0.0,0.0,0.0,0.0,0.0,0.0,0.0,0.0,0.0,0.0,0.0,0.0,0.0,0.0,0.0,0.5727,0.5322,0.5722,0.7839,0.8038,0.8038,0.8038,0.6024,0.4618,0.4016,0.1913,0.0605,0.0,0.0,0.0,0.0,0.0,0.0,0.0,0.0,0.0,0.0,0.0,-0.0807,-0.2012,-0.2614,-0.3717,-0.5022,-0.6329,-0.6833,-0.6933,-0.7739,-0.8038,-0.7939,-0.7335,-0.6631,-0.5929,-0.5322,0.0,0.0,0.0,-0.1207,0.0201,0.2512,0.4914,0.7214,0.852,0.9899,1.0877,1.0877,1.1361,1.1945,1.1945,1.1848,1.194,1.2619,1.2334,1.2042,1.2716,1.2237,1.2139,1.2716,1.2237,1.1848,1.1745,1.1745,1.1643,1.1448,1.1068,1.0877,1.0877,1.0386,0.9899,0.9118,0.9118,0.8825,0.8038,0.8038,0.8038,0.8038,0.8038,0.8038,0.8038,0.8038,0.8038,0.7939,0.5824,0.5325,0.5829,0.3116,0.2013,0.1913,0.0504,0.0,0.0,0.0,0.0,0.0,0.0,0.0,-0.0101,0.0,0.0,0.0,0.0,0.0,0.0,0.0,0.0,0.0,0.0,0.0,0.0,0.0,0.0,0.0,0.0,0.4418,0.5118,0.7836,0.8038,0.7839,0.7537,0.522,0.3815,0.3515,0.1209,0.0,0.0,0.0,0.0,0.0,0.0,0.0,0.0,0.0,0.0,0.0,0.0,-0.0605,-0.1511,-0.1913,-0.2614,-0.3717,-0.5325,-0.6029,-0.6129,-0.7537,-0.8038,-0.8038,-0.8038,-0.7335,-0.6531,-0.6531,-0.5625,0.0,0.0,0.0,-0.1207,0.2511,0.4219,0.5425,0.7033,0.8223,0.9106,0.9406,1.019,1.0872,1.0872,1.019,0.9801,1.0779,1.0872,1.0974,1.1361,1.1165,1.1068,1.1365,1.1165,1.0681,1.0096,0.9998,0.9702,0.9019,0.9608,0.9998,0.9998,1.0583,1.0485,0.9509,0.9509,0.9019,0.8038,0.8038,0.8038,0.8038,0.8038,0.8038,0.8038,0.8038,0.7839,0.7434,0.5018,0.4318,0.4824,0.2515,0.1511,0.1411,0.0404,0.0,0.0,0.0,0.0,0.0,0.0,0.0,-0.0202,0.0,0.0,0.0,0.0,0.0,0.0,0.0,0.0,0.0,0.0,0.0,0.0,-0.0202,0.0,0.0605,0.2114,0.3316,0.5118,0.7836,0.8038,0.7437,0.6129,0.472,0.0,0.2113,0.0706,0.0,0.0,0.0,0.0,0.0,0.0,0.0,0.0,0.0,0.0,0.0,0.0,0.0,-0.0202,-0.1511,-0.2013,-0.2414,-0.5022,-0.6029,-0.6129,-0.7537,-0.8038,-0.8038,-0.8038,-0.7939,-0.7939,-0.7939,-0.6933,-0.5929,0.0,0.0,0.0,0.1308,0.2113,0.2816,0.5427,0.6129,0.6528,0.7836,0.8137,0.8237,0.8237,0.8137,0.8137,0.8237,0.8237,0.8627,0.9903,0.9019,0.8627,0.9899,0.9019,0.8627,0.9903,0.9998,1.0485,1.1556,1.0681,0.9998,0.9998,0.8924,0.8137,0.8137,0.8137,0.8038,0.8038,0.8038,0.8038,0.8038,0.8038,0.8038,0.8038,0.8038,0.7335,0.6029,0.462,0.3316,0.2113,0.0706,0.0101,0.0101,0.0,0.0,0.0,0.0,0.0,0.0,0.0,0.0,-0.0202,0.0,0.0,0.0,0.0,0.0,0.0,0.0,0.0,0.0,0.0,0.0,0.0,0.0,0.0,0.0504,0.1913,0.3215,0.4416,0.532,0.542,0.522,0.472,0.3416,0.2514,0.2013,0.0706,0.0,0.0,0.0,0.0,0.0,0.0,0.0,0.0,0.0,0.0,0.0,0.0,0.0,0.0,-0.0504,-0.0706,-0.0907,-0.2716,-0.3919,-0.492,-0.6229,-0.7235,-0.8038,-0.8038,-0.8038,-0.8038,-0.8038,-0.7637,-0.7135,-0.6229,-0.472,-0.2912,-0.1102,0.01,0.1203,0.3003,0.4111,0.482,0.532,0.542,0.5722,0.6531,0.6731,0.6933,0.7839,0.8038,0.8137,0.8627,0.8333,0.8137,0.8627,0.8333,0.8137,0.8627,0.8726,0.892,0.9312,0.9019,0.8726,0.8726,0.8233,0.8038,0.8038,0.8038,0.8038,0.8038,0.8038,0.8038,0.8038,0.8038,0.7537,0.6731,0.6731,0.6027,0.472,0.3316,0.2413,0.1913,0.0605,0.0,0.0,0.0,0.0,0.0,0.0,0.0,0.0,0.0,-0.0504,-0.1511,0.0,0.0,0.0,0.0,0.0,0.0,0.0,0.0,0.0,-0.5313,0.0,0.0,0.0,0.0,0.0504,0.1913,0.2815,0.3516,0.4016,0.4016,0.3815,0.3316,0.2514,0.1812,0.131,0.0504,0.0,0.0,0.0,0.0,0.0,0.0,0.0,0.0,0.0,0.0,0.0,0.0,0.0,0.0,0.0,0.0,-0.0202,-0.2013,-0.3215,-0.4218,-0.6027,-0.7235,-0.8038,-0.8038,-0.8038,-0.8038,-0.8038,-0.8038,-0.7739,-0.6431,-0.5325,-0.4416,-0.3004,-0.2003,-0.1001,0.03,0.1701,0.2807,0.3207,0.3712,0.4218,0.5122,0.5322,0.5625,0.6526,0.703,0.7434,0.7939,0.8038,0.8038,0.8038,0.8038,0.8038,0.8038,0.8038,0.8038,0.8038,0.8038,0.8038,0.8038,0.8038,0.8038,0.8038,0.8038,0.8038,0.8038,0.8038,0.8038,0.8038,0.7537,0.6833,0.6029,0.5525,0.462,0.3316,0.2413,0.1711,0.131,0.0404,0.0,0.0,0.0,0.0,0.0,0.0,0.0,0.0,0.0,-0.0807,-0.2213,0.0,0.0,0.0,0.0,0.0,0.0,0.0,0.0,-0.9543,-0.642,0.0,0.0,0.0,0.0,0.0,0.1812,0.1913,0.2514,0.3815,0.3915,0.3316,0.2013,0.1913,0.131,0.0,0.0,0.0,0.0,0.0,0.0,0.0,-0.0101,-0.0101,-0.0101,-0.0101,-0.0101,-0.0101,-0.0101,-0.0101,-0.0101,-0.0101,-0.0101,-0.0404,-0.3015,-0.4016,-0.4416,-0.703,-0.7939,-0.8038,-0.8038,-0.8038,-0.8038,-0.8038,-0.8038,-0.7739,-0.6431,-0.6029,-0.5727,0.0,0.0,0.0,-0.2401,-0.11,0.02,0.16,0.2906,0.3815,0.3915,0.3915,0.3915,0.4016,0.5022,0.6329,0.7637,0.7939,0.8038,0.8038,0.8038,0.8038,0.8038,0.8038,0.8038,0.8038,0.8038,0.8038,0.8038,0.8038,0.8038,0.8038,0.8038,0.8038,0.8038,0.7939,0.7939,0.7939,0.6631,0.5927,0.5829,0.4518,0.3215,0.1913,0.1913,0.1209,0.0,0.0,0.0,0.0,0.0,0.0,0.0,0.0,0.0,-0.0101,-0.0101,-0.0907,-0.2314,0.0,0.0,0.0,0.0,0.0,0.0,-1.1094,-1.1123,-1.0258,0.0,0.0,0.0,-0.2213,-0.0807,0.0101,0.0504,0.0504,0.0706,0.1109,0.1109,0.0907,0.0605,0.0504,0.0404,0.0,0.0,0.0,0.0,0.0,0.0,0.0,0.0,0.0,-0.2914,-0.2914,-0.2914,-0.2815,-0.1812,-0.2013,-0.2914,-0.2914,-0.2914,-0.3015,-0.3715,-0.4618,-0.5525,-0.6329,-0.7135,-0.8038,-0.8038,-0.8038,-0.8038,-0.8038,-0.8038,-0.7939,-0.7537,-0.7437,-0.7335,-0.703,0.0,0.0,0.0,0.0,0.0,-0.1205,-0.0603,0.0201,0.2111,0.2514,0.2815,0.3815,0.4316,0.4718,0.5018,0.6728,0.8038,0.8038,0.8038,0.8038,0.8038,0.8038,0.8038,0.8038,0.8038,0.8038,0.8038,0.8038,0.8038,0.8038,0.8038,0.8038,0.8038,0.7033,0.6531,0.6531,0.5222,0.4017,0.3118,0.2715,0.1812,0.0504,0.0504,0.0303,0.0,0.0,0.0,0.0,0.0,0.0,0.0,0.0,-0.0605,-0.1411,-0.1411,-0.2917,-0.4924,0.0,0.0,0.0,0.0,0.0,-1.4937,-1.2378,-1.192,-1.0863,0.0,0.0,0.0,-0.2314,-0.131,-0.0605,0.0,0.0,0.0,0.0,0.0,0.0,0.0,0.0,0.0,0.0,0.0,0.0,0.0,0.0,0.0,0.0,0.0,0.0,0.0,0.0,-0.4316,-0.482,-0.4019,-0.3819,-0.4016,-0.4016,-0.4016,-0.4016,-0.4618,-0.5322,-0.6029,-0.6631,-0.7335,-0.8038,-0.8038,-0.8038,-0.8038,-0.8038,-0.8038,-0.8038,-0.8038,-0.8038,-0.8038,-0.8038,-0.7437,-0.6833,-0.6833,0.0,0.0,-0.3115,-0.2413,-0.1409,0.0705,0.1209,0.141,0.2213,0.2815,0.3215,0.3215,0.492,0.6326,0.6326,0.6326,0.6326,0.6326,0.6326,0.6326,0.6326,0.6326,0.6326,0.6326,0.6326,0.6326,0.6326,0.6326,0.6326,0.6326,0.5622,0.5122,0.5122,0.3817,0.2814,0.2013,0.1411,0.0706,0.0,0.0,0.0,0.0,0.0,0.0,0.0,-0.0605,-0.0504,0.0,0.0,-0.0807,-0.2013,-0.2013,-0.3718,-0.6029,0.0,0.0,-2.116,-1.6565,-1.5806,-1.5343,-1.3878,-1.2624,-1.1361,0.0,-0.7617,-0.5125,-0.2716,-0.2213,-0.1511,-0.0303,-0.0101,0.0,0.0,0.0,0.0,0.0,-0.0101,-0.0202,0.0,-0.0303,-0.0404,0.0,0.0,0.0,0.0,0.0,0.0,0.0,0.0,0.0,-0.625,-0.6263,-0.5553,-0.4429,-0.4422,-0.4418,-0.4618,-0.5724,-0.6229,-0.6331,-0.7537,-0.8038,-0.8038,-0.8038,-0.8038,-0.8038,-0.8038,-0.8038,-0.8038,-0.8038,-0.8038,-0.8038,-0.8038,-0.8038,-0.8038,-0.8038,-0.7132,0.0,-0.4518,-0.3316,-0.2114,-0.0706,-0.0404,-0.0404,-0.0404,0.0504,0.1307,0.1307,0.241,0.3513,0.3915,0.4016,0.4016,0.4016,0.4016,0.4016,0.4016,0.4016,0.4016,0.4016,0.4016,0.4016,0.4016,0.4016,0.4016,0.4016,0.3815,0.3815,0.3815,0.2414,0.1812,0.1812,0.0605,0.0,0.0,0.0,0.0,0.0,0.0,-0.0101,-0.0303,-0.1511,-0.131,-0.0202,-0.0404,-0.131,-0.2414,-0.2414,-0.4019,-0.6229,-1.7958,0.0,-1.8485,-1.6237,-1.5806,-1.5051,-1.2624,-1.2042,-1.1072,-0.8726,-0.703,-0.5827,-0.5325,-0.3317,-0.1913,-0.1611,-0.0605,0.0,0.0,0.0,0.0,0.0,-0.1008,-0.1109,0.0,-0.2113,-0.2715,-0.1611,0.0,0.0,0.0,0.0,0.0,0.0,0.0,-0.7607,-0.782,-0.793,-0.7804,-0.749,-0.7278,-0.7232,-0.7232,-0.7534,-0.7637,-0.7637,-0.7939,-0.8038,-0.8038,-0.8038,-0.8038,-0.8038,-0.8038,-0.8038,-0.8038,-0.8038,-0.8038,-0.8038,-0.8038,-0.8038,-0.8038,-0.8038,-0.7839,0.0,-0.5927,-0.5425,-0.4822,-0.3516,-0.3215,-0.3215,-0.3215,-0.3012,-0.281,-0.281,-0.1707,0.0301,0.3513,0.4016,0.4016,0.4016,0.4016,0.4016,0.4016,0.4016,0.4016,0.4016,0.4016,0.4016,0.4016,0.4016,0.4016,0.4016,0.2914,0.2413,0.2413,0.1109,0.0404,0.0404,0.0101,0.0,0.0,0.0,0.0,0.0,0.0,-0.0605,-0.1611,-0.1913,-0.1812,-0.1711,-0.2815,-0.4019,-0.5225,-0.5225,-0.6229,-0.7637,-1.8335,-1.7978,-1.7751,-1.606,-1.5772,-1.5146,-1.3204,-1.2334,-1.1165,-0.9213,-0.7826,-0.6734,-0.6029,-0.4822,-0.3417,-0.2113,-0.141,-0.1008,-0.1008,-0.1008,-0.131,-0.2012,-0.2614,-0.2715,-0.2013,-0.3316,-0.3715,-0.3015,0.0,0.0,0.0,0.0,0.0,0.0,0.0,-0.8377,-0.8381,-0.8452,-0.8442,-0.8364,-0.8214,-0.8109,-0.8038,-0.8038,-0.8038,-0.8038,-0.8038,-0.8038,-0.8038,-0.8038,-0.8038,-0.8038,-0.8038,-0.8038,-0.8038,-0.8038,-0.8432,-0.9019,-0.9019,-0.9019,-0.9019,-0.9019,-0.9019,0.0,0.0,-0.7496,-0.7381,-0.5397,-0.4999,-0.4804,-0.4114,-0.4016,-0.4016,-0.4016,-0.2914,-0.1508,-0.02,0.1205,0.2013,0.2013,0.2013,0.2013,0.2013,0.2013,0.2013,0.2013,0.2013,0.2013,0.2013,0.2013,0.2013,0.2013,0.1309,0.1008,0.1008,0.0303,0.0,0.0,0.0,0.0,0.0,0.0,0.0,0.0,-0.0706,-0.141,-0.2113,-0.3417,-0.4021,-0.4021,-0.4016,-0.482,-0.6029,-0.6029,-0.6833,-0.8038,-1.9728,-1.8835,-1.7903,-1.6089,-1.5832,-1.5242,-1.3782,-1.2624,-1.1361,-0.9801,-0.8627,-0.7637,-0.6531,-0.6129,-0.5024,-0.2615,-0.2113,-0.2013,-0.2013,-0.2013,-0.2614,-0.3915,-0.4218,-0.4218,-0.4016,-0.4533,-0.4744,-0.444,-0.5775,0.0,0.0,0.0,0.0,-0.8482,-0.8513,-0.8526,-0.8526,-0.8557,-0.8554,-0.8516,-0.8401,-0.8262,-0.8119,-0.8096,-0.8082,-0.8079,-0.8052,-0.8038,-0.8038,-0.8038,-0.8038,-0.8038,-0.8038,-0.8038,-0.8038,-0.8333,-0.9118,-1.0096,-1.0293,-1.0386,-1.0386,-1.0386,-1.0386,-1.0087,0.0,0.0,0.0,-0.7559,-0.7165,-0.6776,-0.57,-0.5504,-0.5406,-0.5211,-0.4012,-0.3413,-0.4318,-0.2314,-0.0807,-0.0807,-0.0303,-0.0101,-0.0404,-0.0202,0.0,0.0,0.0,0.0,0.0,0.0,0.0,0.0,0.0,0.0,0.0,0.0,0.0,0.0,0.0,-0.0101,-0.0404,-0.0404,-0.0504,-0.0807,-0.1913,-0.2514,-0.2917,-0.5125,-0.6129,-0.6229,-0.522,-0.5422,-0.6431,-0.6431,-0.7033,-0.8038,-1.906,-1.8943,-1.8656,-1.619,-1.5832,-1.4956,-1.2528,-1.2042,-1.0974,-0.8528,-0.8137,-0.7939,-0.7839,-0.6731,-0.5425,-0.3917,-0.2715,-0.2013,-0.2013,-0.2013,-0.2614,-0.3915,-0.5122,-0.5222,-0.4016,-0.6532,-0.7208,-0.6067,-0.7525,-0.8229,0.0,0.0,0.0,-0.8486,-0.8625,-0.8682,-0.8693,-0.8828,-0.8808,-0.8682,-0.8665,-0.8567,-0.8418,-0.8292,-0.8245,-0.8225,-0.8089,-0.8038,-0.8038,-0.8038,-0.8038,-0.8038,-0.8038,-0.8038,-0.8233,-0.941,-0.9899,-1.0293,-1.1365,-1.1653,-1.1653,-1.1653,-1.1653,-1.1653,-1.1453,0.0,-1.1546,-1.1249,0.0,-1.1146,-1.1049,0.0,0.0,-0.9493,-0.8192,-0.7,-0.5924,-0.452,-0.3516,-0.3516,-0.1411,-0.0504,-0.1611,-0.0706,0.0,0.0,0.0,0.0,0.0,0.0,0.0,0.0,0.0,0.0,0.0,0.0,0.0,0.0,0.0,-0.0605,-0.1812,-0.1812,-0.2414,-0.3515,-0.3715,-0.442,-0.5527,-0.5829,-0.6731,-0.7736,-0.7633,-0.7637,-0.7736,-0.7736,-0.7839,-0.8038,-2.0399,-1.972,-1.8948,-1.7217,-1.6292,-1.5146,-1.3295,-1.175,-1.0096,-0.8237,-0.8038,-0.8038,-0.8038,-0.7537,-0.6631,-0.5322,-0.4622,-0.4321,-0.4321,-0.4463,-0.5101,-0.6428,-0.7115,-0.7153,-0.663,-0.7833,-0.818,-0.7547,-0.8239,-0.8941,0.0,0.0,-0.9926,-1.0027,-1.0097,-0.9595,-0.8849,-0.891,-0.8903,-0.8842,-0.8842,-0.8804,-0.8713,-0.8391,-0.8214,-0.813,-0.8062,-0.8038,-0.8038,-0.8038,-0.8038,-0.8038,-0.8038,-0.8531,-0.9312,-0.9801,-1.1068,-1.242,-1.2909,-1.3102,-1.3102,-1.3102,-1.3102,-1.3102,-1.3102,-1.359,-1.398,-1.3199,0.0,0.0,0.0,0.0,0.0,0.0,-0.9951,-0.8962,-0.8403,-0.6498,-0.4901,-0.4114,-0.3015,-0.2213,-0.2013,-0.1511,-0.0807,-0.0101,-0.0706,-0.0807,0.0,0.0,0.0,0.0,0.0,0.0,0.0,0.0,0.0,0.0,-0.0807,-0.141,-0.2013,-0.2815,-0.3515,-0.4016,-0.482,-0.5525,-0.6029,-0.6833,-0.7537,-0.8038,-0.8038,-0.8038,-0.8038,-0.8038,-0.8038,-0.8038,-2.1943,-2.0576,-1.9131,-1.787,-1.6669,-1.5337,-1.407,-1.1648,-0.9608,-0.8627,-0.8233,-0.8038,-0.8038,-0.8038,-0.7434,-0.6129,-0.6029,-0.6029,-0.6029,-0.623,-0.6916,-0.8269,-0.8408,-0.8482,-0.8482,-0.8523,-0.8751,-0.917,-0.9213,-1.0032,0.0,0.0,0.0,-1.1647,-1.1647,-1.0891,-0.9482,-0.9482,-0.9265,-0.894,-0.894,-0.8913,-0.8835,-0.8469,-0.8235,-0.8099,-0.8055,-0.8038,-0.8038,-0.8432,-0.8528,-0.8627,-0.892,-0.9702,-1.0583,-1.097,-1.242,-1.3974,-1.4364,-1.4459,-1.4459,-1.4459,-1.4459,-1.4459,-1.4459,-1.514,-1.5534,-1.4657,-1.4459,0.0,0.0,0.0,-1.2818,-1.2528,0.0,-1.0914,-1.0578,-0.8867,-0.6979,-0.5316,-0.4818,-0.4017,-0.2715,-0.2514,-0.2013,-0.0605,-0.1411,-0.1411,-0.0101,0.0,0.0,0.0,0.0,0.0,0.0,0.0,-0.0202,-0.0605,-0.1511,-0.2414,-0.3116,-0.4117,-0.4718,-0.512,-0.6126,-0.6531,-0.6631,-0.7637,-0.8038,-0.8038,-0.8038,-0.8038,-0.8038,-0.8038,-0.8038,-0.8038,-2.3047,-2.1132,-1.9131,-1.787,-1.6669,-1.5337,-1.407,-1.1648,-0.9998,-0.9899,-0.8825,-0.8038,-0.8038,-0.8038,-0.7434,-0.6129,-0.6029,-0.6029,-0.6029,-0.623,-0.6916,-0.8269,-0.8408,-0.8482,-0.8482,-0.8628,-0.9444,-1.0814,-1.1,-1.1738,0.0,0.0,0.0,-1.3264,-1.3264,-1.2403,-1.1,-1.1,-1.0241,-0.894,-0.894,-0.8849,-0.8699,-0.8537,-0.8387,-0.8245,-0.8092,-0.8038,-0.8237,-0.9509,-0.9899,-1.0194,-1.1361,-1.1848,-1.2042,-1.3392,-1.3872,-1.4166,-1.5432,-1.573,-1.573,-1.573,-1.573,-1.573,-1.573,-1.5737,-1.5825,-1.573,-1.573,-1.573,-1.5635,-1.5635,-1.5242,-1.407,-1.3776,0.0,0.0,-1.175,-1.0769,-0.8131,-0.6731,-0.5425,-0.4016,-0.3915,-0.3416,-0.2013,-0.2012,-0.1411,-0.0101,0.0,0.0,0.0,0.0,0.0,0.0,0.0,-0.0605,-0.1913,-0.2012,-0.3317,-0.5829,-0.5929,-0.6631,-0.7839,-0.7939,-0.7939,-0.7939,-0.7939,-0.8038,-0.8038,-0.8038,-0.8038,-0.8038,-0.8038,-0.8038,-0.8038,-2.3135,-2.1765,-2.0305,-1.9131,-1.721,-1.5337,-1.407,-1.3199,-1.194,-1.0194,-0.9608,-0.9019,-0.8137,-0.8038,-0.7839,-0.7335,-0.7335,-0.7375,-0.7468,-0.7698,-0.8027,-0.8557,-0.8706,-0.8784,-0.8784,-0.9802,-1.0582,-1.1012,-1.2045,-1.3264,0.0,0.0,0.0,-1.4663,-1.4663,-1.3911,-1.2512,-1.1538,-1.0781,-1.0241,-0.9265,-0.8906,-0.8832,-0.8577,-0.8394,-0.8252,-0.8096,-0.8531,-0.941,-0.9805,-1.0583,-1.1361,-1.1755,-1.2528,-1.3295,-1.3776,-1.4459,-1.5242,-1.5635,-1.5832,-1.5832,-1.5832,-1.5832,-1.5832,-1.5832,-1.5832,-1.5832,-1.5832,-1.5832,-1.5832,-1.5832,-1.5832,-1.5635,-1.5242,-1.5146,-1.4657,0.0,-1.2431,-1.1556,-1.0681,-0.8693,-0.7102,-0.6699,-0.5815,-0.472,-0.3416,-0.3316,-0.2715,-0.141,-0.0504,0.0,0.0,0.0,0.0,0.0,-0.0907,-0.1511,-0.2013,-0.382,-0.5125,-0.6029,-0.6933,-0.7537,-0.8038,-0.8038,-0.8038,-0.8038,-0.8038,-0.8038,-0.8038,-0.8038,-0.8038,-0.8038,-0.8038,-0.8038,-0.8038,-2.3135,-2.212,-2.0935,-1.967,-1.7483,-1.5534,-1.4657,-1.4166,-1.3102,-1.097,-1.0293,-0.9509,-0.8137,-0.8038,-0.8038,-0.8038,-0.8038,-0.8106,-0.8258,-0.8404,-0.855,-0.8703,-0.8855,-0.894,-0.894,-1.0351,-1.1324,-1.1864,-1.3372,-1.477,0.0,0.0,0.0,-1.6174,-1.6174,-1.5417,-1.4019,-1.3048,-1.2295,-1.1755,-1.0241,-0.9877,-1.0225,-0.941,-0.8834,-0.8422,-0.8607,-0.9312,-1.0096,-1.1068,-1.194,-1.2721,-1.3108,-1.3884,-1.4561,-1.4561,-1.5146,-1.5832,-1.5832,-1.5832,-1.5832,-1.5832,-1.5832,-1.5832,-1.5832,-1.5832,-1.5832,-1.5832,-1.5832,-1.5832,-1.5832,-1.5832,-1.5832,-1.5832,-1.5832,-1.5534,0.0,-1.3788,-1.3307,-1.3307,-1.0942,-0.9178,-0.8788,-0.7908,-0.6719,-0.482,-0.4718,-0.4117,-0.2815,-0.1913,-0.1411,-0.1411,-0.1411,-0.1411,-0.1411,-0.2314,-0.2916,-0.3417,-0.5125,-0.6232,-0.6734,-0.7637,-0.8038,-0.8038,-0.8038,-0.8038,-0.8038,-0.8038,-0.8038,-0.8038,-0.8038,-0.8038,-0.8038,-0.8038,-0.8038,-0.8038,-2.3135,-2.212,-2.0935,-1.967,-1.7483,-1.5825,-1.5832,-1.4752,-1.3488,-1.2139,-1.0974,-0.9702,-0.8333,-0.8237,-0.8137,-0.8137,-0.8137,-0.8206,-0.8371,-0.8512,-0.8656,-0.8928,-0.9078,-0.9154,-0.9154,-1.0566,-1.1969,-1.3372,-1.477,-1.628,0.0,0.0,0.0,0.0,-1.7582,-1.6823,-1.5524,-1.5417,-1.4556,-1.3156,-1.1755,-1.185,-1.2595,-1.1132,-0.9715,-0.8845,-0.9734,-1.0096,-1.0583,-1.3102,-1.3974,-1.4166,-1.5439,-1.5832,-1.5832,-1.5832,-1.5832,-1.5832,-1.5832,-1.5832,-1.5832,-1.5832,-1.5832,-1.5832,-1.5832,-1.5832,-1.5832,-1.5832,-1.5832,-1.5832,-1.5832,-1.5832,-1.5832,-1.5832,-1.5832,-1.5832,-1.5832,-1.5832,-1.5832,-1.5832,-1.3596,-1.1556,-1.0288,-1.0096,-0.8905,-0.6426,-0.6029,-0.5425,-0.4216,-0.4016,-0.4016,-0.4016,-0.4016,-0.4016,-0.4016,-0.4016,-0.472,-0.6029,-0.6029,-0.6731,-0.8038,-0.8038,-0.8038,-0.8038,-0.8038,-0.8038,-0.8038,-0.8038,-0.8038,-0.8038,-0.8038,-0.8038,-0.8038,-0.8038,-0.8038,-0.8038,-2.3299,-2.212,-2.0935,-1.967,-1.8226,-1.685,-1.592,-1.5534,-1.4854,-1.359,-1.3102,-1.2425,-1.1068,-1.0877,-1.0485,-0.9608,-0.9509,-0.9638,-1.0042,-1.0107,-1.0687,-1.2093,-1.2158,-1.2186,-1.2186,-1.3583,-1.4449,-1.4877,-1.628,-1.7252,-1.7582,0.0,0.0,0.0,-1.7582,-1.7364,-1.6929,-1.5849,-1.4556,-1.3264,-1.294,-1.2812,-1.27,-1.227,-1.168,-1.1212,-1.1358,-1.2037,-1.3,-1.368,-1.4555,-1.5337,-1.573,-1.5832,-1.5832,-1.5832,-1.5832,-1.5832,-1.5832,-1.5832,-1.5832,-1.5832,-1.5832,-1.5832,-1.5832,-1.5832,-1.5832,-1.5832,-1.5832,-1.5832,-1.5832,-1.5832,-1.5832,-1.5832,-1.5832,-1.5832,-1.5832,-1.5832,-1.5832,-1.5832,-1.437,-1.3295,-1.2904,-1.1165,-0.9702,-0.9004,-0.712,-0.5829,-0.5525,-0.4518,-0.4016,-0.4016,-0.4016,-0.4016,-0.4016,-0.502,-0.5627,-0.6029,-0.7033,-0.7637,-0.8038,-0.8038,-0.8038,-0.8038,-0.8038,-0.8038,-0.8038,-0.8038,-0.8038,-0.8038,-0.8038,-0.8038,-0.8038,-0.8038,-0.8038,-0.8038,-2.3299,-2.258,-2.1578,-1.9761,-1.9405,-1.8488,-1.6197,-1.5832,-1.5337,-1.407,-1.3878,-1.3392,-1.2042,-1.1945,-1.1658,-1.0877,-1.0877,-1.1005,-1.1314,-1.1518,-1.2026,-1.3001,-1.3214,-1.3264,-1.3264,-1.4663,-1.5417,-1.5417,-1.6929,-1.7582,-1.7582,0.0,0.0,0.0,-1.7582,-1.7582,-1.7582,-1.6711,-1.5849,-1.5085,-1.4333,-1.4256,0.0,-1.356,-1.3518,-1.3785,-1.3642,-1.3686,-1.3974,-1.4555,-1.5242,-1.5832,-1.5832,-1.5832,-1.5832,-1.5832,-1.5832,-1.5832,-1.5832,-1.5832,-1.5832,-1.5832,-1.5832,-1.5832,-1.5832,-1.5832,-1.5832,-1.5832,-1.5832,-1.5832,-1.5832,-1.5832,-1.5832,-1.5832,-1.5832,-1.5832,-1.5832,-1.5832,-1.5832,-1.5832,-1.5146,-1.4752,-1.4752,-1.1843,-1.0194,-1.0779,-0.8901,-0.7717,-0.7717,-0.7009,-0.631,-0.572,-0.5722,-0.5722,-0.5722,-0.6528,-0.6833,-0.6933,-0.7637,-0.8038,-0.8038,-0.8038,-0.8038,-0.8038,-0.8038,-0.8038,-0.8038,-0.8038,-0.8038,-0.8038,-0.8038,-0.8038,-0.8038,-0.8038,-0.8038,-0.8038,-2.3387,-2.3135,-2.2403,-2.0133,-2.0576,-2.0206,-1.6835,-1.6292,-1.5805,-1.4543,-1.4447,-1.3872,-1.2528,-1.2431,-1.2334,-1.2139,-1.2139,-1.2232,-1.2453,-1.2648,-1.2977,-1.3341,-1.3651,-1.3879,-1.3911,-1.5097,-1.5743,-1.5743,-1.6929,-1.7582,-1.7582,-1.7582,0.0,-1.7582,-1.7582,-1.7582,-1.7582,-1.7582,-1.7562,-1.7397,-1.5866,-1.58,-1.6514,-1.4955,-1.4996,-1.5832,-1.5832,-1.5051,-1.4364,-1.5439,-1.5832,-1.5832,-1.5832,-1.5832,-1.5832,-1.5832,-1.5832,-1.5832,-1.5832,-1.5832,-1.5832,-1.5832,-1.5832,-1.5832,-1.5832,-1.5832,-1.5832,-1.5832,-1.5832,-1.5832,-1.5832,-1.5832,-1.5832,-1.5832,-1.5832,-1.5832,-1.5832,-1.5832,-1.5832,-1.5832,-1.5635,0.0,-1.5825,-1.2619,-1.0974,-1.2042,-1.0974,-1.0194,-0.9998,-0.9998,-0.941,-0.8038,-0.8038,-0.8038,-0.8038,-0.8038,-0.8038,-0.8038,-0.8038,-0.8038,-0.8038,-0.8038,-0.8038,-0.8038,-0.8038,-0.8038,-0.8038,-0.8038,-0.8038,-0.8038,-0.8038,-0.8038,-0.8038,-0.8038,-0.8038,-0.8038,-2.3474,-2.3135,-2.2677,-2.1212,-2.1203,-2.0747,-1.9123,-1.8856,-1.8395,-1.7203,-1.7023,-1.6553,-1.5242,-1.5146,-1.4657,-1.368,-1.359,-1.3693,-1.3941,-1.3998,-1.4737,-1.6388,-1.6458,-1.6593,-1.6823,-1.7041,-1.7259,-1.7259,-1.747,-1.7582,-1.7582,-1.7582,-1.7582,-1.7582,-1.7582,-1.7582,-1.7582,-1.7582,-1.7442,-1.7221,-1.6955,-1.6619,-1.6339,-1.5993,-1.5886,-1.5832,-1.5832,-1.5635,-1.5534,-1.573,-1.5832,-1.5832,-1.5832,-1.5832,-1.5832,-1.5832,-1.5832,-1.5832,-1.5832,-1.5832,-1.5832,-1.5832,-1.5832,-1.5832,-1.5832,-1.5832,-1.5832,-1.5832,-1.5832,-1.5832,-1.5832,-1.5832,-1.5832,-1.5832,-1.5832,-1.5832,-1.5832,-1.5832,-1.5832,-1.5832,-1.4848,-1.4657,-1.573,-1.4268,-1.3295,-1.3488,-1.2334,-1.1072,-1.0096,-0.9998,-0.941,-0.8038,-0.8038,-0.8038,-0.8038,-0.8038,-0.8038,-0.8038,-0.8038,-0.8038,-0.8038,-0.8038,-0.8038,-0.8038,-0.8038,-0.8038,-0.8038,-0.8038,-0.8038,-0.8038,-0.8038,-0.8038,-0.8038,-0.8038,-0.8038,-0.8038,-2.3474,-2.3135,-2.2677,-2.148,-2.1845,-2.1854,-2.0576,-2.0944,-2.0674,-1.8864,-1.8588,-1.8403,-1.7755,-1.7755,-1.7196,-1.5967,-1.588,-1.5655,-1.5133,-1.5278,-1.5783,-1.668,-1.684,-1.7456,-1.8363,-1.8473,-1.8447,-1.8603,-1.8603,-1.8603,-1.8603,-1.7891,-1.7989,-1.861,-1.7891,-1.7582,-1.7569,-1.7422,-1.7275,-1.7121,-1.682,-1.6526,-1.6253,-1.6106,-1.5952,-1.5832,-1.5832,-1.5832,-1.5832,-1.5832,-1.5832,-1.5832,-1.5832,-1.5832,-1.5832,-1.5832,-1.5832,-1.5832,-1.5832,-1.5832,-1.5832,-1.5832,-1.5832,-1.5832,-1.5832,-1.5832,-1.5832,-1.5832,-1.5832,-1.5832,-1.5832,-1.5832,-1.5832,-1.5832,-1.5832,-1.5832,-1.5832,-1.5832,-1.5832,-1.5832,-1.5242,-1.5146,-1.573,-1.5242,-1.4657,-1.3974,-1.3295,-1.2037,-1.0096,-1.0583,-1.0092,-0.8038,-0.8038,-0.8038,-0.8038,-0.8038,-0.8038,-0.8038,-0.8038,-0.8038,-0.8038,-0.8038,-0.8038,-0.8038,-0.8038,-0.8038,-0.8038,-0.8038,-0.8038,-0.8038,-0.8038,-0.8038,-0.8038,-0.8038,-0.8038,-0.8038,-2.3299,-2.3135,-2.2775,-2.1845,-2.2492,-2.2775,-2.1845,-2.2492,-2.2325,-2.0133,-1.9861,-1.9761,-1.9497,-1.9497,-1.9131,-1.8141,-1.8048,-1.7677,-1.6655,-1.6791,-1.7056,-1.7022,-1.7253,-1.8016,-1.943,-1.943,-1.9466,-1.9316,-1.939,-1.9287,-1.892,-1.8032,-1.8199,-1.9117,-1.8032,-1.7488,-1.7468,-1.7181,-1.7021,-1.6921,-1.646,-1.6239,-1.6152,-1.5919,-1.5832,-1.5832,-1.5832,-1.5832,-1.5832,-1.5832,-1.5832,-1.5832,-1.5832,-1.5832,-1.5832,-1.5832,-1.5832,-1.5832,-1.5832,-1.5832,-1.5832,-1.5832,-1.5832,-1.5832,-1.5832,-1.5832,-1.5832,-1.5832,-1.5832,-1.5832,-1.5832,-1.5832,-1.5832,-1.5832,-1.5832,-1.5832,-1.5832,-1.5832,-1.5832,-1.5832,-1.5832,-1.5832,-1.5832,-1.5832,-1.5242,-1.3974,-1.3878,-1.2909,-1.0485,-1.1072,-1.0583,-0.8531,-0.8137,-0.8137,-0.8432,-0.8137,-0.8038,-0.8038,-0.8038,-0.8038,-0.8038,-0.8038,-0.8038,-0.8038,-0.8038,-0.8038,-0.8038,-0.8038,-0.8038,-0.8038,-0.8038,-0.8038,-0.8038,-0.8038,-0.8062,-0.8089,-2.3299,-2.3135,-2.3047,-2.296,-2.3047,-2.3047,-2.296,-2.3047,-2.2599,-2.1329,-2.1123,-2.0747,-1.9579,-1.9497,-1.9488,-1.9314,-1.9314,-1.9314,-1.9131,-1.9155,-1.9317,-1.9547,-1.9587,-1.9773,-2.0329,-2.0337,-1.9771,-1.8647,-1.8952,-1.8347,-1.6995,-1.7432,-1.7687,-1.7779,-1.7412,-1.7188,-1.7174,-1.6874,-1.6593,-1.6353,-1.6293,-1.6112,-1.5865,-1.5838,-1.5832,-1.5832,-1.5832,-1.5832,-1.5832,-1.5832,-1.5832,-1.5832,-1.5832,-1.5832,-1.5832,-1.5832,-1.5832,-1.5832,-1.5832,-1.5832,-1.5832,-1.5832,-1.5832,-1.5832,-1.5832,-1.5832,-1.5832,-1.5832,-1.5832,-1.5832,-1.5832,-1.5832,-1.5832,-1.5832,-1.5832,-1.5832,-1.5832,-1.5832,-1.5832,-1.5832,-1.5832,-1.5832,-1.5832,-1.5832,-1.5242,-1.3974,-1.3878,-1.3295,-1.1848,-1.0779,-1.0096,-0.9801,-0.8627,-0.8627,-0.9805,-0.8627,-0.8038,-0.8038,-0.8038,-0.8038,-0.8038,-0.8038,-0.8038,-0.8038,-0.8038,-0.8038,-0.8038,-0.8038,-0.8038,-0.8038,-0.8038,-0.8038,-0.8038,-0.8038,-0.813,-0.8248,-2.5389,-2.4553,-2.4125,-2.4125,-2.3551,-2.3135,-2.3135,-2.3135,-2.296,-2.2413,-2.2403,-2.2217,-2.1676,-2.1676,-2.14,-2.0666,-2.0576,-2.0305,-1.9588,-1.9497,-1.9554,-1.9703,-1.9703,-2.0163,-2.1301,-2.1404,-2.0838,-1.9805,-2.0055,-1.946,-1.816,-1.7613,-1.7627,-1.8145,-1.8024,-1.7967,-1.7946,-1.6857,-1.638,-1.6259,-1.6079,-1.5939,-1.5832,-1.5832,-1.5832,-1.5832,-1.5832,-1.5832,-1.5832,-1.5832,-1.5832,-1.5832,-1.5832,-1.5832,-1.5832,-1.5832,-1.5832,-1.5832,-1.5832,-1.5832,-1.5832,-1.5832,-1.5832,-1.5832,-1.5832,-1.5832,-1.5832,-1.5832,-1.5832,-1.5832,-1.5832,-1.5832,-1.5832,-1.5832,-1.5832,-1.5832,-1.5832,-1.5832,-1.5832,-1.5832,-1.5832,-1.5832,-1.5832,-1.5832,-1.5635,-1.5045,-1.5045,-1.4076,-1.2042,-1.1463,-1.117,-1.117,-0.9118,-0.8627,-0.9998,-0.8627,-0.8038,-0.8038,-0.8038,-0.8038,-0.8038,-0.8038,-0.8038,-0.8038,-0.8038,-0.8038,-0.8038,-0.8038,-0.8038,-0.8038,-0.8038,-0.8038,-0.8052,-0.8143,-0.8218,-0.8296,-2.6719,-2.588,-2.5294,-2.5294,-2.4382,-2.3637,-2.3637,-2.3299,-2.3135,-2.3135,-2.3135,-2.3135,-2.3135,-2.3135,-2.2765,-2.1933,-2.1845,-2.1489,-2.0584,-2.0584,-2.0584,-2.0584,-2.0584,-2.1086,-2.2307,-2.2307,-2.1787,-2.0814,-2.1092,-2.0549,-1.9298,-1.8416,-1.8386,-1.9033,-1.8551,-1.8416,-1.8296,-1.6836,-1.6146,-1.6126,-1.5912,-1.5832,-1.5832,-1.5832,-1.5832,-1.5832,-1.5832,-1.5832,-1.5832,-1.5832,-1.5832,-1.5832,-1.5832,-1.5832,-1.5832,-1.5832,-1.5832,-1.5832,-1.5832,-1.5832,-1.5832,-1.5832,-1.5832,-1.5832,-1.5832,-1.5832,-1.5832,-1.5832,-1.5832,-1.5832,-1.5832,-1.5832,-1.5832,-1.5832,-1.5832,-1.5832,-1.5832,-1.5832,-1.5832,-1.5832,-1.5832,-1.5832,-1.5832,-1.5832,-1.5832,-1.5832,-1.5832,-1.4854,-1.2624,-1.2139,-1.2042,-1.2528,-1.0288,-0.9604,-1.0583,-0.9217,-0.8432,-0.8038,-0.8038,-0.8038,-0.8038,-0.8038,-0.8038,-0.8038,-0.8038,-0.8038,-0.8038,-0.8038,-0.8038,-0.8038,-0.8038,-0.8069,-0.8123,-0.8231,-0.8326,-0.8428,-2.6719,-2.6483,-2.6472,-2.6472,-2.5546,-2.4787,-2.4787,-2.38,-2.3135,-2.3135,-2.3135,-2.3135,-2.3135,-2.3135,-2.3047,-2.3047,-2.3047,-2.3047,-2.3047,-2.3047,-2.3047,-2.3047,-2.3047,-2.3057,-2.3057,-2.3057,-2.2501,-2.1311,-2.1643,-2.0994,-1.9521,-1.9775,-2.0042,-2.0272,-1.8785,-1.8082,-1.7964,-1.6429,-1.5832,-1.5832,-1.5832,-1.5832,-1.5832,-1.5832,-1.5832,-1.5832,-1.5832,-1.5832,-1.5832,-1.5832,-1.5832,-1.5832,-1.5832,-1.5832,-1.5832,-1.5832,-1.5832,-1.5832,-1.5832,-1.5832,-1.5832,-1.5832,-1.5832,-1.5832,-1.5832,-1.5832,-1.5832,-1.5832,-1.5832,-1.5832,-1.5832,-1.5832,-1.5832,-1.5832,-1.5832,-1.5832,-1.5832,-1.5832,-1.5832,-1.5832,-1.5832,-1.5832,-1.5832,-1.5832,-1.5832,-1.5832,-1.5832,-1.5242,-1.3974,-1.2619,-1.2528,-1.3872,-1.2522,-1.1848,-1.1853,-1.0583,-0.9312,-0.8038,-0.8038,-0.8038,-0.8038,-0.8038,-0.8038,-0.8038,-0.8038,-0.8038,-0.8038,-0.8038,-0.8038,-0.8038,-0.8038,-0.8133,-0.8269,-0.8272,-0.8455,-0.8706,-2.8791,-2.8119,-2.7602,-2.7602,-2.6707,-2.5975,-2.5975,-2.5641,-2.5136,-2.4382,-2.4296,-2.3963,-2.3222,-2.3135,-2.3135,-2.3135,-2.3135,-2.3135,-2.3135,-2.3135,-2.3135,-2.3135,-2.3135,-2.3135,-2.3135,-2.3135,-2.2492,-2.1293,-2.1634,-2.1107,-1.9767,-2.0737,-2.109,-2.1024,-2.0529,-1.9845,-1.8923,-1.7628,-1.6574,-1.5832,-1.5832,-1.5832,-1.5832,-1.5832,-1.5832,-1.5832,-1.5832,-1.5832,-1.5832,-1.5832,-1.5832,-1.5832,-1.5832,-1.5832,-1.5832,-1.5832,-1.5832,-1.5832,-1.5832,-1.5832,-1.5832,-1.5832,-1.5832,-1.5832,-1.5832,-1.5832,-1.5832,-1.5832,-1.5832,-1.5832,-1.5832,-1.5832,-1.5832,-1.5832,-1.5832,-1.5832,-1.5832,-1.5832,-1.5832,-1.5832,-1.5832,-1.5832,-1.5832,-1.5832,-1.5832,-1.5832,-1.5832,-1.5635,-1.5242,-1.398,-1.3878,-1.5146,-1.3011,-1.2334,-1.3295,-1.1945,-1.0681,-0.941,-0.941,-0.8924,-0.8038,-0.8038,-0.8038,-0.8038,-0.8038,-0.8038,-0.8038,-0.8038,-0.8038,-0.8052,-0.8153,-0.8228,-0.8296,-0.8496,-0.8628,-0.8723,-2.9792,-2.9197,-2.8767,-2.8767,-2.7867,-2.7128,-2.7128,-2.6719,-2.6058,-2.4957,-2.4787,-2.4382,-2.3222,-2.3135,-2.3135,-2.3135,-2.3135,-2.3135,-2.3135,-2.3135,-2.3135,-2.3135,-2.3135,-2.3135,-2.3135,-2.3135,-2.2765,-2.1943,-2.2212,-2.188,-2.1116,-2.188,-2.2203,-2.1943,-2.148,-2.0666,-1.9405,-1.8234,-1.6943,-1.5832,-1.5832,-1.5832,-1.5832,-1.5832,-1.5832,-1.5832,-1.5832,-1.5832,-1.5832,-1.5832,-1.5832,-1.5832,-1.5832,-1.5832,-1.5832,-1.5832,-1.5832,-1.5832,-1.5832,-1.5832,-1.5832,-1.5832,-1.5832,-1.5832,-1.5832,-1.5832,-1.5832,-1.5832,-1.5832,-1.5832,-1.5832,-1.5832,-1.5832,-1.5832,-1.5832,-1.5832,-1.5832,-1.5832,-1.5832,-1.5832,-1.5832,-1.5832,-1.5832,-1.5832,-1.5832,-1.5832,-1.5832,-1.5832,-1.5832,-1.5045,-1.4949,-1.5737,-1.4178,-1.3494,-1.3878,-1.3102,-1.175,-0.9998,-0.9509,-0.9118,-0.8726,-0.8233,-0.8233,-0.8726,-0.8237,-0.8333,-0.8726,-0.8237,-0.8072,-0.8136,-0.8235,-0.8336,-0.8459,-0.8642,-0.8747,-0.8811,-2.9792,-2.9792,-2.9792,-2.9792,-2.8937,-2.8255,-2.8255,-2.7371,-2.6307,-2.5199,-2.5031,-2.4542,-2.3387,-2.3222,-2.3222,-2.3144,-2.3135,-2.3135,-2.3135,-2.3135,-2.3135,-2.3135,-2.3135,-2.3135,-2.3135,-2.3135,-2.3135,-2.3135,-2.3135,-2.3135,-2.3135,-2.3135,-2.3135,-2.3047,-2.1933,-2.0755,-1.9588,-1.8319,-1.7131,-1.6015,-1.6015,-1.6015,-1.6015,-1.592,-1.592,-1.592,-1.5832,-1.5832,-1.5832,-1.5832,-1.5832,-1.5832,-1.5832,-1.5832,-1.5832,-1.5832,-1.5832,-1.5832,-1.5832,-1.5832,-1.5832,-1.5832,-1.5832,-1.5832,-1.5832,-1.5832,-1.5832,-1.5832,-1.5832,-1.5832,-1.5832,-1.5832,-1.5832,-1.5832,-1.5832,-1.5832,-1.5832,-1.5832,-1.5832,-1.5832,-1.5832,-1.5832,-1.5832,-1.5832,-1.5832,-1.5832,-1.5832,-1.5832,-1.5832,-1.5832,-1.5832,-1.5832,-1.5832,-1.5242,-1.407,-1.407,-1.2813,-1.0293,-0.892,-0.8924,-0.9998,-0.8726,-0.8726,-0.9801,-0.8627,-0.8825,-0.9805,-0.8627,-0.823,-0.8272,-0.8282,-0.8459,-0.8713,-0.8723,-0.8815,-0.894,-2.9792,-2.9792,-2.9792,-2.9792,-2.9611,-2.9365,-2.9365,-2.9197,-2.8621,-2.7429,-2.7348,-2.6603,-2.4617,-2.4372,-2.4049,-2.3135,-2.3135,-2.3135,-2.3135,-2.3135,-2.3135,-2.3135,-2.3135,-2.3135,-2.3135,-2.3135,-2.3135,-2.3135,-2.3135,-2.3135,-2.3135,-2.3135,-2.3135,-2.3057,-2.2775,-2.2031,-2.0755,-1.9588,-1.8856,-1.858,-1.7584,-1.7762,-1.8488,-1.7584,-1.7225,-1.7131,-1.6109,-1.5832,-1.5832,-1.5832,-1.5832,-1.5832,-1.5832,-1.5832,-1.5832,-1.5832,-1.5832,-1.5832,-1.5832,-1.5832,-1.5832,-1.5832,-1.5832,-1.5832,-1.5832,-1.5832,-1.5832,-1.5832,-1.5832,-1.5832,-1.5832,-1.5832,-1.5832,-1.5832,-1.5832,-1.5832,-1.5832,-1.5832,-1.5832,-1.5832,-1.5832,-1.5832,-1.5832,-1.5832,-1.5832,-1.5832,-1.5832,-1.5832,-1.5832,-1.5832,-1.5832,-1.5832,-1.5832,-1.5635,-1.5343,-1.5343,-1.4561,-1.3006,-1.1648,-1.0583,-0.9998,-0.9706,-0.9118,-0.8531,-0.9217,-0.9118,-0.8531,-0.9217,-0.9022,-0.8282,-0.8391,-0.8547,-0.8723,-0.8842,-0.8906,-0.894,-2.9741,-2.9792,-2.9792,-2.9792,-2.9792,-2.9792,-2.9792,-2.9792,-2.9365,-2.8255,-2.8096,-2.7441,-2.5797,-2.5126,-2.4542,-2.3963,-2.3387,-2.3135,-2.3135,-2.3135,-2.3135,-2.3135,-2.3135,-2.3135,-2.3135,-2.3135,-2.3135,-2.3135,-2.3135,-2.3135,-2.3135,-2.3135,-2.3135,-2.3135,-2.3135,-2.2403,-2.1293,-2.0576,-2.0034,-1.9405,-1.8772,-1.8956,-1.9405,-1.8772,-1.8141,-1.7598,-1.6943,-1.6292,-1.5832,-1.5832,-1.5832,-1.5832,-1.5832,-1.5832,-1.5832,-1.5832,-1.5832,-1.5832,-1.5832,-1.5832,-1.5832,-1.5832,-1.5832,-1.5832,-1.5832,-1.5832,-1.5832,-1.5832,-1.5832,-1.5832,-1.5832,-1.5832,-1.5832,-1.5832,-1.5832,-1.5832,-1.5832,-1.5832,-1.5832,-1.5832,-1.5832,-1.5832,-1.5832,-1.5832,-1.5832,-1.5832,-1.5832,-1.5832,-1.5832,-1.5832,-1.5832,-1.5832,-1.5832,-1.5832,-1.5832,-1.5242,-1.4854,-1.4752,-1.2818,-1.1848,-1.1745,-1.1165,-1.0485,-0.9801,-1.0583,-1.0485,-0.9805,-0.9987,-0.973,-0.9198,-0.8737,-0.8679,-0.8825,-0.891,-0.894,-0.894,-2.9566,-2.9729,-2.9792,-2.9792,-2.9792,-2.9792,-2.9792,-2.9792,-2.9443,-2.8505,-2.8347,-2.7936,-2.6883,-2.5714,-2.4957,-2.4787,-2.38,-2.3135,-2.3135,-2.3135,-2.3135,-2.3135,-2.3135,-2.3135,-2.3135,-2.3135,-2.3135,-2.3135,-2.3135,-2.3135,-2.3135,-2.3135,-2.3135,-2.3135,-2.3135,-2.2492,-2.1569,-2.1391,-2.0845,-2.0042,-1.9852,-1.9861,-2.0034,-1.9852,-1.9131,-1.8234,-1.787,-1.7124,-1.6285,-1.592,-1.592,-1.6015,-1.5825,-1.5832,-1.5832,-1.5832,-1.5832,-1.5832,-1.5832,-1.5832,-1.5832,-1.5832,-1.5832,-1.5832,-1.5832,-1.5832,-1.5832,-1.5832,-1.5832,-1.5832,-1.5832,-1.5832,-1.5832,-1.5832,-1.5832,-1.5832,-1.5832,-1.5832,-1.5832,-1.5832,-1.5832,-1.5832,-1.5832,-1.5832,-1.5832,-1.5832,-1.5832,-1.5832,-1.5832,-1.5832,-1.5832,-1.5832,-1.5832,-1.5832,-1.5832,-1.4752,-1.4752,-1.5737,-1.3596,-1.3011,-1.3872,-1.2716,-1.2042,-1.195,-1.2139,-1.1945,-1.1575,-1.0784,-1.0374,-1.0048,-0.9073,-0.8804,-0.894,-0.894,-0.894,-0.894,-2.9038,-2.9453,-2.9792,-2.9792,-2.9792,-2.9792,-2.9792,-2.9792,-2.9714,-2.9546,-2.9534,-2.9118,-2.7936,-2.6871,-2.588,-2.4872,-2.38,-2.3135,-2.3135,-2.3135,-2.3135,-2.3135,-2.3135,-2.3135,-2.3135,-2.3135,-2.3135,-2.3135,-2.3135,-2.3135,-2.3135,-2.3135,-2.3135,-2.3135,-2.3135,-2.296,-2.2765,-2.1756,-2.1756,-2.2403,-2.1391,-2.1667,-2.2403,-2.1391,-2.0935,-2.0486,-1.8411,-1.8226,-1.858,-1.6473,-1.648,-1.7225,-1.6109,-1.5832,-1.5832,-1.5832,-1.5832,-1.5832,-1.5832,-1.5832,-1.5832,-1.5832,-1.5832,-1.5832,-1.5832,-1.5832,-1.5832,-1.5832,-1.5832,-1.5832,-1.5832,-1.5832,-1.5832,-1.5832,-1.5832,-1.5832,-1.5832,-1.5832,-1.5832,-1.5832,-1.5832,-1.5832,-1.5832,-1.5832,-1.5832,-1.5832,-1.5832,-1.5832,-1.5832,-1.5832,-1.5832,-1.5832,-1.5832,-1.5832,-1.5832,-1.5629,-1.5629,-1.5832,-1.5343,-1.4758,-1.3872,-1.368,-1.3006,-1.1945,-1.3102,-1.2328,-1.0404,-1.1482,-1.068,-0.8808,-0.8755,-0.8804,-0.894,-0.894,-0.894,-0.894,-2.8812,-2.9139,-2.9428,-2.9741,-2.9792,-2.9792,-2.9792,-2.9792,-2.9792,-2.9792,-2.9287,-2.8937,-2.9028,-2.7545,-2.6307,-2.5797,-2.4628,-2.38,-2.3135,-2.3135,-2.3135,-2.3135,-2.3135,-2.3135,-2.3135,-2.3135,-2.3135,-2.3135,-2.3135,-2.3135,-2.3135,-2.3135,-2.3135,-2.3135,-2.3135,-2.3135,-2.3047,-2.2492,-2.2589,-2.3047,-2.2492,-2.2589,-2.3047,-2.2492,-2.1845,-2.1114,-2.0034,-1.9579,-1.9314,-1.8211,-1.8218,-1.8588,-1.794,-1.7304,-1.685,-1.685,-1.6386,-1.5832,-1.5832,-1.5832,-1.5832,-1.5832,-1.5832,-1.5832,-1.5832,-1.5832,-1.5832,-1.5832,-1.5832,-1.5832,-1.5832,-1.5832,-1.5832,-1.5832,-1.5832,-1.5832,-1.5832,-1.5832,-1.5832,-1.5832,-1.5832,-1.5832,-1.5832,-1.5832,-1.5832,-1.5832,-1.5832,-1.5832,-1.5832,-1.5832,-1.5832,-1.5832,-1.5832,-1.5832,-1.5832,-1.5832,-1.5832,-1.5832,-1.5832,-1.5534,-1.4949,-1.4949,-1.4172,-1.3011,-1.4364,-1.3878,-1.216,-1.2209,-1.1592,-1.0473,-0.9277,-0.8876,-0.894,-0.894,-0.894,-0.9047,-2.8549,-2.8837,-2.9114,-2.9691,-2.9792,-2.9792,-2.9792,-2.9546,-2.9365,-2.9365,-2.8438,-2.8028,-2.8961,-2.7302,-2.6141,-2.6141,-2.5041,-2.4049,-2.3135,-2.3135,-2.3135,-2.3135,-2.3135,-2.3135,-2.3135,-2.3135,-2.3135,-2.3135,-2.3135,-2.3135,-2.3135,-2.3135,-2.3135,-2.3135,-2.3135,-2.3135,-2.3135,-2.3135,-2.3135,-2.3135,-2.3135,-2.3135,-2.3135,-2.3135,-2.2492,-2.1658,-2.1391,-2.0845,-2.0223,-1.9679,-1.9679,-1.9852,-1.9588,-1.8864,-1.8141,-1.8141,-1.7397,-1.656,-1.592,-1.5832,-1.5832,-1.5832,-1.5832,-1.5832,-1.5832,-1.5832,-1.5832,-1.5832,-1.5832,-1.5832,-1.5832,-1.5832,-1.5832,-1.5832,-1.5832,-1.5832,-1.5832,-1.5832,-1.5832,-1.5832,-1.5832,-1.5832,-1.5832,-1.5832,-1.5832,-1.5832,-1.5832,-1.5832,-1.5832,-1.5832,-1.5832,-1.5832,-1.5832,-1.5832,-1.5832,-1.5832,-1.5832,-1.5832,-1.5832,-1.5832,-1.5832,-1.5832,-1.514,-1.3974,-1.5242,-1.479,-1.3019,-1.2542,-1.2019,-1.1376,-0.9588,-0.894,-0.894,-0.894,-0.9154,-0.9592,-2.8047,-2.8574,-2.9114,-2.9691,-2.9792,-2.9792,-2.9792,-2.8937,-2.8255,-2.8255,-2.729,-2.6637,-2.673,-2.563,-2.4957,-2.4957,-2.3877,-2.3222,-2.3144,-2.3135,-2.3135,-2.3135,-2.3135,-2.3135,-2.3135,-2.3135,-2.3135,-2.3135,-2.3135,-2.3135,-2.3135,-2.3135,-2.3135,-2.3135,-2.3135,-2.3135,-2.3135,-2.3135,-2.3135,-2.3135,-2.3135,-2.3135,-2.3135,-2.3135,-2.3047,-2.2862,-2.1658,-2.1943,-2.2501,-2.0223,-2.0215,-2.0935,-1.9852,-1.9405,-1.9405,-1.9405,-1.9306,-1.8764,-1.6379,-1.5832,-1.5832,-1.5832,-1.5832,-1.5832,-1.5832,-1.5832,-1.5832,-1.5832,-1.5832,-1.5832,-1.5832,-1.5832,-1.5832,-1.5832,-1.5832,-1.5832,-1.5832,-1.5832,-1.5832,-1.5832,-1.5832,-1.5832,-1.5832,-1.5832,-1.5832,-1.5832,-1.5832,-1.5832,-1.5832,-1.5832,-1.5832,-1.5832,-1.5832,-1.5832,-1.5832,-1.5832,-1.5832,-1.5832,-1.5832,-1.5832,-1.5832,-1.5832,-1.514,-1.3974,-1.5242,-1.3813,-1.0558,-1.1894,-1.1067,-0.8921,-0.8876,-0.894,-0.894,-0.894,-0.9805,-1.1,-2.7494,-2.8047,-2.8599,-2.9151,-2.9553,-2.9792,-2.9792,-2.8858,-2.8347,-2.9028,-2.6953,-2.5964,-2.736,-2.587,-2.4787,-2.4787,-2.4372,-2.3887,-2.3135,-2.3135,-2.3135,-2.3135,-2.3135,-2.3135,-2.3135,-2.3135,-2.3135,-2.3135,-2.3135,-2.3135,-2.3135,-2.3135,-2.3135,-2.3135,-2.3135,-2.3135,-2.3135,-2.3135,-2.3135,-2.3135,-2.3135,-2.3135,-2.3135,-2.3135,-2.3135,-2.3047,-2.2589,-2.2677,-2.296,-2.2041,-2.2041,-2.2306,-2.1863,-2.1212,-2.0486,-1.9761,-1.9497,-1.9306,-1.8303,-1.8126,-1.8126,-1.8126,-1.749,-1.6943,-1.6943,-1.6386,-1.5832,-1.5832,-1.5832,-1.5832,-1.5832,-1.5832,-1.5832,-1.5832,-1.648,-1.6669,-1.592,-1.648,-1.6669,-1.592,-1.5832,-1.5832,-1.5832,-1.5832,-1.5832,-1.5832,-1.5832,-1.5832,-1.5832,-1.5832,-1.5832,-1.5832,-1.5832,-1.5832,-1.5832,-1.5832,-1.5832,-1.5832,-1.5832,-1.5832,-1.5832,-1.5832,-1.5534,-1.514,-1.5635,-1.4612,-1.2683,-1.3426,-1.2729,-1.1265,-1.1571,-1.1647,-1.1647,-1.1647,-1.1969,-1.262,-2.7168,-2.772,-2.8285,-2.8837,-2.9402,-2.9792,-2.9792,-2.8858,-2.8347,-2.9184,-2.6696,-2.5368,-2.693,-2.5368,-2.4296,-2.4296,-2.4296,-2.3963,-2.3135,-2.3135,-2.3135,-2.3135,-2.3135,-2.3135,-2.3135,-2.3135,-2.3135,-2.3135,-2.3135,-2.3135,-2.3135,-2.3135,-2.3135,-2.3135,-2.3135,-2.3135,-2.3135,-2.3135,-2.3135,-2.3135,-2.3135,-2.3135,-2.3135,-2.3135,-2.3135,-2.3135,-2.3135,-2.3135,-2.3135,-2.3135,-2.3135,-2.3135,-2.3135,-2.2492,-2.1667,-2.0854,-2.0584,-2.0584,-2.0584,-2.0584,-2.0494,-1.9679,-1.8864,-1.8234,-1.8234,-1.7576,-1.6929,-1.6929,-1.6929,-1.6929,-1.6929,-1.6929,-1.6929,-1.6929,-1.7677,-1.7956,-1.7117,-1.7669,-1.7948,-1.7117,-1.6929,-1.6842,-1.6386,-1.6749,-1.6655,-1.5825,-1.6197,-1.6197,-1.5825,-1.5832,-1.5832,-1.5832,-1.5832,-1.5832,-1.5832,-1.5832,-1.5832,-1.5832,-1.5832,-1.5832,-1.5832,-1.5832,-1.554,-1.5242,-1.5635,-1.4964,-1.3696,-1.4274,-1.3914,-1.2946,-1.3204,-1.3264,-1.3264,-1.3264,-1.3588,-1.4126,-2.7168,-2.772,-2.8273,-2.8825,-2.9402,-2.9779,-2.9792,-2.8767,-2.8096,-2.8096,-2.6191,-2.4787,-2.4787,-2.38,-2.3135,-2.3135,-2.3135,-2.3135,-2.3135,-2.3135,-2.3135,-2.3135,-2.3135,-2.3135,-2.3135,-2.3135,-2.3135,-2.3135,-2.3135,-2.3135,-2.3135,-2.3135,-2.3135,-2.3135,-2.3135,-2.3135,-2.3135,-2.3135,-2.3135,-2.3135,-2.3135,-2.3135,-2.3135,-2.3135,-2.3135,-2.3135,-2.3135,-2.3135,-2.3135,-2.3135,-2.3135,-2.3135,-2.3135,-2.3135,-2.3135,-2.3135,-2.3135,-2.3135,-2.3135,-2.3135,-2.2501,-2.0133,-1.9497,-1.9488,-1.9488,-1.9497,-1.9497,-1.9497,-1.9497,-1.9497,-1.9497,-1.9497,-1.9497,-1.9497,-1.9497,-1.9488,-1.9497,-1.9497,-1.9488,-1.9497,-1.9497,-1.9047,-1.787,-1.8772,-1.8488,-1.6008,-1.6943,-1.7131,-1.5927,-1.5832,-1.5832,-1.5832,-1.5832,-1.5832,-1.5832,-1.5832,-1.5832,-1.5832,-1.5832,-1.5832,-1.5832,-1.5832,-1.514,-1.3974,-1.5242,-1.457,-1.2695,-1.4038,-1.4123,-1.3372,-1.3372,-1.3372,-1.3372,-1.3372,-1.4234,-1.5417,-2.6747,-2.7155,-2.7708,-2.826,-2.8172,-2.8174,-2.8548,-2.7023,-2.6036,-2.6871,-2.5052,-2.3877,-2.4702,-2.38,-2.3135,-2.3135,-2.3135,-2.3135,-2.3135,-2.3135,-2.3135,-2.3135,-2.3135,-2.3135,-2.3135,-2.3135,-2.3135,-2.3135,-2.3135,-2.3135,-2.3135,-2.3135,-2.3135,-2.3135,-2.3135,-2.3135,-2.3135,-2.3135,-2.3135,-2.3135,-2.3135,-2.3135,-2.3135,-2.3135,-2.3135,-2.3135,-2.3135,-2.3135,-2.3135,-2.3135,-2.3135,-2.3135,-2.3135,-2.3135,-2.3135,-2.3135,-2.3135,-2.3135,-2.3135,-2.3135,-2.296,-2.2227,-2.14,-2.0755,-2.0755,-2.0124,-1.9497,-1.9497,-1.9497,-1.9497,-1.9497,-1.9497,-1.9497,-1.9497,-2.0215,-2.0486,-1.9579,-2.0215,-2.0486,-1.9579,-1.9497,-1.9405,-1.9047,-1.9314,-1.9214,-1.8488,-1.7956,-1.7505,-1.7131,-1.6298,-1.5832,-1.5832,-1.5832,-1.5832,-1.5832,-1.5832,-1.5832,-1.5832,-1.5832,-1.5832,-1.5832,-1.5832,-1.5629,-1.5242,-1.5635,-1.507,-1.4033,-1.5475,-1.5579,-1.4877,-1.5962,-1.6287,-1.6287,-1.6287,-1.6605,-1.6929,-2.6533,-2.6904,-2.7457,-2.8009,-2.7675,-2.7489,-2.8012,-2.6614,-2.5714,-2.6389,-2.4893,-2.4049,-2.4702,-2.38,-2.3135,-2.3135,-2.3135,-2.3135,-2.3135,-2.3135,-2.3135,-2.3135,-2.3135,-2.3135,-2.3135,-2.3135,-2.3135,-2.3135,-2.3135,-2.3135,-2.3135,-2.3135,-2.3135,-2.3135,-2.3135,-2.3135,-2.3135,-2.3135,-2.3135,-2.3135,-2.3135,-2.3135,-2.3135,-2.3135,-2.3135,-2.3135,-2.3135,-2.3135,-2.3135,-2.3135,-2.3135,-2.3135,-2.3135,-2.3135,-2.3135,-2.3135,-2.3135,-2.3135,-2.3135,-2.3135,-2.3135,-2.3135,-2.258,-2.2031,-2.2031,-2.1489,-2.0953,-2.0953,-2.0953,-2.0953,-2.0953,-2.0953,-2.0953,-2.0953,-2.1578,-2.1756,-2.1042,-2.1578,-2.1756,-2.1033,-2.0953,-2.0764,-2.0305,-2.0674,-2.0764,-2.0215,-1.9131,-1.8411,-1.8411,-1.7217,-1.6574,-1.6574,-1.6015,-1.5832,-1.5832,-1.5832,-1.5832,-1.5832,-1.5832,-1.5832,-1.5832,-1.5832,-1.5832,-1.5832,-1.5832,-1.5661,-1.5469,-1.6293,-1.6523,-1.6387,-1.7252,-1.7582,-1.7582,-1.7582,-1.7582,-1.7582,-2.6533,-2.6866,-2.7381,-2.7848,-2.7451,-2.725,-2.769,-2.6849,-2.6235,-2.6235,-2.5294,-2.4628,-2.4628,-2.3714,-2.3135,-2.3135,-2.3135,-2.3135,-2.3135,-2.3135,-2.3135,-2.3135,-2.3135,-2.3135,-2.3135,-2.3135,-2.3135,-2.3135,-2.3135,-2.3135,-2.3135,-2.3135,-2.3135,-2.3135,-2.3135,-2.3135,-2.3135,-2.3135,-2.3135,-2.3135,-2.3135,-2.3135,-2.3135,-2.3135,-2.3135,-2.3135,-2.3135,-2.3135,-2.3135,-2.3135,-2.3135,-2.3135,-2.3135,-2.3135,-2.3135,-2.3135,-2.3135,-2.3135,-2.3135,-2.3135,-2.3135,-2.3135,-2.3135,-2.3135,-2.3135,-2.3135,-2.3135,-2.3135,-2.3135,-2.3135,-2.3135,-2.3135,-2.3135,-2.3135,-2.3135,-2.3135,-2.3135,-2.3135,-2.3135,-2.3135,-2.3135,-2.2677,-2.1569,-2.2492,-2.2677,-2.1569,-2.0305,-1.967,-1.967,-1.8503,-1.7777,-1.7692,-1.6574,-1.592,-1.5832,-1.5832,-1.5832,-1.5832,-1.5832,-1.5832,-1.5832,-1.5832,-1.5832,-1.5832,-1.5832,-1.6159,-1.6707,-1.6707,-1.7054,-1.7582,-1.7582,-1.7582,-1.7582,-1.7582,-1.7582,-1.7582,-2.6533,-2.6553,-2.6582,-2.6348,-2.5733,-2.5307,-2.5082,-2.4324,-2.381,-2.381,-2.3637,-2.3464,-2.3464,-2.3222,-2.3135,-2.3135,-2.3135,-2.3135,-2.3135,-2.3135,-2.3135,-2.3135,-2.3135,-2.3135,-2.3135,-2.3135,-2.3135,-2.3135,-2.3135,-2.3135,-2.3135,-2.3135,-2.3135,-2.3135,-2.3135,-2.3135,-2.3135,-2.3135,-2.3135,-2.3135,-2.3135,-2.3135,-2.3135,-2.3135,-2.3135,-2.3135,-2.3135,-2.3135,-2.3135,-2.3135,-2.3135,-2.3135,-2.3135,-2.3135,-2.3135,-2.3135,-2.3135,-2.3135,-2.3135,-2.3135,-2.3135,-2.3135,-2.3135,-2.3135,-2.3135,-2.3135,-2.3135,-2.3135,-2.3135,-2.3135,-2.3135,-2.3135,-2.3135,-2.3135,-2.3135,-2.3135,-2.3135,-2.3135,-2.3135,-2.3135,-2.3135,-2.296,-2.2765,-2.296,-2.296,-2.2765,-2.1569,-2.0935,-2.0935,-1.9761,-1.868,-1.7692,-1.7412,-1.6857,-1.5832,-1.5832,-1.5832,-1.5832,-1.5832,-1.5832,-1.5832,-1.5832,-1.5832,-1.5832,-1.5832,-1.6159,-1.6707,-1.6707,-1.7054,-1.7582,-1.7582,-1.7582,-1.7582,-1.7582,-1.7582,-1.7582,-2.6383,-2.6094,-2.5822,-2.5804,-2.4864,-2.4121,-2.4206,-2.3604,-2.3135,-2.3135,-2.3135,-2.3135,-2.3135,-2.3135,-2.3135,-2.3135,-2.3135,-2.3135,-2.3135,-2.3135,-2.3135,-2.3135,-2.3135,-2.3135,-2.3135,-2.3135,-2.3135,-2.3135,-2.3135,-2.3135,-2.3135,-2.3135,-2.3135,-2.3135,-2.3135,-2.3135,-2.3135,-2.3135,-2.3135,-2.3135,-2.3135,-2.3135,-2.3135,-2.3135,-2.3135,-2.3135,-2.3135,-2.3135,-2.3135,-2.3135,-2.3135,-2.3135,-2.3135,-2.3135,-2.3135,-2.3135,-2.3135,-2.3135,-2.3135,-2.3135,-2.3135,-2.3135,-2.3135,-2.3135,-2.3135,-2.3135,-2.3135,-2.3135,-2.3135,-2.3135,-2.3135,-2.3135,-2.3135,-2.3135,-2.3135,-2.3135,-2.3135,-2.3135,-2.3135,-2.3135,-2.3135,-2.3135,-2.3135,-2.3135,-2.3135,-2.3135,-2.2492,-2.2129,-2.2129,-2.1033,-2.0034,-1.9405,-1.8864,-1.7948,-1.6756,-1.6669,-1.6386,-1.5832,-1.5832,-1.5832,-1.5832,-1.5832,-1.5832,-1.5832,-1.5832,-1.6159,-1.6707,-1.6707,-1.7054,-1.7582,-1.7582,-1.7582,-1.7582,-1.7582,-1.7582,-1.7582,-2.5791,-2.5288,-2.4837,-2.509,-2.4117,-2.3377,-2.3783,-2.3393,-2.3135,-2.3135,-2.3135,-2.3135,-2.3135,-2.3135,-2.3135,-2.3135,-2.3135,-2.3135,-2.3135,-2.3135,-2.3135,-2.3135,-2.3135,-2.3135,-2.3135,-2.3135,-2.3135,-2.3135,-2.3135,-2.3135,-2.3135,-2.3135,-2.3135,-2.3135,-2.3135,-2.3135,-2.3135,-2.3135,-2.3135,-2.3135,-2.3135,-2.3135,-2.3135,-2.3135,-2.3135,-2.3135,-2.3135,-2.3135,-2.3135,-2.3135,-2.3135,-2.3135,-2.3135,-2.3135,-2.3135,-2.3135,-2.3135,-2.3135,-2.3135,-2.3135,-2.3135,-2.3135,-2.3135,-2.3135,-2.3135,-2.3135,-2.3135,-2.3135,-2.3135,-2.3135,-2.3135,-2.3135,-2.3135,-2.3135,-2.3135,-2.3135,-2.3135,-2.3135,-2.3135,-2.3135,-2.3135,-2.3135,-2.3135,-2.3135,-2.3135,-2.3135,-2.3135,-2.3135,-2.3135,-2.212,-2.148,-2.1293,-2.0305,-1.9231,-1.8048,-1.8056,-1.7498,-1.6473,-1.6197,-1.6015,-1.5832,-1.5832,-1.5832,-1.5832,-1.5832,-1.6159,-1.6707,-1.6707,-1.7054,-1.7582,-1.7582,-1.7582,-1.7582,-1.7582,-1.7582,-1.7582,-2.3891,-2.3818,-2.3463,-2.2628,-2.2981,-2.3041,-2.2357,-2.2722,-2.3135,-2.3135,-2.3135,-2.3135,-2.3135,-2.3135,-2.3135,-2.3135,-2.3135,-2.3135,-2.3135,-2.3135,-2.3135,-2.3135,-2.3135,-2.3135,-2.3135,-2.3135,-2.3135,-2.3135,-2.3135,-2.3135,-2.3135,-2.3135,-2.3135,-2.3135,-2.3135,-2.3135,-2.3135,-2.3135,-2.3135,-2.3135,-2.3135,-2.3135,-2.3135,-2.3135,-2.3135,-2.3135,-2.3135,-2.3135,-2.3135,-2.3135,-2.3135,-2.3135,-2.3135,-2.3135,-2.3135,-2.3135,-2.3135,-2.3135,-2.3135,-2.3135,-2.3135,-2.3135,-2.3135,-2.3135,-2.3135,-2.3135,-2.3135,-2.3135,-2.3135,-2.3135,-2.3135,-2.3135,-2.3135,-2.3135,-2.3135,-2.3135,-2.3135,-2.3135,-2.3135,-2.3135,-2.3135,-2.3135,-2.3135,-2.3135,-2.3135,-2.3135,-2.3135,-2.3135,-2.3135,-2.296,-2.2403,-2.1293,-2.1141,-2.0503,-1.9314,-1.9222,-1.9131,-1.8948,-1.7956,-1.685,-1.5832,-1.5832,-1.5832,-1.5832,-1.5832,-1.6159,-1.6707,-1.6707,-1.7054,-1.7582,-1.7582,-1.7582,-1.7582,-1.7582,-1.7582,-1.7582,-2.3368,-2.3073,-2.2553,-2.2103,-2.2275,-2.2421,-2.1958,-2.2598,-2.3135,-2.3135,-2.3135,-2.3135,-2.3135,-2.3135,-2.3135,-2.3135,-2.3135,-2.3135,-2.3135,-2.3135,-2.3135,-2.3135,-2.3135,-2.3135,-2.3135,-2.3135,-2.3135,-2.3135,-2.3135,-2.3135,-2.3135,-2.3135,-2.3135,-2.3135,-2.3135,-2.3135,-2.3135,-2.3135,-2.3135,-2.3135,-2.3135,-2.3135,-2.3135,-2.3135,-2.3464,-2.4135,-2.4808,-2.4553,-2.4049,-2.4049,-2.3637,-2.3135,-2.3135,-2.3135,-2.3135,-2.3135,-2.3135,-2.3135,-2.3135,-2.3135,-2.3135,-2.3135,-2.3135,-2.3135,-2.3135,-2.3135,-2.3135,-2.3135,-2.3135,-2.3135,-2.3135,-2.3135,-2.3135,-2.3135,-2.3135,-2.3135,-2.3135,-2.3135,-2.3135,-2.3135,-2.3135,-2.3135,-2.3135,-2.3135,-2.3135,-2.3135,-2.3135,-2.3135,-2.3135,-2.3135,-2.2862,-2.2306,-2.2325,-2.1774,-2.0486,-2.0486,-1.9852,-1.8503,-1.7956,-1.7412,-1.685,-1.6103,-1.5832,-1.5832,-1.5832,-1.6159,-1.6707,-1.6707,-1.7054,-1.7582,-1.7582,-1.7582,-1.7582,-1.7582,-1.7582,-1.7582]}]]